[[{"header":{"parameterUnit":"m.s-1","parameterCategory":1,"la1":30.6,"la2":29.2853,"lo1":-89.7004,"lo2":-87.6739,"dy":0.0162,"dx":0.0183,"nx":112,"ny":82,"refTime":"2023-09-24T12:00:00:Z","depth":0,"parameterNumber":2,"parameterNumberName":"U-component_of_WINDS"},"data":[0.0,0.0,0.0,0.0,0.0,0.0,0.0,0.0,0.0,0.0,0.0,0.0,0.0,0.0,0.0,0.0,0.0,0.0,0.0,0.0,0.0,0.0,0.0,0.0,0.0,0.0,0.0,0.0,0.0,0.0,0.0,0.0,0.0,0.0,0.0,0.0,0.0,0.0,0.0,0.0,0.0,0.0,0.0,0.0,0.0,0.0,0.0,0.0,0.0,0.0,0.0,0.0,0.0,0.0,0.0,0.0,0.0,0.0,0.0,0.0,0.0,0.0,0.0,0.0,0.0,0.0,0.0,0.0,0.0,0.0,0.0,0.0,0.0,0.0,0.0,0.0,0.0,0.0,0.0,0.0,0.0,0.0,0.0,0.0,0.0,0.0,0.0,0.0,0.0,0.0,2.2856,2.654,2.8013,2.8734,2.8734,2.871,2.7467,2.4621,0.0,0.0,0.0,0.0,0.0,0.0,0.0,0.0,0.0,0.0,0.0,0.0,0.0,0.0,0.0,0.0,0.0,0.0,0.0,0.0,0.0,0.0,0.0,0.0,0.0,0.0,0.0,0.0,0.0,0.0,0.0,0.0,0.0,0.0,0.0,0.0,0.0,0.0,0.0,0.0,0.0,0.0,0.0,0.0,0.0,0.0,0.0,0.0,0.0,0.0,0.0,0.0,0.0,0.0,0.0,0.0,0.0,0.0,0.0,0.0,0.0,0.0,0.0,0.0,0.0,0.0,0.0,0.0,0.0,0.0,0.0,0.0,0.0,0.0,0.0,0.0,0.0,0.0,0.0,0.0,0.0,0.0,0.0,0.0,0.0,0.0,0.0,0.0,0.0,0.0,0.0,0.0,0.0,0.0,0.0,0.0,0.0,0.0,0.0,0.0,0.0,0.0,0.0,0.0,2.5118,2.8135,2.8464,2.8465,2.8465,2.8267,2.6986,2.433,0.0,0.0,0.0,0.0,0.0,0.0,0.0,0.0,0.0,0.0,0.0,0.0,0.0,0.0,0.0,0.0,0.0,0.0,0.0,0.0,0.0,0.0,0.0,0.0,0.0,0.0,0.0,0.0,0.0,0.0,0.0,0.0,0.0,0.0,0.0,0.0,0.0,0.0,0.0,0.0,0.0,0.0,0.0,0.0,0.0,0.0,0.0,0.0,0.0,0.0,0.0,0.0,0.0,0.0,0.0,0.0,0.0,0.0,0.0,0.0,0.0,0.0,0.0,0.0,0.0,0.0,0.0,0.0,0.0,0.0,0.0,0.0,0.0,0.0,0.0,0.0,0.0,0.0,0.0,0.0,0.0,0.0,0.0,0.0,0.0,0.0,0.0,0.0,0.0,0.0,0.0,0.0,0.0,0.0,0.0,0.0,0.0,0.0,0.0,0.0,0.0,0.0,0.0,2.4596,2.7116,2.844,2.8465,2.8395,2.8395,2.8139,2.7003,2.4686,2.4237,0.0,0.0,0.0,0.0,0.0,0.0,0.0,0.0,0.0,0.0,0.0,0.0,0.0,0.0,0.0,0.0,0.0,0.0,0.0,0.0,0.0,0.0,0.0,0.0,0.0,0.0,0.0,0.0,0.0,0.0,0.0,0.0,0.0,0.0,0.0,0.0,0.0,0.0,0.0,0.0,0.0,0.0,0.0,0.0,0.0,0.0,0.0,0.0,0.0,0.0,0.0,0.0,0.0,0.0,0.0,0.0,0.0,0.0,0.0,0.0,0.0,0.0,0.0,0.0,0.0,0.0,0.0,0.0,0.0,0.0,0.0,0.0,0.0,0.0,0.0,0.0,0.0,0.0,0.0,0.0,0.0,0.0,0.0,0.0,0.0,0.0,0.0,0.0,0.0,0.0,0.0,0.0,0.0,0.0,0.0,0.0,0.0,0.0,0.0,0.0,0.0,0.0,2.6077,2.7784,2.8177,2.816,2.8113,2.8055,2.7786,2.6751,2.4642,2.3877,0.0,0.0,0.0,0.0,0.0,0.0,0.0,0.0,0.0,0.0,0.0,0.0,0.0,0.0,0.0,0.0,0.0,0.0,0.0,0.0,0.0,0.0,0.0,0.0,0.0,0.0,0.0,0.0,0.0,0.0,0.0,0.0,0.0,0.0,0.0,0.0,0.0,0.0,0.0,0.0,0.0,0.0,0.0,0.0,0.0,0.0,0.0,0.0,0.0,0.0,0.0,0.0,0.0,0.0,0.0,0.0,0.0,0.0,0.0,0.0,0.0,0.0,0.0,0.0,0.0,0.0,0.0,0.0,0.0,0.0,0.0,0.0,0.0,0.0,0.0,0.0,0.0,0.0,0.0,0.0,0.0,0.0,0.0,0.0,0.0,0.0,0.0,0.0,0.0,0.0,0.0,0.0,0.0,0.0,0.0,0.0,0.0,0.0,0.0,0.0,0.0,0.0,2.4956,2.593,2.75,2.7499,2.7275,2.7027,2.675,2.5691,2.3554,2.3062,0.0,0.0,0.0,0.0,0.0,0.0,0.0,0.0,0.0,0.0,0.0,0.0,0.0,0.0,0.0,0.0,0.0,0.0,0.0,0.0,0.0,0.0,0.0,0.0,0.0,0.0,0.0,0.0,0.0,0.0,0.0,0.0,0.0,0.0,0.0,0.0,0.0,0.0,0.0,0.0,0.0,0.0,0.0,0.0,0.0,0.0,0.0,0.0,0.0,0.0,0.0,0.0,0.0,0.0,0.0,0.0,0.0,0.0,0.0,0.0,0.0,0.0,0.0,0.0,0.0,0.0,0.0,0.0,0.0,0.0,0.0,0.0,0.0,0.0,0.0,0.0,0.0,0.0,0.0,0.0,0.0,0.0,0.0,0.0,0.0,0.0,0.0,0.0,0.0,0.0,0.0,0.0,0.0,0.0,0.0,0.0,0.0,0.0,0.0,0.0,0.0,0.0,2.5409,2.6452,2.7097,2.7098,2.7003,2.6907,2.6654,2.5734,2.3908,0.0,0.0,0.0,0.0,0.0,0.0,0.0,0.0,0.0,0.0,0.0,0.0,0.0,0.0,0.0,0.0,0.0,0.0,0.0,0.0,0.0,0.0,0.0,0.0,0.0,0.0,0.0,0.0,0.0,0.0,0.0,0.0,0.0,0.0,0.0,0.0,0.0,0.0,0.0,0.0,0.0,0.0,0.0,0.0,0.0,0.0,0.0,0.0,0.0,0.0,0.0,0.0,0.0,0.0,0.0,0.0,0.0,0.0,0.0,0.0,0.0,0.0,0.0,0.0,0.0,0.0,0.0,0.0,0.0,0.0,0.0,0.0,0.0,0.0,0.0,0.0,0.0,0.0,0.0,0.0,0.0,0.0,0.0,0.0,0.0,0.0,0.0,0.0,0.0,0.0,0.0,0.0,0.0,0.0,0.0,0.0,0.0,0.0,0.0,0.0,0.0,0.0,2.4232,2.5723,2.6774,2.6774,2.6774,2.6774,2.6774,2.6616,2.5698,2.3805,0.0,0.0,0.0,0.0,0.0,0.0,0.0,0.0,0.0,0.0,0.0,0.0,0.0,0.0,0.0,0.0,0.0,0.0,0.0,0.0,0.0,0.0,0.0,0.0,0.0,0.0,0.0,0.0,0.0,0.0,0.0,0.0,0.0,0.0,0.0,0.0,0.0,0.0,0.0,0.0,0.0,0.0,0.0,0.0,0.0,0.0,0.0,0.0,0.0,0.0,0.0,0.0,0.0,0.0,0.0,0.0,0.0,0.0,0.0,0.0,0.0,0.0,0.0,0.0,0.0,0.0,0.0,0.0,0.0,0.0,0.0,0.0,0.0,0.0,0.0,0.0,0.0,0.0,0.0,0.0,0.0,0.0,0.0,0.0,0.0,0.0,0.0,0.0,0.0,0.0,0.0,0.0,0.0,0.0,0.0,0.0,0.0,0.0,0.0,0.0,0.0,0.0,2.4446,2.5653,2.6496,2.6496,2.6496,2.6496,2.6496,2.6496,2.5452,0.0,0.0,0.0,0.0,0.0,0.0,0.0,0.0,0.0,0.0,0.0,0.0,0.0,0.0,0.0,0.0,0.0,0.0,0.0,0.0,0.0,0.0,0.0,0.0,0.0,0.0,0.0,0.0,0.0,0.0,0.0,0.0,0.0,0.0,0.0,0.0,0.0,0.0,0.0,0.0,0.0,0.0,0.0,0.0,0.0,0.0,0.0,0.0,0.0,0.0,0.0,0.0,0.0,0.0,0.0,0.0,0.0,0.0,0.0,0.0,0.0,0.0,0.0,0.0,0.0,0.0,0.0,0.0,0.0,0.0,0.0,0.0,0.0,0.0,0.0,0.0,0.0,0.0,0.0,0.0,0.0,0.0,0.0,0.0,0.0,0.0,0.0,0.0,0.0,0.0,0.0,0.0,0.0,0.0,0.0,0.0,0.0,0.0,0.0,0.0,0.0,0.0,0.0,2.3716,2.5002,2.5951,2.5951,2.611,2.6221,2.6221,2.64,2.5452,2.2951,0.0,0.0,0.0,0.0,0.0,0.0,0.0,0.0,0.0,0.0,0.0,0.0,0.0,0.0,0.0,0.0,0.0,0.0,0.0,0.0,0.0,0.0,0.0,0.0,0.0,0.0,0.0,0.0,0.0,0.0,0.0,0.0,0.0,0.0,0.0,0.0,0.0,0.0,0.0,0.0,0.0,0.0,0.0,0.0,0.0,0.0,0.0,0.0,0.0,0.0,0.0,0.0,0.0,0.0,0.0,0.0,0.0,0.0,0.0,0.0,0.0,0.0,0.0,0.0,0.0,0.0,0.0,0.0,0.0,0.0,0.0,0.0,0.0,0.0,0.0,0.0,0.0,0.0,0.0,0.0,0.0,0.0,0.0,0.0,0.0,0.0,0.0,0.0,0.0,0.0,0.0,0.0,0.0,0.0,0.0,0.0,0.0,0.0,0.0,0.0,0.0,0.0,2.3692,2.5205,2.6398,2.6655,2.6837,2.6985,2.7083,2.7067,2.617,2.4043,0.0,0.0,0.0,0.0,0.0,0.0,0.0,0.0,0.0,0.0,0.0,0.0,0.0,0.0,0.0,0.0,0.0,0.0,0.0,0.0,0.0,0.0,0.0,0.0,0.0,0.0,0.0,0.0,0.0,0.0,0.0,0.0,0.0,0.0,0.0,0.0,0.0,0.0,0.0,0.0,0.0,0.0,0.0,0.0,0.0,0.0,0.0,0.0,0.0,0.0,0.0,0.0,0.0,0.0,0.0,0.0,0.0,0.0,0.0,0.0,0.0,0.0,0.0,0.0,0.0,0.0,0.0,0.0,0.0,0.0,0.0,0.0,0.0,0.0,0.0,0.0,0.0,0.0,0.0,0.0,0.0,0.0,0.0,0.0,0.0,0.0,0.0,0.0,0.0,0.0,0.0,0.0,0.0,0.0,0.0,0.0,0.0,0.0,0.0,0.0,0.0,0.0,2.4054,2.5946,2.7506,2.8106,2.8196,2.8297,2.8532,2.82,2.7311,2.5757,0.0,0.0,0.0,0.0,0.0,0.0,0.0,0.0,0.0,0.0,0.0,0.0,0.0,0.0,0.0,0.0,0.0,0.0,0.0,0.0,0.0,0.0,0.0,0.0,0.0,0.0,0.0,0.0,0.0,0.0,0.0,0.0,0.0,0.0,0.0,0.0,0.0,0.0,0.0,0.0,0.0,0.0,0.0,0.0,0.0,0.0,0.0,0.0,0.0,0.0,0.0,0.0,0.0,0.0,0.0,0.0,0.0,0.0,0.0,0.0,2.1868,2.0241,0.0,0.0,0.0,0.0,0.0,0.0,0.0,0.0,0.0,0.0,0.0,0.0,0.0,0.0,0.0,0.0,0.0,0.0,0.0,0.0,0.0,0.0,0.0,0.0,0.0,0.0,0.0,0.0,0.0,0.0,0.0,0.0,0.0,0.0,0.0,0.0,0.0,0.0,0.0,0.0,2.3392,2.5917,2.7809,2.795,2.8106,2.8222,2.8272,2.839,2.7785,2.6262,2.5405,0.0,0.0,0.0,0.0,0.0,0.0,0.0,0.0,0.0,0.0,0.0,0.0,0.0,0.0,0.0,0.0,0.0,0.0,0.0,0.0,0.0,0.0,0.0,0.0,0.0,0.0,0.0,0.0,0.0,0.0,0.0,0.0,0.0,0.0,0.0,0.0,0.0,0.0,0.0,0.0,0.0,0.0,0.0,0.0,0.0,0.0,0.0,0.0,0.0,0.0,0.0,0.0,0.0,0.0,0.0,0.0,0.0,0.0,0.0,2.3099,2.2443,0.0,0.0,0.0,0.0,0.0,0.0,0.0,0.0,0.0,0.0,0.0,0.0,0.0,0.0,0.0,0.0,0.0,0.0,0.0,0.0,0.0,0.0,0.0,0.0,0.0,0.0,0.0,0.0,0.0,0.0,0.0,0.0,0.0,0.0,0.0,0.0,0.0,0.0,0.0,0.0,2.3977,2.6547,2.8467,2.8695,2.868,2.8634,2.8634,2.8579,2.8222,2.7421,2.6226,0.0,0.0,0.0,0.0,0.0,0.0,0.0,0.0,0.0,0.0,0.0,0.0,0.0,0.0,0.0,0.0,0.0,0.0,0.0,0.0,0.0,0.0,0.0,0.0,0.0,0.0,0.0,0.0,0.0,0.0,0.0,0.0,0.0,0.0,0.0,0.0,0.0,0.0,0.0,0.0,0.0,0.0,0.0,0.0,0.0,0.0,0.0,0.0,0.0,0.0,0.0,0.0,0.0,2.5418,2.5385,2.4763,2.5316,2.5077,2.4252,2.4601,2.5093,2.5537,2.3924,0.0,0.0,0.0,0.0,0.0,0.0,0.0,0.0,0.0,0.0,0.0,0.0,0.0,0.0,0.0,0.0,0.0,0.0,0.0,0.0,0.0,0.0,2.3696,2.4767,2.4136,2.3645,2.4872,0.0,0.0,0.0,0.0,0.0,0.0,0.0,0.0,0.0,0.0,0.0,2.482,2.7335,2.9231,2.9684,2.9486,2.9336,2.9336,2.8961,2.8745,2.8745,2.7027,2.5909,0.0,0.0,0.0,0.0,0.0,0.0,0.0,0.0,0.0,0.0,0.0,0.0,0.0,0.0,0.0,0.0,0.0,0.0,0.0,0.0,0.0,0.0,0.0,0.0,0.0,0.0,0.0,0.0,0.0,0.0,0.0,0.0,2.0045,2.1395,0.0,0.0,0.0,0.0,0.0,0.0,0.0,0.0,0.0,0.0,0.0,0.0,0.0,2.4085,2.4085,2.5175,2.571,2.5732,2.6626,2.6998,2.6889,2.6976,2.6954,2.6768,2.6037,0.0,2.4757,2.4437,0.0,0.0,0.0,0.0,0.0,0.0,0.0,0.0,0.0,0.0,0.0,0.0,0.0,0.0,0.0,0.0,0.0,0.0,0.0,0.0,0.0,0.0,2.751,2.7464,2.6357,2.5813,2.7638,2.4682,2.2274,2.4332,2.3447,2.2411,0.0,0.0,0.0,0.0,0.0,0.0,2.4783,2.7652,2.985,3.0256,3.0268,3.0224,3.0224,2.9849,2.9625,2.9625,2.8663,2.7487,2.6085,2.6967,0.0,0.0,0.0,0.0,0.0,0.0,0.0,0.0,0.0,0.0,0.0,0.0,0.0,0.0,0.0,0.0,0.0,0.0,0.0,0.0,0.0,0.0,0.0,0.0,0.0,0.0,0.0,0.0,0.0,1.9952,2.1079,2.1615,2.2193,2.2171,0.0,0.0,0.0,0.0,0.0,0.0,0.0,0.0,0.0,2.4495,2.5119,2.5662,2.607,2.715,2.7899,2.8331,2.8723,2.8919,2.8919,2.8919,2.879,2.8506,2.8091,2.7569,2.6891,2.6033,2.5667,2.5656,0.0,0.0,0.0,0.0,2.441,2.488,2.4408,2.5184,2.6344,2.614,0.0,0.0,0.0,0.0,0.0,0.0,0.0,2.6051,2.5991,2.6791,2.771,2.8006,2.7458,2.7183,2.8259,2.6298,2.4614,2.5544,2.4356,2.2991,2.2392,2.3019,0.0,0.0,0.0,2.6592,2.6796,2.8629,2.9973,3.0163,3.0044,2.9951,2.9951,2.9782,2.9674,2.9674,2.9317,2.868,2.7695,2.8134,2.7211,0.0,0.0,0.0,0.0,0.0,0.0,0.0,0.0,0.0,0.0,0.0,0.0,0.0,0.0,0.0,0.0,0.0,0.0,0.0,0.0,0.0,0.0,0.0,0.0,0.0,0.0,0.0,0.0,2.1171,2.2273,2.2502,2.3581,2.3985,0.0,0.0,0.0,0.0,0.0,0.0,2.5371,2.5404,2.5568,2.5939,2.678,2.7496,2.8035,2.8927,2.9667,3.0185,3.0089,3.0024,3.0024,2.9893,2.9642,2.9316,2.9316,2.9119,2.8716,2.761,2.7173,2.7173,2.7391,2.7042,2.6376,2.6037,2.6072,2.6248,2.5717,2.6509,2.7648,2.7005,2.6596,2.6308,2.6143,0.0,0.0,0.0,0.0,2.6823,2.713,2.7493,2.789,2.8447,2.8511,2.8553,2.8848,2.7869,2.694,2.7073,2.5842,2.4496,2.3571,2.4531,0.0,2.4003,2.6252,2.8155,2.8415,2.9382,3.0094,3.0222,3.0053,2.994,2.994,2.9823,2.9755,2.9755,2.9657,2.9452,2.9092,2.9082,2.8254,2.6557,0.0,0.0,0.0,0.0,0.0,0.0,0.0,0.0,0.0,0.0,0.0,0.0,0.0,0.0,0.0,0.0,0.0,0.0,0.0,0.0,0.0,0.0,0.0,0.0,0.0,0.0,0.0,0.0,0.0,2.4845,2.6255,0.0,0.0,0.0,0.0,2.4486,2.4878,2.5928,2.7718,2.7816,2.8472,2.9882,2.9967,3.0021,3.0043,3.0109,3.0163,3.0185,2.974,2.9545,2.9523,2.9064,2.8858,2.8836,2.8836,2.8825,2.8792,2.8727,2.8694,2.865,2.8144,2.7925,2.7718,2.6376,2.6596,2.7397,2.668,2.7561,2.893,2.8508,2.7648,2.6497,2.5116,2.5033,0.0,0.0,2.5542,2.7185,2.6369,2.7857,2.9598,2.9611,2.9942,3.0264,3.0294,2.9243,2.8535,2.937,2.8425,2.7557,2.7744,0.0,2.7682,2.6102,2.7086,2.8143,2.8539,2.9541,3.0361,3.081,3.0849,3.082,3.082,3.042,3.0166,3.0166,2.9823,2.9588,2.9569,2.9559,2.9287,2.8742,2.7178,0.0,0.0,0.0,0.0,0.0,0.0,0.0,0.0,0.0,0.0,0.0,0.0,0.0,0.0,0.0,0.0,0.0,0.0,0.0,0.0,0.0,0.0,0.0,0.0,0.0,0.0,0.0,0.0,2.5097,2.6179,0.0,2.6573,2.7173,2.7492,2.7283,2.814,2.8899,2.9377,2.9421,2.9792,3.0624,3.0483,3.0788,3.1607,3.1443,3.1595,3.207,3.1906,3.1819,3.1808,3.1633,3.1582,3.1582,3.1582,3.1352,3.0994,3.0994,3.0475,2.9707,2.9827,3.0043,3.0261,2.9749,2.9564,2.9565,2.9285,2.9362,2.951,2.9193,2.8722,2.8218,2.7965,2.8015,2.8152,2.803,2.8643,2.9269,2.8949,2.9382,2.9898,2.9898,2.9897,2.9946,3.0222,2.9898,2.9796,3.0586,2.9195,2.7921,2.8008,2.8888,2.9211,2.8165,2.9073,2.9982,3.0289,3.0523,3.0703,3.0869,3.0889,3.0889,3.0889,3.0742,3.0644,3.0644,3.0508,3.0283,2.999,2.9999,2.9803,2.9373,2.8777,2.749,0.0,0.0,0.0,0.0,0.0,0.0,0.0,0.0,0.0,0.0,0.0,0.0,0.0,0.0,0.0,0.0,0.0,0.0,0.0,0.0,0.0,0.0,0.0,0.0,0.0,2.3875,2.5382,2.5862,2.69,2.7751,2.8221,2.8755,2.9186,2.9493,3.0237,3.0778,3.093,3.0941,3.116,3.1644,3.1476,3.1765,3.2639,3.2469,3.2622,3.3098,3.3098,3.3098,3.3098,3.3098,3.2798,3.2278,3.264,3.2255,3.137,3.1749,3.1466,3.082,3.0985,3.1231,3.151,3.151,3.1169,3.072,3.072,3.0296,2.9745,2.9842,2.9655,2.9446,2.9736,2.9789,2.9849,3.0065,3.0227,3.0336,3.0336,3.0325,3.0341,3.0416,3.0293,3.0277,3.0648,3.0499,3.0537,3.152,3.0292,2.8998,2.8632,2.9369,2.9713,2.8759,2.93,2.9887,3.0062,3.0346,3.051,3.051,3.0817,3.1025,3.1025,3.0622,3.0506,3.0898,3.0565,3.0379,3.042,3.0085,2.9641,2.9072,2.8252,2.7223,2.597,0.0,0.0,0.0,0.0,0.0,0.0,0.0,0.0,0.0,0.0,0.0,0.0,0.0,0.0,0.0,0.0,0.0,0.0,0.0,0.0,0.0,0.0,0.0,2.3078,2.5154,2.6835,2.7326,2.8659,2.9718,3.0209,3.0275,3.0472,3.093,3.0988,3.1414,3.2376,3.2387,3.2584,3.3054,3.3054,3.3065,3.3098,3.313,3.3141,3.3141,3.3141,3.3141,3.3141,3.3115,3.223,3.0748,3.1774,3.1291,2.9857,3.0897,3.1567,3.1929,3.1492,3.1326,3.1337,3.1337,3.1117,3.0831,3.0784,3.0286,2.9777,3.0555,3.0454,3.002,3.002,3.0038,2.9992,2.9731,2.994,3.0263,3.0263,3.0615,3.1044,3.1287,3.1374,3.1461,3.177,3.1115,3.0884,3.2259,3.1896,3.1044,2.9998,2.9795,2.9373,2.8084,2.7868,0.0,2.7868,2.9002,2.9785,2.9785,3.0673,3.1256,3.1325,3.0097,2.977,3.0869,2.9949,2.9839,3.0898,2.992,2.8981,2.814,2.5777,2.5428,2.7152,0.0,0.0,0.0,0.0,0.0,0.0,0.0,0.0,0.0,0.0,0.0,0.0,0.0,0.0,0.0,0.0,0.0,0.0,0.0,0.0,0.0,2.4181,2.5962,2.6103,2.6988,2.8068,2.9247,3.0057,3.0701,3.1167,3.1742,3.22,3.2464,3.2665,3.2812,3.289,3.1906,3.172,3.2573,3.2219,3.2361,3.3087,3.377,3.413,3.413,3.413,3.413,3.4103,3.3649,3.3223,3.2771,3.2633,3.205,3.1238,3.1558,3.1477,3.1242,3.1669,3.2016,3.2323,3.2323,3.1984,3.1392,3.0524,3.0358,3.0585,3.0786,3.0758,3.0643,3.0643,3.0777,3.0939,3.0853,3.1343,3.1885,3.1885,3.2225,3.2595,3.2674,3.2674,3.2704,3.2793,3.2602,3.259,3.3181,3.3131,3.281,3.2329,3.2239,3.2177,3.1994,3.181,3.1763,3.1944,3.1841,3.1727,3.1727,3.078,3.0554,3.1592,3.0384,3.0138,3.1476,3.1274,3.1234,3.1556,3.1274,3.101,3.0742,2.9005,2.8269,0.0,0.0,0.0,0.0,0.0,0.0,0.0,0.0,0.0,0.0,0.0,0.0,0.0,0.0,0.0,0.0,0.0,0.0,0.0,0.0,0.0,0.0,2.5904,2.82,2.8985,2.9159,2.9607,3.0654,3.1225,3.1706,3.2175,3.265,3.3076,3.336,3.3549,3.3637,3.3688,3.2874,3.2492,3.2693,3.2776,3.2785,3.2712,3.3646,3.4009,3.3745,3.3745,3.3745,3.3717,3.3378,3.2836,3.2183,3.2277,3.1824,3.1047,3.149,3.1574,3.1456,0.0,0.0,0.0,0.0,3.173,3.1323,3.0617,3.073,3.1182,3.1329,3.1476,3.1693,3.1811,3.1561,3.1219,3.1219,3.1152,3.1222,3.1786,3.2128,3.249,3.3194,3.3355,3.3426,3.3545,3.328,3.3217,3.3949,3.3773,0.0,3.4064,3.3321,3.2564,3.2163,3.1968,3.1911,3.2081,3.2205,3.2284,3.2284,3.1722,3.1657,3.2475,3.1101,0.0,0.0,0.0,3.1131,3.1131,3.0949,0.0,0.0,0.0,2.8533,2.9027,2.8162,0.0,0.0,2.7583,2.6805,0.0,0.0,0.0,0.0,0.0,0.0,0.0,0.0,0.0,0.0,0.0,0.0,0.0,0.0,0.0,0.0,2.7426,2.9808,3.1542,3.1465,3.1367,3.1713,3.2241,3.2726,3.3141,3.3229,3.3437,3.3846,3.3879,3.4087,3.4539,3.4419,0.0,0.0,0.0,3.3695,3.2343,3.3222,3.3376,3.284,3.284,3.284,3.284,3.2783,3.1925,3.0574,3.1454,3.1199,3.0224,3.1201,3.1816,3.212,3.1358,3.1035,3.1055,3.1015,3.1035,3.1103,3.1064,0.0,0.0,3.2038,3.2416,3.2804,3.3095,3.2349,3.1373,3.1373,3.0585,3.0008,3.1198,3.1541,3.196,3.3452,3.3798,3.3888,3.4187,3.3596,3.336,3.463,3.4205,3.4,3.5211,3.3722,3.1984,3.0791,3.0605,3.0605,3.0605,3.1602,3.2315,3.2315,3.2983,0.0,3.3634,3.2039,3.1498,3.2599,3.135,3.0554,3.0554,3.0115,2.9255,2.7928,2.7493,2.7936,2.9252,2.9252,3.0356,3.2363,2.9106,2.821,0.0,0.0,0.0,0.0,0.0,0.0,0.0,0.0,0.0,0.0,0.0,0.0,0.0,0.0,0.0,2.7863,3.0083,3.1961,3.2715,3.3076,3.3126,3.2846,3.3251,3.3551,3.3677,3.401,3.4283,3.4354,3.4354,3.4561,3.5048,3.3977,3.3617,3.4201,3.3497,3.3181,3.3243,3.3704,3.3871,3.3742,3.3742,0.0,3.3723,3.323,3.2861,3.253,3.2246,3.1966,3.1779,3.1964,3.212,3.2179,3.2013,3.1954,3.1926,3.1709,3.1928,3.2326,3.2107,3.2409,3.2885,3.2945,3.3035,3.3135,3.3196,3.3153,0.0,3.3108,3.3397,3.3748,3.4006,3.4316,3.4645,3.4974,3.5067,3.5067,3.5128,3.5024,3.4952,3.5242,3.5148,3.5117,3.5345,3.5025,3.4642,3.4384,3.4372,3.4372,3.4372,3.4289,3.4268,3.4268,3.3093,3.2757,3.392,3.2651,3.2365,3.3707,3.3178,3.2775,3.2775,3.2323,3.1949,3.1654,3.1561,3.1657,3.1952,3.1952,3.2354,3.3165,3.1876,3.1527,0.0,0.0,0.0,0.0,0.0,0.0,0.0,0.0,0.0,0.0,0.0,2.4616,2.5199,0.0,2.8249,2.9458,3.1083,3.2481,3.3327,3.4043,3.4229,3.3546,3.3857,3.425,3.448,3.472,3.4971,3.5223,3.5244,3.5343,3.5601,3.4612,3.4026,3.4009,3.3628,3.3114,3.2542,3.3214,3.3395,3.3105,3.3105,3.3105,3.3075,3.2784,3.2633,3.2633,3.234,3.2407,3.2776,3.3137,3.3287,3.3287,3.3287,3.2968,3.2442,3.2474,3.2684,3.2915,3.28,3.3073,3.3548,3.37,3.3872,3.4085,3.4238,3.3939,3.3514,3.3514,3.3322,3.3242,3.3926,3.4257,3.4569,3.5232,3.5387,3.5387,3.5387,3.5387,3.5387,3.5387,3.5387,3.5387,3.5387,3.5387,3.5387,3.5387,3.5387,3.5387,3.5387,3.5231,3.5086,3.5086,3.4279,3.398,3.4683,3.3917,3.3586,3.4071,3.3874,3.375,3.375,3.3513,3.3399,3.3399,3.3399,3.3399,3.3399,3.3399,3.3513,3.375,3.3375,3.3272,0.0,0.0,0.0,0.0,0.0,0.0,0.0,2.4945,2.5132,2.5295,2.6015,2.6757,2.7239,2.8186,2.9388,3.0905,3.1973,3.2966,3.3939,3.4807,3.507,3.4305,3.4567,3.4949,3.5321,3.5354,3.5517,3.5972,3.5994,3.598,3.595,3.5441,3.475,3.3909,3.4016,3.3453,3.2154,3.2885,3.3003,3.2534,3.2596,3.2626,3.2626,3.2626,3.2626,3.2626,3.2626,3.2966,3.356,3.4148,3.4392,3.4423,3.4485,3.3929,3.3174,3.3447,3.3538,3.3528,3.3589,3.3852,3.4146,3.4432,3.4728,3.5046,3.5325,3.4652,3.3801,3.3801,3.2996,3.2444,3.3522,3.3801,3.4051,3.5128,3.5387,3.5387,3.5387,3.5387,3.5387,3.5387,3.5387,3.5387,3.5387,3.5387,3.5387,3.5387,3.5387,3.5387,3.5387,3.5387,3.5387,3.5387,3.5387,3.5387,3.5387,3.5097,3.4765,3.4382,3.4278,3.4236,3.4236,3.4143,3.4102,3.4102,3.4102,3.4102,3.4102,3.4102,3.4143,3.4236,3.4236,3.4185,2.2315,2.0332,1.9663,2.1479,2.3184,2.4639,0.0,2.8003,2.9751,2.856,3.0081,3.1622,3.1666,3.2479,3.3201,3.3409,3.4224,3.489,3.5026,3.5528,3.5874,3.5765,3.5798,3.5852,3.5907,3.5907,3.594,3.5994,3.5994,3.5917,3.5734,3.5665,3.5503,3.5199,3.4656,3.4253,3.41,3.3911,3.3773,3.372,3.4002,3.4148,3.4148,3.4148,3.4148,3.4148,3.4148,3.4209,3.429,3.4372,3.4392,3.4423,3.4735,3.4767,3.4655,3.4686,3.4717,3.4738,3.5057,3.518,3.5222,3.5253,3.5325,3.5356,3.5397,3.5283,3.519,3.519,3.5056,3.4973,3.5128,3.519,3.5201,3.5356,3.5387,3.5387,3.5387,3.5387,3.5387,3.5387,3.5387,3.5387,3.5387,3.5387,3.5387,3.5387,3.5387,3.5387,3.5387,3.5387,3.5387,3.5387,3.5387,3.5387,3.5387,3.5376,3.5324,3.5273,3.4931,3.4713,3.4713,3.4319,3.4102,3.4102,3.4102,3.4102,3.4102,3.4102,3.4309,3.4713,3.4713,3.4495,2.3317,2.352,2.4235,2.5476,2.702,2.8473,2.9456,3.078,3.1662,3.1382,3.2306,3.3202,3.3202,3.3408,3.3813,3.4508,3.4563,3.4817,3.5557,3.6074,3.6421,3.6421,3.5783,3.5298,3.5129,3.5889,3.6151,3.5561,3.6138,3.6505,3.6397,3.5851,3.5508,3.5418,3.4766,3.4392,3.4392,3.4267,3.4204,3.4204,3.4329,3.4392,3.4392,3.4392,3.4392,3.4423,3.461,3.4704,3.4704,3.4891,3.4984,3.5015,3.5139,3.5201,3.5201,3.5201,3.5201,3.5201,3.5356,3.5387,3.5387,3.5387,3.5387,3.5387,3.5387,3.5387,3.5387,3.5387,3.5387,3.5387,3.5387,3.5387,3.5387,3.5387,3.5387,3.5387,3.5387,3.5387,3.5387,3.5387,3.5387,3.5387,3.5387,3.5387,3.5387,3.5387,3.5387,3.5387,3.5387,3.5387,3.5387,3.5387,3.5387,3.5387,3.5387,3.5387,3.5387,3.5387,3.5242,3.5148,3.5148,3.4952,3.4859,3.4859,3.4859,3.4859,3.4859,3.4859,3.4952,3.5148,3.5148,3.5035,2.3983,2.5342,2.6809,2.8553,2.9862,3.1072,3.2486,3.303,3.3309,3.3447,3.4009,3.4405,3.4218,3.4027,3.4235,3.5251,3.5073,3.513,3.6049,3.6606,3.6656,3.6074,3.5244,3.4237,3.3041,3.4821,3.5957,3.5689,3.6348,3.6678,3.6484,3.5798,3.5325,3.5139,3.4641,3.4392,3.4392,3.4485,3.4548,3.4548,3.4641,3.4673,3.4673,3.4673,3.4673,3.4704,3.4922,3.5046,3.5046,3.5294,3.5387,3.5387,3.5387,3.5387,3.5387,3.5387,3.5387,3.5387,3.5387,3.5387,3.5387,3.5387,3.5387,3.5387,3.5387,3.5387,3.5387,3.5387,3.5387,3.5387,3.5387,3.5387,3.5387,3.5387,3.5387,3.5387,3.5387,3.5387,3.5387,3.5387,3.5387,3.5387,3.5387,3.5387,3.5387,3.5387,3.5387,3.5387,3.5387,3.5387,3.5387,3.5387,3.5387,3.5387,3.5387,3.5387,3.5387,3.5387,3.5387,3.5387,3.5387,3.5387,3.5387,3.5387,3.5387,3.5387,3.5387,3.5387,3.5459,3.5583,3.5386,3.5364,2.4328,2.4083,2.4148,2.843,2.9849,3.0843,3.3213,3.4609,3.5229,3.4593,3.5344,3.592,3.5268,3.5146,3.5321,3.5885,3.6344,3.662,3.6664,3.7068,3.6605,3.4526,3.4231,3.2852,2.9312,3.2318,3.5128,3.6729,3.6585,3.6136,3.5479,3.5418,3.5108,3.4454,3.4423,3.4392,3.4392,3.4735,3.4891,3.4891,3.5201,3.5356,3.5356,3.5356,3.5356,3.5356,3.5387,3.5387,3.5397,3.5387,3.5387,3.5387,3.5387,3.5387,3.5387,3.5387,3.5387,3.5387,3.5387,3.5387,3.5387,3.5387,3.5387,3.5387,3.5387,3.5387,3.5387,3.5387,3.5387,3.5387,3.5387,3.5387,3.5387,3.5387,3.5387,3.5387,3.5387,3.5387,3.5387,3.5387,3.5387,3.5387,3.5387,3.5387,3.5387,3.5387,3.5387,3.5387,3.5387,3.5387,3.5387,3.5387,3.5387,3.5387,3.5387,3.5387,3.5387,3.5387,3.5387,3.5387,3.5387,3.5387,3.5387,3.5387,3.5387,3.5387,3.5387,3.5387,3.5624,3.6059,3.5343,3.5246,2.3886,2.5775,2.8459,3.1302,3.2886,3.4012,3.5122,3.5681,3.5684,3.4703,3.3891,3.3339,3.3342,3.2904,3.2979,3.4311,3.442,3.4989,3.6912,3.5239,3.4363,3.5838,3.3741,3.2757,3.4168,3.4374,3.4211,3.3809,3.5763,3.6887,3.6655,3.6434,3.6244,3.5989,3.5989,3.5835,3.5538,3.5622,3.5541,3.5232,3.5356,3.5387,3.5387,3.5387,3.5387,3.5407,3.5718,3.5852,3.5904,3.6215,3.6339,3.6339,3.6339,3.6339,3.6339,3.6339,3.6339,3.6246,3.5604,3.5387,3.5387,3.5387,3.5387,3.5387,3.5387,3.5387,3.5387,3.5387,3.5387,3.5387,3.5387,3.5387,3.5387,3.5387,3.5387,3.5387,3.5387,3.5387,3.5387,3.5387,3.5232,3.5139,3.5356,3.5232,3.5139,3.5356,3.5387,3.5387,3.5387,3.5387,3.5387,3.5387,3.5387,3.5387,3.5387,3.5387,3.5387,3.5387,3.5387,3.5387,3.5387,3.5387,3.5387,3.5387,3.5387,3.5542,3.5852,3.536,3.5373,3.5809,3.5077,3.4831,2.6066,2.8277,3.0962,3.4161,3.5344,3.583,3.6135,3.6518,3.6383,3.4819,3.3924,3.3265,3.2755,3.2229,3.2353,3.3819,3.3792,3.4452,3.6875,3.5212,3.4202,3.543,3.3568,3.2857,3.4642,3.4502,3.3895,3.2873,3.4725,3.5862,3.5718,3.5531,3.5778,3.6591,3.6612,3.6449,3.609,3.6111,3.5852,3.5387,3.5387,3.548,3.5635,3.5635,3.5314,3.4755,3.5873,3.5894,3.5221,3.6339,3.6804,3.6804,3.6804,3.6804,3.6804,3.6804,3.6804,3.6711,3.6121,3.5883,3.5883,3.5883,3.5883,3.5883,3.5883,3.5883,3.5883,3.5883,3.5883,3.5883,3.5883,3.5883,3.5873,3.5676,3.5635,3.5593,3.5428,3.5387,3.5387,3.5387,3.5232,3.5139,3.5356,3.5376,3.5417,3.5604,3.578,3.5769,3.5438,3.5387,3.5387,3.5387,3.5387,3.5387,3.5387,3.5387,3.5459,3.5624,3.5635,3.5738,3.5883,3.5653,3.5496,3.5496,3.5244,3.5259,3.5553,3.5094,3.5087,3.5547,3.4799,3.4565,3.0351,3.1285,3.1761,3.6597,3.7088,3.634,3.6231,3.7088,3.724,3.4842,3.5131,3.5175,3.3113,3.2671,3.2988,3.4092,3.4228,3.4791,3.6501,3.6656,3.5748,3.3464,3.3568,3.3097,3.1166,3.2942,3.4106,3.3898,3.3699,3.343,3.3128,3.3128,3.4126,3.6279,3.6383,3.6319,3.6152,3.6101,3.5831,3.5428,3.5428,3.5666,3.6152,3.6152,3.52,3.3708,3.5883,3.5604,3.3791,3.5966,3.6877,3.6877,3.6877,3.6877,3.6877,3.6877,3.6877,3.6877,3.6877,3.6846,3.6804,3.6804,3.6804,3.6804,3.6804,3.6804,3.6804,3.6804,3.6804,3.6804,3.6804,3.6804,3.6691,3.6182,3.6089,3.5965,3.5459,3.5366,3.5366,3.5397,3.5459,3.5459,3.5459,3.5821,3.6152,3.6152,3.6515,3.6484,3.5604,3.5428,3.5428,3.5428,3.5397,3.5366,3.5366,3.5366,3.5552,3.6058,3.6047,3.6254,3.672,3.6042,3.5643,3.5643,3.4969,3.4595,3.4647,3.4591,3.4829,3.5261,3.4508,3.4431,2.9756,3.2789,3.6047,3.6537,3.7675,3.8283,3.6572,3.7088,3.684,3.3119,3.1255,2.98,2.8061,2.6846,2.7161,3.041,3.0493,3.1184,3.4122,3.3356,3.2688,3.3134,3.3095,3.3466,3.461,3.5252,3.5036,3.3692,3.5097,3.6,3.6022,3.627,3.6665,3.7259,3.7554,3.7381,3.6639,3.5945,3.5676,3.5904,3.5904,3.6183,3.6629,3.6629,3.637,3.5976,3.6918,3.6991,3.6515,3.7446,3.7829,3.7829,3.7829,3.7829,3.7829,3.7829,3.7829,3.7829,3.7829,3.7384,3.6804,3.6804,3.6804,3.6804,3.6804,3.6804,3.6804,3.6804,3.6804,3.6804,3.6804,3.6804,3.6645,3.5955,3.5795,3.5604,3.4955,3.4806,3.4958,3.5527,3.606,3.6357,3.6102,3.6386,3.6629,3.6629,3.6732,3.6711,3.6484,3.5954,3.5623,3.5623,3.5119,3.4806,3.4806,3.4806,3.5072,3.5763,3.5289,3.5284,3.5968,3.5263,3.4871,3.4871,3.4717,3.4774,3.5109,3.4552,3.4546,3.498,3.4237,3.3958,3.2189,3.4965,3.7743,3.7115,3.8283,3.8732,3.538,3.5496,3.5049,3.0641,2.8728,2.7393,2.5862,2.518,2.6093,2.9919,3.0024,3.0715,3.386,3.2968,3.2214,3.2897,3.3007,3.3847,3.5972,3.6316,3.6044,3.5139,3.5463,3.5635,3.561,3.5921,3.6563,3.7552,3.7827,3.7561,3.6815,3.5852,3.5656,3.6111,3.6111,3.6463,3.7105,3.7105,3.667,3.6008,3.725,3.7251,3.6422,3.7696,3.8181,3.8181,3.8181,3.8181,3.8181,3.8181,3.8014,3.7737,3.7737,3.7366,3.7002,3.7307,3.7415,3.7415,3.7415,3.7415,3.7415,3.7415,3.7415,3.7415,3.7415,3.7415,3.719,3.6246,3.6,3.5753,3.4789,3.4585,3.4717,3.5132,3.5556,3.5761,3.5598,3.5879,3.6131,3.6131,3.6335,3.6466,3.6466,3.6015,3.5578,3.5263,3.4838,3.4585,3.4585,3.4585,3.4851,3.5488,3.5145,3.5201,3.5818,3.5107,3.4715,3.4715,3.4413,3.4383,3.4635,3.4212,3.4172,3.4405,3.3981,3.3817,3.5488,3.7095,3.8245,3.7796,3.8807,3.869,3.4117,3.3754,3.3061,2.8556,2.7184,2.6539,2.5617,2.5768,2.7217,3.0864,3.0961,3.1383,3.3647,3.3493,3.2925,3.2395,3.2913,3.4066,3.6005,3.6239,3.6471,3.6918,3.536,3.4329,3.415,3.445,3.5585,3.7632,3.7503,3.724,3.6804,3.5852,3.5656,3.6204,3.6204,3.6691,3.7591,3.7591,3.6754,3.5355,3.7355,3.7085,3.5397,3.7396,3.8181,3.8181,3.8181,3.8181,3.8191,3.8081,3.767,3.7079,3.6978,3.6944,3.7045,3.7703,3.7971,3.8048,3.7937,3.7914,3.7914,3.7914,3.7914,3.7914,3.7914,3.7914,3.7634,3.6463,3.6197,3.5898,3.4729,3.4562,3.4628,3.4628,3.4718,3.4784,3.4784,3.5109,3.5377,3.5377,3.5732,3.5976,3.5874,3.5689,3.5366,3.4728,3.4553,3.4487,3.4487,3.4487,3.4707,3.5233,3.5152,3.5317,3.5831,3.5152,3.474,3.474,3.4119,3.3817,3.3817,3.3817,3.3817,3.3817,3.3817,3.3817,3.4926,3.753,4.0032,3.7207,3.8937,4.0324,3.6456,3.5098,3.361,3.0011,2.6642,2.4805,2.64,2.5619,2.6033,3.0053,3.0042,2.9203,2.8201,3.0777,3.2213,3.0646,3.185,3.3593,3.5535,3.4422,3.4267,3.5987,3.6047,3.6163,3.6485,3.6836,3.735,3.8071,3.7076,3.6604,3.6804,3.5852,3.5821,3.668,3.668,3.7167,3.8067,3.8067,3.7924,3.7645,3.8049,3.7997,3.7655,3.8026,3.8181,3.8181,3.8181,3.8181,3.8114,3.7525,3.7213,3.7011,3.6393,3.618,3.6214,3.635,3.6799,3.719,3.6563,3.6393,3.6393,3.6393,3.6393,3.6393,3.6393,3.6393,3.617,3.5364,3.5174,3.495,3.4131,3.4421,3.4831,3.4831,3.5331,3.5762,3.5762,3.581,3.5869,3.5869,3.5962,3.5782,3.5186,3.5053,3.5001,3.4874,3.4284,3.3941,3.3941,3.3941,3.4243,3.4935,3.4387,3.438,3.5049,3.4361,3.399,3.399,3.3877,3.3817,3.3817,3.3817,3.3817,3.3817,3.3817,3.3817,3.4585,3.7065,3.975,3.6923,3.7993,3.8286,3.2817,3.1658,3.0337,2.5367,2.2813,2.18,2.2858,2.2429,2.3817,2.9656,2.9281,2.8999,3.1081,3.1769,3.1881,3.1314,3.1795,3.2633,3.3821,3.3313,3.3426,3.465,3.5078,3.5685,3.6719,3.7314,3.7793,3.8191,3.7118,3.6644,3.6804,3.5852,3.5852,3.6804,3.6804,3.7291,3.8181,3.8181,3.8181,3.8181,3.8181,3.7577,3.6664,3.7755,3.7556,3.6685,3.7775,3.8181,3.8148,3.7803,3.718,3.6495,3.6112,3.5748,3.5348,3.4962,3.5612,3.6461,3.6112,3.601,3.601,3.601,3.601,3.601,3.601,3.601,3.5806,3.5084,3.4602,3.4232,3.3886,3.4094,3.4326,3.4326,3.4593,3.4868,3.4868,3.4868,3.4868,3.4868,3.4868,3.4731,3.4361,3.4326,3.4326,3.4326,3.4015,3.3817,3.3817,3.3817,3.3955,3.4292,3.3981,3.3946,3.4292,3.399,3.3817,3.3817,3.3817,3.3817,3.3817,3.3817,3.3817,3.3817,3.3817,3.3817,3.531,3.7363,3.9429,3.7126,3.745,3.66,2.9951,2.8692,2.7328,2.1666,1.9824,1.9514,2.0359,2.0329,2.2396,2.9258,2.8307,2.8489,3.3595,3.2361,3.1296,3.2272,3.1992,3.2053,3.2905,3.2873,3.3205,3.4121,3.4452,3.5196,3.6565,3.7102,3.7559,3.7937,3.7053,3.6569,3.6579,3.5727,3.5685,3.6425,3.6499,3.7038,3.7936,3.8036,3.8088,3.8181,3.8181,3.7006,3.5262,3.7327,3.6965,3.5303,3.7401,3.8181,3.8181,3.8014,3.7223,3.618,3.5884,3.5382,3.4784,3.4059,3.4696,3.5748,3.5568,3.5534,3.5534,3.5534,3.5534,3.5534,3.5534,3.5534,3.5373,3.4809,3.4223,3.3817,3.3817,3.3817,3.3817,3.3817,3.3817,3.3817,3.3817,3.3817,3.3817,3.3817,3.3817,3.3817,3.3817,3.3817,3.3817,3.3817,3.3817,3.3817,3.3817,3.3817,3.3817,3.3817,3.3817,3.3817,3.3817,3.3817,3.3817,3.3817,3.3817,3.3817,3.3817,3.3817,3.3817,3.3817,3.3817,3.3817,3.8375,4.0058,4.0592,3.8297,3.8782,3.8465,3.3282,3.0366,2.783,2.4677,2.122,1.9854,2.3468,2.2984,2.3634,2.8466,2.6726,2.5848,2.8993,2.9208,2.987,3.2121,3.1992,3.2555,3.4727,3.3474,3.3449,3.5604,3.5824,3.6206,3.7001,3.6765,3.6799,3.718,3.6302,3.5838,3.5891,3.5255,3.5051,3.5253,3.5571,3.6211,3.7123,3.7429,3.7788,3.8181,3.8181,3.7006,3.5262,3.7327,3.6965,3.5303,3.7401,3.8181,3.8114,3.7458,3.7112,3.6809,3.546,3.4946,3.4784,3.4059,3.4326,3.4878,3.4223,3.4015,3.4015,3.4015,3.4015,3.4015,3.4015,3.4015,3.3981,3.3911,3.3842,3.3817,3.3817,3.3817,3.3817,3.3817,3.3817,3.3817,3.3817,3.3817,3.3817,3.3817,3.3817,3.3817,3.3817,3.3817,3.3817,3.3817,3.3817,3.3817,3.3817,3.3817,3.3817,3.3817,3.3817,3.3817,3.3817,3.3817,3.3817,3.3817,3.3817,3.3817,3.3817,3.3817,3.3817,3.3817,3.3817,3.3817,3.5178,3.788,4.0084,3.835,3.8561,3.7413,3.0548,2.8846,2.7132,2.1613,1.9232,1.8611,2.0063,1.976,2.0743,2.5194,2.4199,2.4811,3.0365,3.049,3.0946,3.3472,3.3586,3.338,3.3226,3.2572,3.2728,3.4147,3.4265,3.49,3.6344,3.6495,3.6688,3.7079,3.6465,3.6022,3.5793,3.5265,3.5043,3.5097,3.5447,3.5932,3.6587,3.6912,3.7332,3.7767,3.7767,3.6024,3.3444,3.6809,3.6219,3.3475,3.6633,3.7971,3.8148,3.7592,3.7001,3.636,3.5782,3.4971,3.4198,3.3886,3.3981,3.4188,3.3886,3.3817,3.3817,3.3817,3.3817,3.3817,3.3817,3.3817,3.3817,3.3817,3.3817,3.3817,3.3817,3.3817,3.3817,3.3817,3.3817,3.3817,3.3817,3.3817,3.3817,3.3817,3.3817,3.3817,3.3817,3.3817,3.3817,3.3817,3.3817,3.3817,3.3817,3.3817,3.3817,3.3817,3.3817,3.3817,3.3817,3.3817,3.3817,3.3817,3.3817,3.3817,3.3817,3.3817,3.3817,3.3817,3.3817,3.3817,3.357,3.6775,3.9675,3.8273,3.737,3.5013,2.8086,2.6556,2.4905,1.8934,1.7636,1.7499,1.7261,1.7271,1.8562,2.2456,2.2405,2.4032,3.025,3.0288,3.0668,3.3362,3.3506,3.3215,3.2776,3.2952,3.3355,3.3924,3.3963,3.4567,3.5937,3.6234,3.6461,3.6785,3.6413,3.6006,3.5468,3.5126,3.4867,3.4737,3.5086,3.5274,3.5408,3.622,3.6597,3.6615,3.7083,3.5447,3.2705,3.6292,3.5756,3.2969,3.6292,3.7747,3.7971,3.7582,3.69,3.6112,3.5782,3.5005,3.4084,3.3877,3.3817,3.3817,3.3817,3.3817,3.3817,3.3817,3.3817,3.3817,3.3817,3.3817,3.3817,3.3817,3.3817,3.3817,3.3817,3.3612,3.3451,3.3451,3.33,3.322,3.3442,3.3451,3.3532,3.3764,3.3817,3.3817,3.3817,3.3817,3.3817,3.3817,3.3817,3.3817,3.3817,3.3817,3.3817,3.3817,3.3817,3.3817,3.3817,3.3817,3.3817,3.3817,3.3921,3.399,3.399,3.4094,3.4119,3.4119,3.4119,3.405,3.5341,3.8191,3.9752,3.8347,3.5172,3.1309,2.7222,2.3899,2.0886,1.8083,1.7245,1.6937,1.6666,1.6988,1.8212,2.0981,2.1747,2.3295,2.6943,2.7215,2.8074,3.0902,3.0825,3.1633,3.4417,3.5459,3.5976,3.5986,3.5986,3.5962,3.5982,3.5982,3.6016,3.6016,3.5941,3.5531,3.4707,3.4633,3.4358,3.3932,3.4235,3.4011,3.3296,3.5231,3.549,3.4513,3.614,3.5613,3.3828,3.5933,3.585,3.4575,3.6687,3.7536,3.7582,3.7213,3.6833,3.635,3.528,3.4912,3.4774,3.4059,3.3817,3.3817,3.3817,3.3817,3.3817,3.3817,3.3817,3.3817,3.3817,3.3817,3.3817,3.3817,3.3817,3.3817,3.3817,3.322,3.269,3.269,3.2121,3.1851,3.2593,3.269,3.2963,3.3683,3.3817,3.3817,3.3817,3.3817,3.3817,3.3817,3.3817,3.3817,3.3817,3.3817,3.3817,3.3817,3.3817,3.3817,3.3817,3.3817,3.3817,3.3817,3.4198,3.437,3.437,3.4749,3.4887,3.4887,3.4887,3.4715,2.8044,3.0726,3.2655,3.124,3.084,2.9439,2.4262,2.3058,2.1915,1.7977,1.6991,1.6807,1.6627,1.7132,1.8309,2.057,2.1536,2.3651,2.8432,2.9469,3.0684,3.3291,3.3748,3.4195,3.5078,3.4475,3.4554,3.5908,3.4779,3.4583,3.5937,3.5982,3.5982,3.5982,3.599,3.5706,3.5176,3.5087,3.4675,3.4059,3.4281,3.3687,3.2445,3.437,3.478,3.4022,3.5614,3.5325,3.3868,3.5933,3.5665,3.4104,3.5958,3.6552,3.6315,3.567,3.4941,3.4184,3.3858,3.3607,3.3395,3.337,3.3596,3.3817,3.3817,3.3817,3.3817,3.3817,3.3817,3.3817,3.3817,3.3817,3.3817,3.3817,3.3424,3.3052,3.3052,3.2471,3.1964,3.1964,3.1773,3.1753,3.2198,3.2293,3.244,3.2896,3.323,3.3379,3.3379,3.3651,3.3817,3.3817,3.3817,3.3817,3.3817,3.3817,3.3817,3.3817,3.3817,3.3817,3.3817,3.3817,3.3921,3.4198,3.4345,3.4508,3.4749,3.4853,3.4912,3.4878,3.4681,3.4336,2.3737,2.6578,2.8619,2.7834,2.7342,2.6057,2.2339,2.1384,2.0469,1.7595,1.7499,1.7665,1.6767,1.7828,1.8981,1.9492,2.1583,2.4149,2.7028,2.8552,3.0123,3.2153,3.3461,3.4492,3.5312,3.4681,3.4691,3.5918,3.4864,3.473,3.5947,3.5982,3.5982,3.5982,3.5982,3.582,3.54,3.5129,3.4785,3.4287,3.4235,3.3484,3.2236,3.4065,3.435,3.3521,3.5139,3.5283,0.0,3.5748,3.5624,3.4687,3.5658,3.6039,3.5891,3.5024,3.4313,3.3719,3.3297,3.3021,3.2862,3.2948,3.3156,3.3349,3.3349,3.3569,3.3817,3.3817,3.3817,3.3817,3.3817,3.3594,3.3371,3.3371,3.2831,3.227,3.227,3.1694,3.115,3.115,3.1027,3.1074,3.1584,3.1787,3.2032,3.2545,3.237,3.2363,3.2924,3.2252,3.2145,3.3246,3.2996,3.3017,3.3518,3.3725,3.3817,3.3817,3.3955,3.4024,3.4024,3.4154,3.4326,3.4577,3.4749,3.4921,3.5127,3.5264,3.4937,3.4264,3.3884,3.3215,0.0,2.4825,2.6586,2.6846,2.4262,2.1547,2.1113,1.9086,0.0,1.7368,1.8665,1.9239,1.7401,1.9176,2.0266,1.8292,2.1947,2.4704,2.3757,2.5627,2.7495,2.8562,3.0926,3.3205,3.5062,3.5703,3.5982,3.5982,3.5982,3.5982,3.5982,3.5982,3.5982,3.5982,3.5982,3.583,3.5439,3.4974,3.4648,3.4455,3.41,3.3372,3.239,3.4116,3.4187,3.3091,3.4716,3.5387,3.5387,3.5387,3.5676,3.6028,3.5681,3.5809,3.6026,3.4968,3.4544,3.4305,3.3317,3.298,3.2909,3.2688,3.2597,3.2597,3.2597,3.312,3.3725,3.3725,3.3725,3.3725,3.3725,3.32,3.2645,3.2645,3.2085,3.1513,3.1513,3.0884,3.0305,3.0305,3.0033,3.0057,3.0806,3.125,3.1706,3.2417,3.1442,3.1089,3.2384,3.0157,2.9475,3.2143,3.1542,3.1478,3.2791,3.3466,3.3851,3.3851,3.4232,3.4449,3.4449,3.4749,3.4912,3.4956,3.5333,3.5548,3.5548,3.5826,3.5051,3.3333,3.2785,3.1633,1.6839,0.0,1.9055,1.9118,1.8773,1.8379,0.0,1.7754,1.8024,2.0599,2.0424,2.0149,2.1287,2.2319,2.2473,2.0864,2.3379,2.5578,2.5669,2.8689,3.0592,2.969,3.2848,3.4724,3.3737,3.5089,3.5982,3.5982,3.5982,3.5982,3.5982,3.5982,3.5982,3.5982,3.5982,3.5942,3.5869,3.5353,3.445,3.3221,3.3938,3.3015,3.0749,3.3599,3.4187,3.3091,3.4716,3.5387,3.5387,3.5387,3.5449,3.5521,3.521,3.499,3.4703,3.3689,3.2825,3.2148,3.1889,3.1667,3.1622,3.2363,3.2597,3.2597,3.2597,3.2725,3.2881,3.2881,3.2881,3.2881,3.2881,3.2547,3.2248,3.2248,3.1439,3.0688,3.0688,3.0083,2.9576,2.9576,2.9687,2.9946,3.0452,3.0828,3.1181,3.162,3.1674,3.1775,3.2115,3.0873,3.0225,3.0921,3.0062,2.9564,2.9873,3.2586,3.4267,3.4267,3.4577,3.4784,3.4784,3.4853,3.5059,3.5333,3.5709,3.5879,3.5879,3.5669,3.5326,3.4825,3.2727,3.2142,1.5196,1.5597,1.6348,1.8385,1.8162,1.7822,1.9304,1.8668,1.8501,2.1172,2.0861,2.0639,2.2285,2.2538,2.2388,2.198,2.3104,2.4739,2.671,2.9139,3.0458,2.9844,3.172,3.3051,3.2957,3.4812,3.5982,3.5982,3.5982,3.5982,3.5982,3.5982,3.5982,3.5982,3.5982,3.5982,3.5982,3.5302,3.4245,3.2803,3.3567,3.2993,3.1274,3.3457,3.4308,3.4091,3.4083,3.4574,3.5345,3.4593,3.4737,3.5356,3.5015,3.4891,3.4735,3.3544,3.288,3.2457,3.1836,3.1436,3.1297,3.1866,3.2038,3.2038,3.2038,3.2038,3.2111,3.2487,3.2597,3.2597,3.2597,3.2093,3.1599,3.1599,3.0248,2.8968,2.9134,2.8204,2.736,2.7534,2.785,2.8172,2.8386,2.8838,2.9223,2.9411,2.9056,2.9275,3.0579,2.9144,2.8791,3.093,3.0203,2.9657,2.9817,3.1974,3.3048,3.2391,3.2803,3.3067,3.3067,3.3241,3.378,3.4696,3.4679,3.5026,3.5732,3.5126,3.4041,3.2541,3.165,3.0835,1.531,1.5417,1.6377,2.065,1.9691,1.857,2.1827,2.0385,1.9007,2.1258,2.137,2.1393,2.2514,2.2598,2.2454,2.2334,2.2625,2.3988,2.729,2.8758,2.9521,2.9616,3.0213,3.1172,3.2708,3.4746,3.5982,3.5982,3.5982,3.5982,3.5982,3.5982,3.5982,3.5982,3.5923,3.5928,3.5928,3.5107,3.4023,3.2705,3.3215,3.3124,3.2453,3.3512,3.4454,3.517,3.3517,3.372,3.515,3.3797,3.4022,3.5201,3.4891,3.4953,3.5077,3.3796,3.3481,3.3481,3.2198,3.158,3.141,3.141,3.141,3.141,3.141,3.141,3.1557,3.2212,3.2414,3.2371,3.2138,3.1354,3.0509,3.0301,2.8519,2.6928,2.7235,2.6084,2.5075,2.5379,2.5741,2.6028,2.6103,2.6622,2.7047,2.708,2.6128,2.627,2.874,2.6779,2.6671,3.0593,3.0125,2.9602,2.9893,3.0657,3.0548,2.9318,3.0223,3.0845,3.0845,3.1212,3.2027,3.3268,3.2897,3.3345,3.4638,3.3847,3.199,2.9222,2.9792,2.8687,1.5713,1.6187,1.7315,2.088,1.9972,1.9089,2.2552,2.0935,1.9991,2.447,2.4398,2.3957,2.5323,2.7345,2.7291,2.2716,2.439,2.6663,2.7779,3.0426,3.1632,3.0056,3.2917,3.4499,3.3178,3.4844,3.5982,3.5982,3.5982,3.5982,3.5982,3.5982,3.5982,3.5982,3.5674,3.5488,3.5488,3.4961,3.3877,3.2306,3.3327,3.3207,3.2117,3.3635,3.4423,3.4538,3.4243,3.4263,3.4528,3.4295,3.4335,3.4517,3.4173,3.4267,3.4423,3.3355,3.2848,3.2479,3.141,3.1193,3.141,3.141,3.141,3.141,3.141,3.141,3.1437,3.1566,3.1593,3.1302,3.011,2.9237,2.8329,2.715,2.6081,2.5345,2.5412,2.521,2.5008,2.5075,2.5364,2.5685,2.6036,2.6422,2.6773,2.7047,2.7229,2.7436,2.7899,2.6753,2.62,2.6894,2.6045,2.5441,2.5468,2.6114,2.6435,2.6185,2.8945,3.0575,3.0575,3.0892,3.1047,3.1001,3.0931,3.1032,3.1244,3.0439,2.9806,2.9228,2.7239,2.6703,1.6194,1.6545,1.7831,2.2518,2.1417,2.0591,2.5997,2.3527,2.1696,2.7315,2.5059,2.3318,2.7264,2.691,2.5592,2.4169,2.7611,3.0331,2.9955,3.1368,3.2229,3.1545,3.3129,3.3919,3.3005,3.4779,3.5982,3.5982,3.5982,3.5982,3.5982,3.5801,3.5684,3.5684,3.5254,3.4912,3.471,3.4463,3.3655,3.2208,3.3173,3.3063,3.2038,3.3296,3.4047,3.4352,3.327,3.3431,3.4331,3.3475,3.3626,3.4392,3.4235,3.4267,3.4267,3.327,3.2571,3.2029,3.1387,3.1281,3.141,3.141,3.141,3.141,3.141,3.141,3.1249,3.0487,3.026,3.013,2.9469,2.8304,2.7145,2.6303,2.5094,2.4155,2.4155,2.3379,2.2736,2.2908,2.3072,2.3372,2.3951,2.4358,2.4791,2.5338,2.5581,2.5984,2.6753,2.6401,2.646,2.7411,2.707,2.6545,2.5999,2.6035,2.6011,2.5769,2.7223,2.8063,2.8063,2.8213,2.8638,2.9294,2.9054,2.926,2.9851,2.9077,2.8195,2.7243,2.6651,2.6288,1.6691,1.7042,1.8384,2.3246,2.208,2.1531,2.8485,2.5521,2.2886,2.8495,2.5496,2.3316,2.8039,2.5991,2.4263,2.6397,3.0322,3.2862,3.2208,3.2578,3.3117,3.3496,3.3555,3.3555,3.3555,3.5049,3.5982,3.5982,3.5894,3.5869,3.5869,3.5469,3.5234,3.5234,3.4785,3.4394,3.4104,3.4007,3.3459,3.2501,3.3115,3.3034,3.2354,3.3072,3.367,3.4081,3.2597,3.2796,3.4062,3.2851,3.306,3.4173,3.4079,3.3953,3.3733,3.2953,3.2294,3.175,3.1474,3.141,3.141,3.141,3.141,3.141,3.141,3.1175,3.0682,2.96,2.8797,2.8304,2.8304,2.7211,2.5969,2.5364,2.4087,2.3038,2.3038,2.1925,2.1047,2.1283,2.1352,2.1553,2.2207,2.2619,2.3133,2.3747,2.4027,2.4495,2.5603,2.5805,2.6368,2.7701,2.7866,2.751,2.6627,2.6293,2.5941,2.5545,2.5689,2.5724,2.5651,2.5794,2.6407,2.7525,2.7191,2.7449,2.83,2.7572,2.6504,2.5154,2.5819,2.5525,1.7149,1.8026,1.9264,2.141,2.0546,2.0903,2.7576,2.5195,2.2697,2.6619,2.6792,2.6436,2.7057,2.6952,2.7424,2.9448,3.119,3.2672,3.375,3.4652,3.5322,3.5708,3.5757,3.5757,3.5757,3.5894,3.5982,3.5982,3.5664,3.5439,3.5439,3.5,3.4746,3.4746,3.4378,3.4134,3.4104,3.3672,3.3386,3.3299,3.3357,3.3369,3.3291,3.3379,3.3418,3.3449,3.332,3.334,3.3449,3.3352,3.3371,3.3449,3.3143,3.2635,3.2079,3.2015,3.174,3.1442,3.141,3.141,3.141,3.141,3.141,3.141,3.141,3.0487,2.9437,2.9339,2.7369,2.5304,2.5304,2.4974,2.4297,2.2914,2.2242,2.1938,2.1938,2.18,2.1731,2.1766,2.1766,2.1869,2.2242,2.2619,2.303,2.3406,2.402,2.4503,2.4604,2.495,2.5221,2.5356,2.5356,2.518,2.4733,2.4665,2.4517,2.4158,2.4743,2.4916,2.4615,2.5197,2.5459,2.5328,2.5299,2.5318,2.5385,2.4645,2.4224,2.4088,2.3502,2.3167,1.7201,1.8015,1.9581,2.2982,2.2135,2.2013,2.7971,2.6252,2.489,3.0098,2.8349,2.6073,2.6709,2.8434,3.005,3.0908,3.2111,3.3224,3.398,3.4388,3.4834,3.5547,3.5635,3.5732,3.5962,3.5781,3.5635,3.5635,3.5215,3.4961,3.4961,3.4551,3.4349,3.4349,3.3896,3.3672,3.3672,3.3506,3.3386,3.3386,3.3386,3.3386,3.3386,3.3386,3.3386,3.3386,3.3386,3.3386,3.3386,3.3175,3.308,3.3048,3.2731,3.2422,3.2207,3.1983,3.1814,3.1685,3.1474,3.141,3.141,3.141,3.082,3.0089,3.0089,2.9092,2.7759,2.6871,2.5976,2.5278,2.5042,2.427,2.329,2.2482,2.2207,2.2035,2.1835,2.18,2.18,2.18,2.18,2.2035,2.2859,2.3099,2.3475,2.4333,2.4679,2.4883,2.4883,2.5018,2.5093,2.5093,2.4883,2.457,2.4231,2.3952,2.3679,2.3345,2.3961,2.442,2.451,2.4753,2.4938,2.5093,2.5093,2.4984,2.474,2.4435,2.4197,2.3993,2.3475,2.3201,1.7136,1.7862,1.9433,2.2859,2.2502,2.267,2.7765,2.6749,2.6091,3.0929,2.9463,2.7434,2.7715,2.9805,3.1495,3.1523,3.2364,3.326,3.4,3.4104,3.4378,3.5088,3.5176,3.5293,3.5576,3.5342,3.5176,3.5176,3.4756,3.4502,3.4502,3.4101,3.3867,3.3867,3.3574,3.3386,3.3386,3.3386,3.3386,3.3386,3.3386,3.3386,3.3386,3.3386,3.3386,3.3386,3.3386,3.3333,3.3238,3.2985,3.2794,3.2571,3.2326,3.2166,3.2061,3.1846,3.175,3.1717,3.1483,3.141,3.1345,3.0885,2.9991,2.906,2.8699,2.742,2.5953,2.5338,2.4948,2.4677,2.4684,2.3979,2.314,2.2756,2.2647,2.2551,2.2207,2.2145,2.2145,2.2145,2.2145,2.2385,2.3133,2.3441,2.3816,2.4469,2.4883,2.5059,2.4916,2.4916,2.4883,2.4747,2.4503,2.4197,2.3857,2.3543,2.327,2.2928,2.3379,2.3789,2.4122,2.4265,2.4469,2.4747,2.4747,2.4611,2.4333,2.4197,2.402,2.3789,2.3406,2.3236,1.7041,1.7723,1.8783,2.0354,2.1076,2.2532,2.6737,2.6419,2.5817,2.7897,3.0021,3.122,3.0258,3.0931,3.1572,3.1411,3.1875,3.2651,3.3919,3.4095,3.4251,3.4639,3.4687,3.4697,3.4697,3.4697,3.4687,3.4687,3.4307,3.4095,3.4095,3.3652,3.3386,3.3386,3.3386,3.3386,3.3386,3.3386,3.3386,3.3386,3.3386,3.3386,3.3386,3.3386,3.3386,3.3386,3.3386,3.3197,3.2889,3.2889,3.2517,3.1887,3.1878,3.1676,3.1401,3.1401,3.1401,3.1401,3.1401,3.1401,3.1166,2.9755,2.901,2.8468,2.7404,2.5569,2.4073,2.5162,2.4229,2.3058,2.3782,2.3993,2.3884,2.3509,2.3406,2.3304,2.2962,2.2893,2.2893,2.2893,2.2893,2.2893,2.2893,2.3516,2.3857,2.3475,2.4367,2.495,2.4536,2.4503,2.4367,2.4027,2.3993,2.3823,2.3441,2.3406,2.3236,2.2928,2.2893,2.3065,2.3406,2.3782,2.3993,2.3993,2.3993,2.3993,2.3993,2.3611,2.3406,2.3406,2.3065,2.2893,2.036,2.0105,1.9775,2.254,2.3401,2.4268,2.6894,2.6919,2.6997,2.9127,3.0322,3.0847,3.0271,3.1647,3.2654,3.2045,3.2574,3.3191,3.3557,3.3613,3.3769,3.4209,3.429,3.4375,3.4668,3.4434,3.429,3.429,3.3857,3.3613,3.3613,3.3496,3.3386,3.3386,3.3386,3.3386,3.3386,3.3386,3.3386,3.3386,3.3386,3.3386,3.3386,3.3386,3.3386,3.3386,3.3386,3.3323,3.3238,3.2731,3.2294,3.1859,3.1339,3.106,3.0928,3.0653,3.0552,3.0552,3.0552,3.0552,3.0283,2.8682,2.7421,2.6228,2.4749,2.3167,2.1971,2.2538,2.2471,2.2492,2.3406,2.3872,2.3962,2.3529,2.3236,2.303,2.2928,2.2893,2.2893,2.2893,2.2893,2.2962,2.3201,2.3441,2.3645,2.3789,2.4299,2.4638,2.4536,2.4299,2.4095,2.3993,2.3747,2.3543,2.3406,2.3167,2.2996,2.29,2.2893,2.3065,2.3406,2.3509,2.372,2.3993,2.3993,2.3993,2.3993,2.3891,2.3823,2.3816,2.3441,2.3623,2.1096,2.0617,2.0531,2.4096,2.4736,2.5059,2.7179,2.7542,2.8031,3.0207,3.1154,3.1534,3.1274,3.2425,3.3232,3.2755,3.3074,3.3386,3.3386,3.3386,3.3516,3.3779,3.3809,3.3916,3.417,3.3955,3.3809,3.3809,3.3574,3.3386,3.3386,3.3386,3.3386,3.3386,3.3386,3.3386,3.3386,3.3386,3.3386,3.3386,3.3252,3.3174,3.3174,3.3318,3.3386,3.3377,3.2949,3.2746,3.2705,3.1869,3.1403,3.1186,3.0747,3.0552,3.0525,3.0286,3.0204,3.0204,3.0204,2.9773,2.8958,2.7384,2.5745,2.4175,2.2862,2.1674,2.0906,2.1687,2.1951,2.2222,2.31,2.3323,2.3372,2.3589,2.3475,2.3277,2.2969,2.2893,2.2893,2.2893,2.2893,2.2962,2.3167,2.3304,2.3441,2.355,2.385,2.4054,2.4054,2.3884,2.372,2.3584,2.3338,2.3201,2.3201,2.303,2.2893,2.2893,2.2893,2.2996,2.3201,2.3201,2.3304,2.355,2.355,2.355,2.355,2.355,2.355,2.3584,2.3877,2.4374,2.0444,2.0202,2.1158,2.4832,2.5163,2.5239,2.7765,2.8362,2.8981,3.111,3.216,3.271,3.2812,3.3164,3.3386,3.3386,3.3386,3.3377,3.3338,3.3369,3.3318,3.331,3.3279,3.3279,3.3279,3.3279,3.3279,3.3279,3.3279,3.3279,3.3279,3.3279,3.3279,3.3279,3.3279,3.3279,3.3279,3.3301,3.3332,3.3332,3.2982,3.2827,3.2785,3.3135,3.3279,3.3197,3.2195,3.1752,3.1661,3.0652,3.0266,3.0226,3.0158,3.014,3.014,3.0103,2.9992,2.9868,2.9868,2.8759,2.7141,2.5698,2.4029,2.2413,2.1569,2.089,2.0665,2.197,2.2081,2.2008,2.2788,2.2501,2.2325,2.3521,2.3757,2.3554,2.2876,2.2733,2.2746,2.2773,2.28,2.2827,2.2853,2.3113,2.327,2.3003,2.3167,2.3372,2.3406,2.3372,2.3236,2.2934,2.2893,2.2893,2.2893,2.2893,2.2893,2.2893,2.2893,2.2893,2.2893,2.2893,2.2893,2.2893,2.2893,2.2893,2.2893,2.2893,2.2893,2.2934,2.4338,2.5061,2.3587,2.2949,2.1886,2.3419,2.4505,2.611,2.9523,2.9968,3.0126,3.1732,3.1859,3.2014,3.3093,3.3328,3.3386,3.3386,3.3386,3.3279,3.2978,3.293,3.2803,3.2511,3.2472,3.2472,3.2472,3.2472,3.2472,3.2472,3.2472,3.2472,3.2472,3.2472,3.2472,3.2472,3.2472,3.2472,3.2472,3.2667,3.2779,3.2779,3.2963,3.2893,3.265,3.2515,3.2319,3.2042,3.1527,3.1326,3.1285,3.081,3.0587,3.0529,2.9959,2.9739,2.9702,2.936,2.8431,2.7283,2.7283,2.621,2.4549,2.2984,2.236,2.1923,2.0451,2.0085,2.0284,2.0855,2.0825,2.0826,2.1751,2.1713,2.1533,2.2061,2.194,2.1676,2.1515,2.1483,2.1557,2.1823,2.205,2.2245,2.2472,2.2774,2.3065,2.327,2.3133,2.3099,2.3372,2.3167,2.2962,2.29,2.2893,2.2893,2.2893,2.2893,2.2893,2.2893,2.2893,2.2893,2.2893,2.2893,2.2893,2.2893,2.2893,2.2893,2.2893,2.2893,2.2893,2.2934,2.4338,2.5431,2.2753,2.2662,2.2706,2.5029,2.6642,2.8132,2.9835,3.0512,3.0985,3.1711,3.1979,3.2276,3.2972,3.3281,3.3386,3.3386,3.3386,3.3318,3.3125,3.292,3.2715,3.2521,3.2316,3.2198,3.2198,3.2198,3.2198,3.2198,3.2198,3.2198,3.2198,3.2198,3.2198,3.2198,3.231,3.234,3.2198,3.2633,3.2774,3.2593,3.2705,3.2405,3.1801,3.1912,3.1772,3.1417,3.0902,3.0665,3.0616,3.0086,2.9881,2.9862,2.9469,2.9317,2.9299,2.9087,2.846,2.7684,2.7684,2.6192,2.4086,2.3265,2.2163,2.0994,2.031,2.0195,2.0425,2.0767,2.0651,2.056,2.1087,2.0889,2.0567,2.0754,2.1089,2.133,2.1141,2.1109,2.1156,2.1341,2.1463,2.161,2.1764,2.2071,2.2331,2.2498,2.2485,2.2546,2.2714,2.258,2.2479,2.2479,2.2479,2.2479,2.2479,2.2479,2.2479,2.2479,2.2479,2.2479,2.2479,2.2479,2.2539,2.2645,2.2652,2.268,2.2714,2.2714,2.3096,2.3883,2.5317,2.6525,2.072,2.1629,2.3635,2.7191,2.8768,2.9486,2.9604,3.0344,3.1093,3.1328,3.209,3.2685,3.2685,3.3027,3.331,3.331,3.3347,3.3367,3.333,3.3008,3.2764,3.2695,3.2345,3.2091,3.2091,3.2022,3.1983,3.1983,3.1983,3.1983,3.1983,3.1983,3.1983,3.1983,3.2205,3.2205,3.1983,3.2555,3.2725,3.2455,3.2413,3.1925,3.1073,3.1462,3.1359,3.0865,3.0202,2.9911,2.9863,2.9241,2.9014,2.9014,2.9014,2.9014,2.9014,2.9014,2.8826,2.8579,2.8579,2.6594,2.4093,2.4093,2.232,2.0234,2.0513,2.064,2.0729,2.1014,2.0902,2.0699,2.0646,2.0201,1.9786,1.974,2.0524,2.122,2.0871,2.0808,2.0822,2.0875,2.0962,2.1049,2.1102,2.1341,2.1509,2.1509,2.1756,2.1943,2.1943,2.1984,2.1984,2.1984,2.1984,2.1984,2.1984,2.1984,2.1984,2.1984,2.1984,2.1984,2.1984,2.1984,2.2203,2.2584,2.2485,2.2551,2.2825,2.2831,2.3504,2.4779,2.6495,2.7708,2.0491,2.2439,2.4892,2.7,2.6987,2.7102,2.956,2.9577,2.9437,3.073,3.165,3.2286,3.2286,3.2598,3.2881,3.2881,3.3184,3.3269,3.293,3.2832,3.2656,3.2325,3.1865,3.1572,3.1572,3.1279,3.1055,3.1055,3.1055,3.1055,3.1055,3.1055,3.1055,3.1055,3.1123,3.1123,3.1055,3.1678,3.1939,3.191,3.2197,3.2108,3.1672,3.1453,3.0761,2.9727,2.9324,2.9156,2.9147,2.9032,2.9014,2.9014,2.9014,2.9014,2.9014,2.9014,2.8083,2.6823,2.6823,2.4909,2.2414,2.2414,2.1555,2.0545,2.0577,2.0799,2.1046,2.1077,2.0902,2.0615,2.033,2.0017,1.9733,1.9515,1.9571,1.9687,1.9629,1.9629,1.9702,1.9927,2.0388,2.0846,2.1069,2.1142,2.1169,2.1169,2.1455,2.1642,2.1642,2.1863,2.1984,2.1984,2.1984,2.1984,2.1984,2.1984,2.1984,2.1984,2.1984,2.1984,2.1984,2.1984,2.2427,2.3331,2.2774,2.3023,2.4157,2.4187,2.4194,2.4187,2.6766,2.8032,2.0992,2.2368,2.4008,2.7395,2.7201,2.689,2.9584,2.9472,2.9203,3.0602,3.1191,3.1553,3.1758,3.2158,3.2472,3.2472,3.2793,3.3008,3.2822,3.2793,3.2725,3.257,3.2148,3.1885,3.1885,3.1494,3.124,3.124,3.1025,3.0889,3.0889,3.0889,3.0889,3.0889,3.1054,3.1102,3.1102,3.1759,3.2172,3.2315,3.2459,3.2258,3.1787,3.1257,3.0558,2.9715,2.9568,2.9311,2.9014,2.9014,2.9014,2.9014,2.9014,2.9014,2.9014,2.9014,2.8519,2.7903,2.7903,2.6056,2.3721,2.3721,2.2428,2.0894,2.0894,2.0982,2.1109,2.1109,2.0902,2.0679,2.0514,2.0261,1.9967,1.9679,1.9606,1.9566,1.9435,1.9395,1.9435,1.9562,1.9796,2.0017,2.0144,2.0267,2.0374,2.0374,2.0628,2.0875,2.1074,2.1201,2.1316,2.1476,2.1496,2.1496,2.1496,2.1496,2.1496,2.1496,2.1496,2.1496,2.1496,2.1496,2.249,2.4579,2.3596,2.3716,2.5078,2.5094,2.5493,2.6256,2.747,2.8429,2.0847,2.1738,2.273,2.6693,2.6647,2.626,2.8684,2.8691,2.8609,3.0099,3.0582,3.085,3.1279,3.1709,3.2032,3.2032,3.2363,3.2637,3.2637,3.2637,3.2676,3.2783,3.2452,3.2237,3.2345,3.1934,3.168,3.168,3.1396,3.1221,3.1221,3.1113,3.1055,3.1055,3.1219,3.1296,3.1296,3.196,3.243,3.2698,3.2698,3.2383,3.1787,3.1276,3.0636,2.9892,2.9745,2.9429,2.9014,2.9014,2.9014,2.9014,2.9014,2.9014,2.9014,2.9014,2.9014,2.8955,2.8618,2.6952,2.4963,2.4625,2.2959,2.1109,2.1109,2.1109,2.1109,2.1109,2.0955,2.0799,2.0726,2.0508,2.0274,1.998,1.9907,1.9813,1.9475,1.9395,1.9395,1.9395,1.9395,1.9395,1.9395,1.9575,1.9693,1.9693,1.994,2.0201,2.0458,2.0521,2.0675,2.0969,2.1002,2.1029,2.1102,2.1418,2.1601,2.1601,2.1908,2.2097,2.2097,2.2097,2.3294,2.5826,2.489,2.4937,2.6081,2.6081,2.6689,2.7885,2.8215,2.8918,1.9368,2.0431,2.1657,2.3809,2.3955,2.4091,2.6138,2.6432,2.6771,2.8629,2.9647,3.0371,3.084,3.1269,3.1553,3.1553,3.1924,3.2237,3.2237,3.2237,3.2384,3.2744,3.2452,3.2355,3.2725,3.2413,3.2159,3.2159,3.2149,3.213,3.213,3.1709,3.1484,3.1484,3.1377,3.1296,3.1296,3.196,3.243,3.2698,3.2698,3.2383,3.1787,3.1759,3.1063,2.9863,2.9311,2.9044,2.9014,2.9014,2.9014,2.9014,2.9014,2.9014,2.9014,2.9014,2.9014,2.8826,2.7534,2.6186,2.481,2.3597,2.2247,2.1109,2.1109,2.1109,2.1109,2.1109,2.1096,2.1022,2.0779,2.0699,2.0575,2.025,2.0184,2.0024,1.9522,1.9395,1.9395,1.9395,1.9395,1.9395,1.9395,1.9408,1.9421,1.9421,1.9639,1.9826,1.9846,2.0057,2.0337,2.0699,2.0733,2.0808,2.1089,2.2278,2.3014,2.3014,2.4131,2.481,2.481,2.481,2.5485,2.6892,2.6848,2.7,2.7387,2.7383,2.7444,2.7568,2.8829,2.9588,1.9172,1.9487,2.0041,2.2838,2.2851,2.2811,2.5271,2.6076,2.6551,2.7485,2.8826,2.9697,2.9297,3.0267,3.1113,3.1113,3.1475,3.1748,3.1748,3.2022,3.2257,3.2404,3.2286,3.2257,3.2413,3.2002,3.1748,3.1748,3.0965,3.0714,3.1319,3.0628,3.0551,3.1357,3.1326,3.1498,3.1932,3.2344,3.2612,3.2698,3.2315,3.2018,3.1759,3.0947,3.0333,2.9863,2.9242,2.9014,2.9014,2.9014,2.9014,2.9014,2.9014,2.9014,2.9014,2.9014,2.846,2.7663,2.7172,2.5599,2.3698,2.3263,2.2184,2.1109,2.1109,2.1109,2.1109,2.1109,2.1109,2.1082,2.0982,2.0955,2.0882,2.0588,2.0374,2.0144,1.9937,1.9773,1.9646,1.9646,1.9522,1.9395,1.9395,1.9395,1.9395,1.9395,1.9488,1.9622,1.9773,1.9887,2.0067,2.0361,2.0394,2.0733,2.1617,2.2346,2.3122,2.3886,2.4584,2.4994,2.4994,2.4994,2.5637,2.6983,2.6983,2.7474,2.8442,2.846,2.846,2.848,2.8966,2.9361,1.8311,1.835,1.8623,2.093,2.1219,2.1498,2.3658,2.5048,2.6074,2.6683,2.8165,2.9235,2.8808,2.9681,3.0449,3.0449,3.0684,3.0859,3.0859,3.1143,3.1377,3.1524,3.1534,3.1592,3.1758,3.1475,3.1309,3.1309,3.0469,3.0235,3.0859,3.0242,3.0258,3.1134,3.1174,3.143,3.1979,3.2158,3.2158,3.1961,3.1554,3.1145,3.0735,2.9872,2.9389,2.9185,2.8777,2.8757,2.9014,2.9014,2.9014,2.9014,2.9014,2.9014,2.8955,2.8489,2.7753,2.6862,2.6003,2.4478,2.2853,2.2427,2.1631,2.0815,2.0815,2.0815,2.0835,2.0935,2.0962,2.0989,2.1082,2.1109,2.1062,2.0869,2.0668,2.0497,2.0497,2.019,1.9947,1.9947,1.9786,1.9626,1.9562,1.9542,1.9508,1.9408,1.9395,1.9461,1.9633,1.9659,1.9766,2.0024,2.0057,2.0595,2.1901,2.2662,2.3593,2.4787,2.553,2.5941,2.5941,2.5941,2.6427,2.744,2.747,2.7958,2.9014,2.9014,2.9073,2.9153,2.9153,2.9331,0.0,0.0,0.0,1.8041,1.8982,2.0075,2.1179,2.3219,2.5139,2.6116,2.7652,2.8982,2.943,2.9548,2.9559,2.9559,2.9579,2.9598,2.9598,2.9598,2.9755,3.0127,3.0176,3.0351,3.081,3.085,3.085,3.085,3.084,3.082,3.085,3.0688,3.0706,3.0873,3.0918,3.1066,3.1408,3.1408,3.1096,3.0497,3.047,2.9849,2.87,2.8672,2.8352,2.7793,2.7793,2.8243,2.8977,2.8977,2.8957,2.8966,2.8966,2.9005,2.8826,2.7543,2.7021,2.6581,2.4023,2.288,2.2349,2.1087,2.0468,2.0204,2.0204,2.0204,2.0264,2.0625,2.0706,2.0742,2.1036,2.1109,2.1109,2.1109,2.1109,2.1109,2.1109,2.063,2.0224,2.0217,2.021,2.011,1.986,1.9813,1.972,1.9461,1.9421,1.9421,1.9421,1.9415,1.9515,1.9773,1.9793,2.0399,2.1888,2.3246,2.4511,2.575,2.7081,2.7793,2.7793,2.7793,2.7986,2.837,2.8388,2.8581,2.8966,2.8975,2.9153,2.9479,2.9479,2.9627,1.6886,0.0,0.0,0.0,0.0,0.0,2.0112,2.2179,2.4032,2.4316,2.6062,2.7561,2.7692,2.8238,2.8643,2.8643,2.9188,2.9598,2.9598,2.9598,2.9647,2.9755,2.9774,2.9823,2.995,2.997,2.997,2.997,2.9338,2.9223,2.992,3.033,3.0535,3.0608,3.1021,3.1316,3.1408,3.1408,3.1096,3.0497,3.0054,2.9458,2.87,2.8248,2.7964,2.7793,2.7793,2.7922,2.8133,2.8133,2.8307,2.8553,2.8553,2.8728,2.8955,2.8579,2.7233,2.5414,2.4496,2.2895,2.1122,2.0543,2.027,2.0204,2.0204,2.0204,2.0264,2.0625,2.0706,2.0742,2.1036,2.1109,2.1109,2.1109,2.1109,2.1109,2.1109,2.0982,2.0802,2.0595,2.0381,2.0177,2.0097,2.0084,2.0057,1.9977,1.9993,1.9993,1.9993,1.9813,1.9713,1.9793,1.9642,2.0373,2.2538,2.3339,2.4614,2.6669,2.743,2.7793,2.7793,2.7793,2.7848,2.7968,2.8242,2.8443,2.8563,2.8876,2.9044,2.9133,2.9133,2.9192,0.0,0.0,1.6782,1.6981,0.0,0.0,1.9296,2.1518,2.3569,2.4041,2.5959,2.7401,2.6992,2.7562,2.7986,2.7724,2.8339,2.8897,2.9037,2.9061,2.9061,2.9061,2.9061,2.9061,2.9061,2.9061,2.9061,2.9061,2.8651,2.8758,2.9547,2.9933,3.0188,3.0306,3.063,3.0828,3.0828,3.0828,3.0387,2.959,2.9235,2.8621,2.78,2.7465,2.7298,2.7298,2.7298,2.7298,2.7298,2.7298,2.7646,2.816,2.816,2.8298,2.8442,2.7867,2.669,2.5218,2.4508,2.2887,2.1055,2.0845,2.0378,1.9873,1.9873,1.9873,1.9933,2.0227,2.0518,2.0742,2.1036,2.1109,2.1109,2.1109,2.1109,2.1109,2.1109,2.1109,2.1056,2.0889,2.0715,2.053,2.0441,2.0421,2.0344,2.0224,2.0204,2.0204,2.0204,2.0057,1.998,1.998,1.9826,2.0736,2.3202,2.3644,2.4832,2.7304,2.7665,2.7793,2.7793,2.7793,2.7876,2.805,2.8269,2.8471,2.8645,2.8904,2.9014,2.9014,2.9014,2.9014,0.0,0.0,0.0,1.6523,1.6999,0.0,1.8619,2.085,2.3057,2.4155,2.6042,2.7247,2.6452,2.6854,2.7104,2.6494,2.7002,2.7652,2.815,2.8283,2.8269,2.8228,2.8283,2.8291,2.8291,2.8291,2.8291,2.8291,2.8607,2.9056,2.968,2.9733,2.9845,3.0014,3.0067,3.0046,2.9994,2.9942,2.9353,2.8291,2.8237,2.763,2.6591,2.6591,2.6591,2.6591,2.6591,2.6591,2.6591,2.6591,2.7059,2.7729,2.7729,2.7757,2.767,2.6469,2.5941,2.5613,2.4252,2.2898,2.1759,2.1467,2.0545,1.9562,1.9453,1.9395,1.9461,1.976,2.0247,2.0742,2.1036,2.1109,2.1109,2.1109,2.1109,2.1109,2.1109,2.1109,2.1109,2.1109,2.1109,2.1029,2.0799,2.0753,2.0635,2.0337,2.0304,2.0304,2.0304,2.0392,2.0456,2.0456,2.0574,2.1616,2.4028,2.4234,2.5265,2.7651,2.7793,2.7793,2.7793,2.7793,2.7968,2.8315,2.8324,2.8517,2.892,2.8996,2.9014,2.9014,2.9014,2.9014,1.6707,1.6979,1.7172,1.6622,1.7276,0.0,1.7763,1.8806,2.0079,2.1008,2.1894,2.2663,2.3165,2.3717,2.4052,2.3907,2.4772,2.5993,2.7525,2.8069,2.8163,2.7789,2.8073,2.8291,2.8291,2.8291,2.8291,2.8291,2.89,2.9572,3.0298,3.0526,3.0489,3.0175,3.0426,3.0367,3.0005,2.9511,2.8946,2.8291,2.7809,2.7215,2.6591,2.6591,2.6591,2.6591,2.6591,2.6591,2.6591,2.6591,2.6894,2.7316,2.7316,2.7518,2.7765,2.7499,2.6736,2.56,2.4144,2.3373,2.2694,2.0525,2.029,2.0673,1.9678,1.9395,1.9502,2.0,2.0401,2.0742,2.1036,2.1109,2.1109,2.1109,2.1109,2.1109,2.1109,2.1109,2.1109,2.1109,2.1109,2.1089,2.1036,2.1029,2.1002,2.0917,2.0904,2.0904,2.0904,2.1629,2.2133,2.2133,2.2886,2.3999,2.5497,2.5613,2.6229,2.7708,2.7793,2.7793,2.7793,2.7793,2.783,2.7913,2.7913,2.8124,2.8517,2.8828,2.9014,2.9014,2.9014,2.9014,1.7082,1.7251,1.7429,1.735,1.779,0.0,0.0,1.8949,1.9935,2.0935,2.1463,2.1814,2.2015,2.257,2.2964,2.2873,2.385,2.5051,2.6151,2.7077,2.7732,2.7937,2.8154,2.8291,2.8291,2.8291,2.8513,2.8998,2.9405,2.9997,3.0901,3.1086,3.1028,3.0802,3.0965,3.0942,3.0714,2.9879,2.9179,2.864,2.7806,2.7116,2.6591,2.6591,2.6591,2.6591,2.6591,2.6591,2.6591,2.6591,2.671,2.6912,2.6912,2.7031,2.7206,2.7206,2.6396,2.5187,2.4464,2.3379,2.207,2.0716,2.0299,2.0191,1.9569,1.9395,1.9522,2.0037,2.031,2.0555,2.0995,2.1109,2.1109,2.1109,2.1109,2.1109,2.1109,2.1109,2.1109,2.1109,2.1109,2.1109,2.1109,2.1109,2.1109,2.1109,2.1109,2.1109,2.1109,2.2106,2.2858,2.2858,2.39,2.5123,2.6389,2.6507,2.7046,2.8312,2.8399,2.8399,2.8399,2.8399,2.8307,2.8115,2.7894,2.7894,2.8105,2.8307,2.8509,2.872,2.8922,2.9014,1.756,1.7625,1.7789,1.8129,1.828,1.8443,0.0,0.0,0.0,2.1089,2.1434,2.1517,2.1224,2.1751,2.213,2.1876,2.3048,2.4102,2.4386,2.5626,2.6781,2.7582,2.7742,2.7789,2.7789,2.8004,2.8582,2.9718,2.985,3.0323,3.135,3.1408,3.1408,3.1408,3.1408,3.1408,3.1408,3.0418,2.9624,2.9,2.7988,2.7218,2.6591,2.6591,2.6591,2.6591,2.6591,2.6591,2.6591,2.6591,2.6591,2.6591,2.6591,2.6591,2.6555,2.6336,2.5633,2.4723,2.4278,2.2982,2.146,2.101,2.0191,1.9395,1.9395,1.9395,1.9502,2.0,2.0157,2.0324,2.0889,2.1069,2.1109,2.1109,2.1109,2.1109,2.1109,2.1109,2.1109,2.1109,2.1109,2.1109,2.1109,2.1109,2.1109,2.1109,2.1109,2.1109,2.1109,2.2278,2.3201,2.345,2.4617,2.5942,2.7263,2.7383,2.7843,2.8925,2.8941,2.8865,2.8865,2.8821,2.8629,2.8278,2.7894,2.7683,2.7683,2.7683,2.7931,2.8397,2.8718,2.8941,1.8103,1.8456,1.8719,1.8292,1.8568,1.8795,1.838,0.0,1.8474,1.8598,0.0,1.8806,1.9229,0.0,0.0,1.9477,2.1154,2.2491,2.2357,2.3701,2.4857,2.5323,2.5739,2.6001,2.6001,2.6917,2.8142,2.9672,3.0029,3.0529,3.135,3.1408,3.1408,3.1408,3.1408,3.1408,3.1408,3.076,2.9923,2.9,2.8339,2.7527,2.6591,2.6591,2.6591,2.6591,2.6591,2.6591,2.6591,2.6591,2.6591,2.6591,2.6591,2.6591,2.6473,2.5404,2.4925,2.4501,2.2361,2.2135,2.2446,2.0299,1.9511,1.9395,1.9395,1.9395,1.9461,1.976,2.0034,2.0277,2.0641,2.0915,2.1109,2.1109,2.1109,2.1109,2.1109,2.1109,2.1109,2.1109,2.1109,2.1109,2.1109,2.1109,2.1109,2.1109,2.1109,2.1109,2.1109,2.2278,2.3535,2.4656,2.5973,2.7323,2.8677,2.8767,2.8826,2.8984,2.8654,2.8462,2.8462,2.8133,2.7913,2.7867,2.7472,2.727,2.727,2.727,2.7665,2.8397,2.8443,2.8654,1.9897,2.0135,2.0127,2.0213,2.0409,2.0517,2.0274,1.9422,1.8757,1.9058,0.0,0.0,0.0,0.0,0.0,0.0,2.1479,2.2382,2.2603,2.322,2.4085,2.527,2.5569,2.5904,2.6421,2.5554,2.5816,2.7891,2.8298,2.8808,2.961,3.0775,3.1408,3.1408,3.1408,3.1505,3.1754,3.0916,3.0103,2.9334,2.8502,2.7574,2.6591,2.6591,2.6591,2.6591,2.6591,2.6591,2.6591,2.6591,2.6591,2.6591,2.6591,2.6163,2.5486,2.4981,2.3907,2.2587,2.1538,2.106,2.0866,2.0558,2.0924,2.1488,2.1488,2.1488,2.1555,2.1816,2.1972,2.2127,2.2422,2.2569,2.249,2.1803,2.2162,2.2459,2.1772,2.1619,2.1619,2.1619,2.105,2.057,2.057,2.0882,2.1109,2.1109,2.1109,2.1109,2.1109,2.2278,2.3213,2.3573,2.5433,2.6831,2.7211,2.7911,2.8307,2.8307,2.8151,2.8059,2.8059,2.7674,2.7454,2.7454,2.7068,2.6866,2.6866,2.6866,2.716,2.772,2.7949,2.828,2.2157,2.2149,2.1829,2.1875,2.1788,2.1618,2.1263,2.0289,1.9572,1.9974,1.9848,0.0,0.0,0.0,2.1218,2.1457,0.0,2.2543,2.2644,2.2907,2.3482,2.4519,2.4933,2.5257,2.5563,2.4491,2.4371,2.5815,2.6687,2.7394,2.7973,2.9926,3.0996,3.0956,3.113,3.1265,3.1335,3.077,3.005,2.9172,2.8448,2.7574,2.6591,2.6591,2.6591,2.6591,2.6591,2.6591,2.6591,2.6591,2.6591,2.6591,2.6591,2.5852,2.4806,2.4806,2.3684,2.2135,2.1822,2.1124,2.0529,2.1402,2.2049,2.2587,2.289,2.2531,2.2124,2.2655,2.2613,2.2453,2.2658,2.2757,2.2595,2.1706,2.2178,2.2565,2.1706,2.1766,2.1909,2.1556,2.1323,2.109,2.0765,2.1067,2.1354,2.1354,2.1628,2.1721,2.1386,2.2481,2.3085,2.2544,2.473,2.6165,2.6016,2.7118,2.7747,2.7637,2.7637,2.7582,2.7481,2.7197,2.7041,2.7041,2.6765,2.6591,2.6591,2.6591,2.6738,2.7059,2.7444,2.7858,2.477,2.4454,2.3818,2.2668,2.2044,2.1391,2.0135,2.0275,2.0655,2.068,2.1067,2.1581,2.2119,2.2232,0.0,0.0,2.2383,0.0,0.0,2.2445,2.2827,2.2115,2.3006,2.3234,2.2159,2.3994,2.4807,2.3779,2.5749,2.703,2.7051,2.8941,3.0005,2.987,3.043,3.0401,2.9674,3.022,2.9697,2.8168,2.8121,2.7574,2.6591,2.6591,2.6591,2.6591,2.6591,2.6591,2.6591,2.6591,2.6591,2.6591,2.6591,2.5852,2.4806,2.4806,2.475,2.4529,2.3348,2.2926,2.2898,2.2918,2.2191,2.1488,2.2644,2.1374,1.9764,2.0931,2.0611,1.9918,1.9925,2.011,2.0318,2.0264,2.0288,2.0288,2.0264,2.118,2.1646,2.0463,2.2118,2.3299,2.2148,2.196,2.1975,2.1975,2.2974,2.33,2.2125,2.3033,2.3381,2.2304,2.4367,2.5862,2.5998,2.7118,2.7628,2.7243,2.7224,2.705,2.6637,2.6646,2.6609,2.6609,2.6618,2.6591,2.6591,2.6591,2.6618,2.6646,2.7041,2.7435,2.6311,2.6292,2.5746,2.5027,2.41,2.317,2.2473,2.1481,2.0705,2.0705,2.1407,2.2069,2.227,2.2596,0.0,0.0,0.0,0.0,0.0,2.1202,2.0304,1.9543,2.0227,2.1058,2.1839,2.1034,2.0794,2.1569,2.2479,2.3037,2.3037,2.5829,2.7402,2.7352,2.8498,2.9154,2.9205,2.9408,2.9027,2.8084,2.8084,2.7574,2.6591,2.6591,2.6591,2.6591,2.6591,2.6591,2.6591,2.6591,2.6591,2.6591,2.6591,2.6364,2.588,2.5091,2.4298,2.3432,2.222,2.2333,2.2869,2.2078,2.2078,2.2474,2.2869,2.2438,2.1879,2.2276,2.2154,2.1931,2.1931,2.1985,2.1836,2.1038,2.1467,2.1836,2.1038,2.1176,2.1351,2.0951,2.0863,2.0753,2.0351,2.0951,2.1868,2.3023,2.3535,2.3654,2.324,2.3557,2.3597,2.3049,2.4445,2.5363,2.5228,2.6292,2.6958,2.6793,2.6811,2.6729,2.6618,2.6591,2.6591,2.6591,2.6591,2.6591,2.6591,2.6591,2.6591,2.6591,2.6729,2.7031,2.8078,2.8058,2.7469,2.6568,2.5545,2.4506,2.3661,2.2569,2.1762,2.1839,2.2579,2.3156,2.2993,2.3268,0.0,0.0,0.0,0.0,0.0,2.0311,1.9045,1.8401,1.9085,1.9775,2.016,1.9429,1.908,1.9461,2.0358,2.0867,2.0828,2.413,2.5921,2.5727,2.7383,2.8239,2.8149,2.833,2.8139,2.7574,2.7574,2.7214,2.6591,2.6591,2.6591,2.6591,2.6591,2.6591,2.6591,2.6591,2.6591,2.6591,2.6591,2.6591,2.65,2.5743,2.4667,2.3536,2.2749,2.27,2.2869,2.2106,2.2078,2.2446,2.2869,2.2389,2.1822,2.2248,2.2353,2.2353,2.2353,2.2664,2.2813,2.2021,2.2438,2.2777,2.2021,2.2191,2.222,2.1374,2.126,2.1067,2.0191,2.1031,2.208,2.2767,2.3235,2.3352,2.2944,2.3613,2.3756,2.273,2.4481,2.5639,2.5449,2.6163,2.6591,2.6591,2.6591,2.6591,2.6591,2.6591,2.6591,2.6591,2.6591,2.6591,2.6591,2.6591,2.6591,2.6591,2.6591,2.6747]},{"header":{"parameterUnit":"m.s-1","parameterCategory":1,"la1":30.6,"la2":29.2853,"lo1":-89.7004,"lo2":-87.6739,"dy":0.0162,"dx":0.0183,"nx":112,"ny":82,"refTime":"2023-09-24T12:00:00:Z","depth":0,"parameterNumber":3,"parameterNumberName":"V-component_of_WINDS"},"data":[0.0,0.0,0.0,0.0,0.0,0.0,0.0,0.0,0.0,0.0,0.0,0.0,0.0,0.0,0.0,0.0,0.0,0.0,0.0,0.0,0.0,0.0,0.0,0.0,0.0,0.0,0.0,0.0,0.0,0.0,0.0,0.0,0.0,0.0,0.0,0.0,0.0,0.0,0.0,0.0,0.0,0.0,0.0,0.0,0.0,0.0,0.0,0.0,0.0,0.0,0.0,0.0,0.0,0.0,0.0,0.0,0.0,0.0,0.0,0.0,0.0,0.0,0.0,0.0,0.0,0.0,0.0,0.0,0.0,0.0,0.0,0.0,0.0,0.0,0.0,0.0,0.0,0.0,0.0,0.0,0.0,0.0,0.0,0.0,0.0,0.0,0.0,0.0,0.0,0.0,3.3845,3.9394,4.158,4.2649,4.2649,4.2665,4.0865,3.6589,0.0,0.0,0.0,0.0,0.0,0.0,0.0,0.0,0.0,0.0,0.0,0.0,0.0,0.0,0.0,0.0,0.0,0.0,0.0,0.0,0.0,0.0,0.0,0.0,0.0,0.0,0.0,0.0,0.0,0.0,0.0,0.0,0.0,0.0,0.0,0.0,0.0,0.0,0.0,0.0,0.0,0.0,0.0,0.0,0.0,0.0,0.0,0.0,0.0,0.0,0.0,0.0,0.0,0.0,0.0,0.0,0.0,0.0,0.0,0.0,0.0,0.0,0.0,0.0,0.0,0.0,0.0,0.0,0.0,0.0,0.0,0.0,0.0,0.0,0.0,0.0,0.0,0.0,0.0,0.0,0.0,0.0,0.0,0.0,0.0,0.0,0.0,0.0,0.0,0.0,0.0,0.0,0.0,0.0,0.0,0.0,0.0,0.0,0.0,0.0,0.0,0.0,0.0,0.0,3.7196,4.1663,4.2548,4.2853,4.2853,4.296,4.1161,3.6759,0.0,0.0,0.0,0.0,0.0,0.0,0.0,0.0,0.0,0.0,0.0,0.0,0.0,0.0,0.0,0.0,0.0,0.0,0.0,0.0,0.0,0.0,0.0,0.0,0.0,0.0,0.0,0.0,0.0,0.0,0.0,0.0,0.0,0.0,0.0,0.0,0.0,0.0,0.0,0.0,0.0,0.0,0.0,0.0,0.0,0.0,0.0,0.0,0.0,0.0,0.0,0.0,0.0,0.0,0.0,0.0,0.0,0.0,0.0,0.0,0.0,0.0,0.0,0.0,0.0,0.0,0.0,0.0,0.0,0.0,0.0,0.0,0.0,0.0,0.0,0.0,0.0,0.0,0.0,0.0,0.0,0.0,0.0,0.0,0.0,0.0,0.0,0.0,0.0,0.0,0.0,0.0,0.0,0.0,0.0,0.0,0.0,0.0,0.0,0.0,0.0,0.0,0.0,3.6723,4.063,4.2564,4.2853,4.2899,4.2899,4.3021,4.1383,3.7297,3.6704,0.0,0.0,0.0,0.0,0.0,0.0,0.0,0.0,0.0,0.0,0.0,0.0,0.0,0.0,0.0,0.0,0.0,0.0,0.0,0.0,0.0,0.0,0.0,0.0,0.0,0.0,0.0,0.0,0.0,0.0,0.0,0.0,0.0,0.0,0.0,0.0,0.0,0.0,0.0,0.0,0.0,0.0,0.0,0.0,0.0,0.0,0.0,0.0,0.0,0.0,0.0,0.0,0.0,0.0,0.0,0.0,0.0,0.0,0.0,0.0,0.0,0.0,0.0,0.0,0.0,0.0,0.0,0.0,0.0,0.0,0.0,0.0,0.0,0.0,0.0,0.0,0.0,0.0,0.0,0.0,0.0,0.0,0.0,0.0,0.0,0.0,0.0,0.0,0.0,0.0,0.0,0.0,0.0,0.0,0.0,0.0,0.0,0.0,0.0,0.0,0.0,0.0,3.9398,4.2226,4.2926,4.3054,4.3084,4.3099,4.325,4.1639,3.763,3.7032,0.0,0.0,0.0,0.0,0.0,0.0,0.0,0.0,0.0,0.0,0.0,0.0,0.0,0.0,0.0,0.0,0.0,0.0,0.0,0.0,0.0,0.0,0.0,0.0,0.0,0.0,0.0,0.0,0.0,0.0,0.0,0.0,0.0,0.0,0.0,0.0,0.0,0.0,0.0,0.0,0.0,0.0,0.0,0.0,0.0,0.0,0.0,0.0,0.0,0.0,0.0,0.0,0.0,0.0,0.0,0.0,0.0,0.0,0.0,0.0,0.0,0.0,0.0,0.0,0.0,0.0,0.0,0.0,0.0,0.0,0.0,0.0,0.0,0.0,0.0,0.0,0.0,0.0,0.0,0.0,0.0,0.0,0.0,0.0,0.0,0.0,0.0,0.0,0.0,0.0,0.0,0.0,0.0,0.0,0.0,0.0,0.0,0.0,0.0,0.0,0.0,0.0,3.8521,4.0264,4.3062,4.3479,4.3597,4.3728,4.3921,4.2027,3.7331,3.7178,0.0,0.0,0.0,0.0,0.0,0.0,0.0,0.0,0.0,0.0,0.0,0.0,0.0,0.0,0.0,0.0,0.0,0.0,0.0,0.0,0.0,0.0,0.0,0.0,0.0,0.0,0.0,0.0,0.0,0.0,0.0,0.0,0.0,0.0,0.0,0.0,0.0,0.0,0.0,0.0,0.0,0.0,0.0,0.0,0.0,0.0,0.0,0.0,0.0,0.0,0.0,0.0,0.0,0.0,0.0,0.0,0.0,0.0,0.0,0.0,0.0,0.0,0.0,0.0,0.0,0.0,0.0,0.0,0.0,0.0,0.0,0.0,0.0,0.0,0.0,0.0,0.0,0.0,0.0,0.0,0.0,0.0,0.0,0.0,0.0,0.0,0.0,0.0,0.0,0.0,0.0,0.0,0.0,0.0,0.0,0.0,0.0,0.0,0.0,0.0,0.0,0.0,4.0271,4.2384,4.3523,4.3684,4.3743,4.3802,4.3979,4.2253,3.7892,0.0,0.0,0.0,0.0,0.0,0.0,0.0,0.0,0.0,0.0,0.0,0.0,0.0,0.0,0.0,0.0,0.0,0.0,0.0,0.0,0.0,0.0,0.0,0.0,0.0,0.0,0.0,0.0,0.0,0.0,0.0,0.0,0.0,0.0,0.0,0.0,0.0,0.0,0.0,0.0,0.0,0.0,0.0,0.0,0.0,0.0,0.0,0.0,0.0,0.0,0.0,0.0,0.0,0.0,0.0,0.0,0.0,0.0,0.0,0.0,0.0,0.0,0.0,0.0,0.0,0.0,0.0,0.0,0.0,0.0,0.0,0.0,0.0,0.0,0.0,0.0,0.0,0.0,0.0,0.0,0.0,0.0,0.0,0.0,0.0,0.0,0.0,0.0,0.0,0.0,0.0,0.0,0.0,0.0,0.0,0.0,0.0,0.0,0.0,0.0,0.0,0.0,3.8358,4.1618,4.3906,4.3906,4.3906,4.3906,4.3906,4.4025,4.2297,3.805,0.0,0.0,0.0,0.0,0.0,0.0,0.0,0.0,0.0,0.0,0.0,0.0,0.0,0.0,0.0,0.0,0.0,0.0,0.0,0.0,0.0,0.0,0.0,0.0,0.0,0.0,0.0,0.0,0.0,0.0,0.0,0.0,0.0,0.0,0.0,0.0,0.0,0.0,0.0,0.0,0.0,0.0,0.0,0.0,0.0,0.0,0.0,0.0,0.0,0.0,0.0,0.0,0.0,0.0,0.0,0.0,0.0,0.0,0.0,0.0,0.0,0.0,0.0,0.0,0.0,0.0,0.0,0.0,0.0,0.0,0.0,0.0,0.0,0.0,0.0,0.0,0.0,0.0,0.0,0.0,0.0,0.0,0.0,0.0,0.0,0.0,0.0,0.0,0.0,0.0,0.0,0.0,0.0,0.0,0.0,0.0,0.0,0.0,0.0,0.0,0.0,0.0,3.9169,4.2119,4.4097,4.4097,4.4097,4.4097,4.4097,4.4097,4.215,0.0,0.0,0.0,0.0,0.0,0.0,0.0,0.0,0.0,0.0,0.0,0.0,0.0,0.0,0.0,0.0,0.0,0.0,0.0,0.0,0.0,0.0,0.0,0.0,0.0,0.0,0.0,0.0,0.0,0.0,0.0,0.0,0.0,0.0,0.0,0.0,0.0,0.0,0.0,0.0,0.0,0.0,0.0,0.0,0.0,0.0,0.0,0.0,0.0,0.0,0.0,0.0,0.0,0.0,0.0,0.0,0.0,0.0,0.0,0.0,0.0,0.0,0.0,0.0,0.0,0.0,0.0,0.0,0.0,0.0,0.0,0.0,0.0,0.0,0.0,0.0,0.0,0.0,0.0,0.0,0.0,0.0,0.0,0.0,0.0,0.0,0.0,0.0,0.0,0.0,0.0,0.0,0.0,0.0,0.0,0.0,0.0,0.0,0.0,0.0,0.0,0.0,0.0,3.8748,4.2077,4.4443,4.4443,4.4327,4.4239,4.4239,4.4155,4.215,3.759,0.0,0.0,0.0,0.0,0.0,0.0,0.0,0.0,0.0,0.0,0.0,0.0,0.0,0.0,0.0,0.0,0.0,0.0,0.0,0.0,0.0,0.0,0.0,0.0,0.0,0.0,0.0,0.0,0.0,0.0,0.0,0.0,0.0,0.0,0.0,0.0,0.0,0.0,0.0,0.0,0.0,0.0,0.0,0.0,0.0,0.0,0.0,0.0,0.0,0.0,0.0,0.0,0.0,0.0,0.0,0.0,0.0,0.0,0.0,0.0,0.0,0.0,0.0,0.0,0.0,0.0,0.0,0.0,0.0,0.0,0.0,0.0,0.0,0.0,0.0,0.0,0.0,0.0,0.0,0.0,0.0,0.0,0.0,0.0,0.0,0.0,0.0,0.0,0.0,0.0,0.0,0.0,0.0,0.0,0.0,0.0,0.0,0.0,0.0,0.0,0.0,0.0,3.89,4.2366,4.4928,4.5139,4.5054,4.4966,4.4907,4.4551,4.281,3.9235,0.0,0.0,0.0,0.0,0.0,0.0,0.0,0.0,0.0,0.0,0.0,0.0,0.0,0.0,0.0,0.0,0.0,0.0,0.0,0.0,0.0,0.0,0.0,0.0,0.0,0.0,0.0,0.0,0.0,0.0,0.0,0.0,0.0,0.0,0.0,0.0,0.0,0.0,0.0,0.0,0.0,0.0,0.0,0.0,0.0,0.0,0.0,0.0,0.0,0.0,0.0,0.0,0.0,0.0,0.0,0.0,0.0,0.0,0.0,0.0,0.0,0.0,0.0,0.0,0.0,0.0,0.0,0.0,0.0,0.0,0.0,0.0,0.0,0.0,0.0,0.0,0.0,0.0,0.0,0.0,0.0,0.0,0.0,0.0,0.0,0.0,0.0,0.0,0.0,0.0,0.0,0.0,0.0,0.0,0.0,0.0,0.0,0.0,0.0,0.0,0.0,0.0,3.9205,4.281,4.5496,4.5977,4.6012,4.5951,4.5828,4.5184,4.392,4.1826,0.0,0.0,0.0,0.0,0.0,0.0,0.0,0.0,0.0,0.0,0.0,0.0,0.0,0.0,0.0,0.0,0.0,0.0,0.0,0.0,0.0,0.0,0.0,0.0,0.0,0.0,0.0,0.0,0.0,0.0,0.0,0.0,0.0,0.0,0.0,0.0,0.0,0.0,0.0,0.0,0.0,0.0,0.0,0.0,0.0,0.0,0.0,0.0,0.0,0.0,0.0,0.0,0.0,0.0,0.0,0.0,0.0,0.0,0.0,0.0,3.265,2.9624,0.0,0.0,0.0,0.0,0.0,0.0,0.0,0.0,0.0,0.0,0.0,0.0,0.0,0.0,0.0,0.0,0.0,0.0,0.0,0.0,0.0,0.0,0.0,0.0,0.0,0.0,0.0,0.0,0.0,0.0,0.0,0.0,0.0,0.0,0.0,0.0,0.0,0.0,0.0,0.0,3.7755,4.2553,4.6111,4.6231,4.6091,4.5997,4.5966,4.571,4.4683,4.2594,4.1355,0.0,0.0,0.0,0.0,0.0,0.0,0.0,0.0,0.0,0.0,0.0,0.0,0.0,0.0,0.0,0.0,0.0,0.0,0.0,0.0,0.0,0.0,0.0,0.0,0.0,0.0,0.0,0.0,0.0,0.0,0.0,0.0,0.0,0.0,0.0,0.0,0.0,0.0,0.0,0.0,0.0,0.0,0.0,0.0,0.0,0.0,0.0,0.0,0.0,0.0,0.0,0.0,0.0,0.0,0.0,0.0,0.0,0.0,0.0,3.4246,3.304,0.0,0.0,0.0,0.0,0.0,0.0,0.0,0.0,0.0,0.0,0.0,0.0,0.0,0.0,0.0,0.0,0.0,0.0,0.0,0.0,0.0,0.0,0.0,0.0,0.0,0.0,0.0,0.0,0.0,0.0,0.0,0.0,0.0,0.0,0.0,0.0,0.0,0.0,0.0,0.0,3.8794,4.3427,4.6854,4.7172,4.7205,4.7187,4.7187,4.6809,4.6111,4.5022,4.3325,0.0,0.0,0.0,0.0,0.0,0.0,0.0,0.0,0.0,0.0,0.0,0.0,0.0,0.0,0.0,0.0,0.0,0.0,0.0,0.0,0.0,0.0,0.0,0.0,0.0,0.0,0.0,0.0,0.0,0.0,0.0,0.0,0.0,0.0,0.0,0.0,0.0,0.0,0.0,0.0,0.0,0.0,0.0,0.0,0.0,0.0,0.0,0.0,0.0,0.0,0.0,0.0,0.0,3.6469,3.6635,3.7105,3.6706,3.5897,3.4877,3.6131,3.7071,3.7549,3.5386,0.0,0.0,0.0,0.0,0.0,0.0,0.0,0.0,0.0,0.0,0.0,0.0,0.0,0.0,0.0,0.0,0.0,0.0,0.0,0.0,0.0,0.0,3.6707,3.855,3.7887,3.725,3.8854,0.0,0.0,0.0,0.0,0.0,0.0,0.0,0.0,0.0,0.0,0.0,4.0453,4.4662,4.7876,4.856,4.8771,4.8884,4.8884,4.8199,4.7781,4.7781,4.5373,4.3765,0.0,0.0,0.0,0.0,0.0,0.0,0.0,0.0,0.0,0.0,0.0,0.0,0.0,0.0,0.0,0.0,0.0,0.0,0.0,0.0,0.0,0.0,0.0,0.0,0.0,0.0,0.0,0.0,0.0,0.0,0.0,0.0,2.9166,3.113,0.0,0.0,0.0,0.0,0.0,0.0,0.0,0.0,0.0,0.0,0.0,0.0,0.0,3.5749,3.5749,3.7323,3.8116,3.8149,3.9289,3.9886,3.9959,3.99,3.9774,3.9546,3.8555,0.0,3.5072,3.5723,0.0,0.0,0.0,0.0,0.0,0.0,0.0,0.0,0.0,0.0,0.0,0.0,0.0,0.0,0.0,0.0,0.0,0.0,0.0,0.0,0.0,0.0,4.3287,4.3686,4.2282,4.1562,4.4176,3.8836,3.4464,3.7692,3.6982,3.5996,0.0,0.0,0.0,0.0,0.0,0.0,4.0591,4.5681,4.9556,5.0292,5.0375,5.0425,5.0425,4.9739,4.9304,4.9304,4.7762,4.6031,4.4228,4.5272,0.0,0.0,0.0,0.0,0.0,0.0,0.0,0.0,0.0,0.0,0.0,0.0,0.0,0.0,0.0,0.0,0.0,0.0,0.0,0.0,0.0,0.0,0.0,0.0,0.0,0.0,0.0,0.0,0.0,2.9064,3.0778,3.1784,3.2595,3.2563,0.0,0.0,0.0,0.0,0.0,0.0,0.0,0.0,0.0,3.6273,3.7549,3.836,3.8651,4.0584,4.1704,4.2002,4.2633,4.2925,4.2925,4.2925,4.2682,4.2261,4.1646,4.049,3.8989,3.8369,3.8098,3.8082,0.0,0.0,0.0,0.0,3.6189,3.6886,3.6144,3.7293,3.9102,3.9121,0.0,0.0,0.0,0.0,0.0,0.0,0.0,4.0162,4.0897,4.2563,4.4292,4.5258,4.4862,4.4686,4.6341,4.2915,3.9824,4.0878,3.9455,3.7795,3.6901,3.8644,0.0,0.0,0.0,4.4586,4.4486,4.7942,5.0506,5.0825,5.0941,5.0973,5.0973,5.0687,5.0502,5.0502,4.9895,4.8933,4.7609,4.8121,4.6602,0.0,0.0,0.0,0.0,0.0,0.0,0.0,0.0,0.0,0.0,0.0,0.0,0.0,0.0,0.0,0.0,0.0,0.0,0.0,0.0,0.0,0.0,0.0,0.0,0.0,0.0,0.0,0.0,3.1094,3.2636,3.3283,3.4675,3.5227,0.0,0.0,0.0,0.0,0.0,0.0,3.7614,3.7663,3.7906,3.8456,4.0126,4.1199,4.1613,4.3343,4.4399,4.4804,4.4609,4.4512,4.4512,4.4318,4.3945,4.3411,4.3411,4.312,4.2473,4.0934,4.0286,4.0333,4.0657,4.0139,3.9151,3.8602,3.879,3.919,3.8488,3.9626,4.1379,4.1288,4.0856,4.0414,4.0498,0.0,0.0,0.0,0.0,4.2358,4.3365,4.4427,4.5513,4.6706,4.7216,4.7578,4.813,4.6554,4.4947,4.4616,4.285,4.097,3.952,4.1698,0.0,4.0445,4.4402,4.7679,4.782,4.988,5.141,5.1629,5.1727,5.1793,5.1793,5.159,5.1472,5.1472,5.1302,5.0947,5.0388,5.0371,4.9,4.6056,0.0,0.0,0.0,0.0,0.0,0.0,0.0,0.0,0.0,0.0,0.0,0.0,0.0,0.0,0.0,0.0,0.0,0.0,0.0,0.0,0.0,0.0,0.0,0.0,0.0,0.0,0.0,0.0,0.0,3.6791,3.8879,0.0,0.0,0.0,0.0,3.6303,3.684,3.844,4.1191,4.1336,4.2261,4.4302,4.448,4.4561,4.4593,4.469,4.4771,4.4804,4.4091,4.3751,4.3719,4.3039,4.2683,4.2651,4.2651,4.2635,4.2586,4.2489,4.2441,4.2376,4.1775,4.1498,4.1191,3.9151,3.9803,4.1639,4.1034,4.2138,4.402,4.5128,4.4032,4.1894,3.9902,3.9723,0.0,0.0,4.23,4.4799,4.4378,4.6765,4.932,4.9403,4.9956,5.0492,5.0542,4.8849,4.7725,4.9001,4.7541,4.6262,4.6923,0.0,4.6529,4.4422,4.6155,4.7957,4.8631,5.0782,5.252,5.3298,5.3365,5.3382,5.3382,5.2689,5.2249,5.2249,5.159,5.1184,5.115,5.1133,5.0727,4.9846,4.7073,0.0,0.0,0.0,0.0,0.0,0.0,0.0,0.0,0.0,0.0,0.0,0.0,0.0,0.0,0.0,0.0,0.0,0.0,0.0,0.0,0.0,0.0,0.0,0.0,0.0,0.0,0.0,0.0,3.7163,3.8812,0.0,3.9395,3.9909,4.0282,4.0353,4.1329,4.2443,4.3605,4.367,4.4221,4.5403,4.5568,4.6022,4.686,4.6947,4.7174,4.749,4.7247,4.7118,4.7102,4.6843,4.6712,4.6712,4.6712,4.6867,4.7105,4.7105,4.5879,4.4043,4.4221,4.4593,4.4917,4.4156,4.4561,4.5472,4.5257,4.5812,4.6714,4.7234,4.6927,4.6274,4.5971,4.6054,4.6337,4.6707,4.7729,4.8652,4.8479,4.9449,5.0505,5.0505,5.0755,5.1157,5.1629,5.1139,5.0837,5.1732,4.9378,4.7341,4.7607,4.9287,4.9777,4.74,4.9541,5.1475,5.1613,5.2471,5.3179,5.3467,5.3501,5.3501,5.3501,5.3247,5.3078,5.3078,5.2841,5.2452,5.1944,5.1894,5.1556,5.0812,4.9781,4.7434,0.0,0.0,0.0,0.0,0.0,0.0,0.0,0.0,0.0,0.0,0.0,0.0,0.0,0.0,0.0,0.0,0.0,0.0,0.0,0.0,0.0,0.0,0.0,0.0,0.0,3.5396,3.763,3.8296,3.9881,4.1192,4.1888,4.2281,4.2815,4.3622,4.4462,4.5204,4.5856,4.5872,4.6196,4.6859,4.6996,4.7484,4.8332,4.8422,4.8649,4.9012,4.9012,4.9012,4.9012,4.9012,4.8625,4.808,4.8849,4.8963,4.8654,4.9478,4.8685,4.7008,4.7204,4.7579,4.8004,4.8004,4.8226,4.8513,4.8513,4.8779,4.914,4.9058,4.9172,4.9433,4.992,5.007,5.0171,5.0724,5.106,5.1245,5.1245,5.1546,5.1831,5.1764,5.1814,5.1982,5.2421,5.2101,5.2101,5.3245,5.1361,4.929,4.8486,5.0046,5.0569,4.816,4.9679,5.1056,5.0908,5.1647,5.2185,5.2185,5.291,5.3399,5.3399,5.2707,5.2639,5.345,5.274,5.2419,5.2689,5.1912,5.1018,5.0039,4.8505,4.6505,4.3979,0.0,0.0,0.0,0.0,0.0,0.0,0.0,0.0,0.0,0.0,0.0,0.0,0.0,0.0,0.0,0.0,0.0,0.0,0.0,0.0,0.0,0.0,0.0,3.4214,3.7337,3.9831,4.056,4.2488,4.4059,4.4787,4.4885,4.5176,4.5856,4.5888,4.6519,4.7943,4.796,4.8251,4.8947,4.8947,4.8963,4.9012,4.906,4.9076,4.9076,4.9076,4.9076,4.9076,4.9094,4.8065,4.6401,4.8695,4.8589,4.6979,4.9325,5.0703,5.1283,5.052,5.0254,5.0271,5.0271,5.0407,5.056,5.0543,5.0843,5.1188,5.0727,5.081,5.1091,5.1091,5.1058,5.1107,5.1237,5.1793,5.2351,5.2351,5.296,5.3501,5.3314,5.3263,5.3211,5.3005,5.1849,5.1464,5.3622,5.3612,5.2505,5.0173,4.9771,4.9067,4.6971,4.6668,0.0,4.6668,4.8447,4.9754,4.9754,5.1749,5.3128,5.3179,5.1159,5.092,5.3332,5.1291,5.1038,5.3382,5.124,4.9323,4.7891,4.3435,4.2529,4.5412,0.0,0.0,0.0,0.0,0.0,0.0,0.0,0.0,0.0,0.0,0.0,0.0,0.0,0.0,0.0,0.0,0.0,0.0,0.0,0.0,0.0,3.5849,3.8535,3.8699,4.0058,4.1661,4.3411,4.4561,4.5516,4.6262,4.6674,4.7237,4.8073,4.8031,4.8191,4.8704,4.7247,4.6972,4.8235,4.7767,4.7977,4.8995,5.0066,5.06,5.06,5.06,5.06,5.0619,5.0898,5.0734,5.0283,5.1162,5.1415,5.1227,5.1878,5.2452,5.2774,5.149,5.1298,5.1728,5.1728,5.1938,5.2116,5.1179,5.1731,5.2841,5.2724,5.2741,5.2808,5.2808,5.2707,5.259,5.264,5.3077,5.3528,5.3528,5.4098,5.4651,5.4581,5.4581,5.4563,5.4509,5.4191,5.4039,5.448,5.4464,5.4202,5.3672,5.3589,5.3353,5.2596,5.2616,5.2667,5.2512,5.2666,5.2803,5.2803,5.148,5.1229,5.2838,5.0944,5.0658,5.2907,5.2437,5.2369,5.3041,5.2437,5.1866,5.148,4.8035,4.67,0.0,0.0,0.0,0.0,0.0,0.0,0.0,0.0,0.0,0.0,0.0,0.0,0.0,0.0,0.0,0.0,0.0,0.0,0.0,0.0,0.0,0.0,3.8315,4.1808,4.3022,4.3281,4.3945,4.55,4.6293,4.7006,4.7702,4.8065,4.8578,4.94,4.939,4.9519,4.9886,4.8738,4.8171,4.8413,4.8592,4.8893,4.9247,5.0713,5.1503,5.1653,5.1653,5.1653,5.1672,5.1891,5.1542,5.0823,5.2032,5.2379,5.2185,5.3194,5.3938,5.4278,0.0,0.0,0.0,0.0,5.2938,5.3043,5.2303,5.2893,5.394,5.3855,5.4041,5.4276,5.4207,5.3447,5.2605,5.2605,5.2168,5.1898,5.2836,5.3405,5.3939,5.4769,5.4968,5.4948,5.4875,5.4374,5.4206,5.4994,5.4643,0.0,5.5588,5.4509,5.314,5.2102,5.2039,5.2074,5.197,5.249,5.2876,5.2876,5.2212,5.2298,5.3583,5.1379,0.0,0.0,0.0,5.1429,5.1429,5.1128,0.0,0.0,0.0,4.6562,4.7953,4.6125,0.0,0.0,4.5289,4.3956,0.0,0.0,0.0,0.0,0.0,0.0,0.0,0.0,0.0,0.0,0.0,0.0,0.0,0.0,0.0,0.0,4.0422,4.414,4.6763,4.6649,4.6504,4.7072,4.7799,4.8461,4.9076,4.9206,4.9513,5.0179,5.0228,5.0536,5.1267,5.1089,0.0,0.0,0.0,5.0727,4.9863,5.1341,5.2264,5.2556,5.2556,5.2556,5.2556,5.2591,5.1653,5.0076,5.2283,5.2572,5.1696,5.3839,5.5108,5.5564,5.4245,5.3754,5.372,5.3518,5.3551,5.367,5.3467,0.0,0.0,5.4458,5.4825,5.5344,5.5148,5.3705,5.2149,5.2149,5.0777,4.9757,5.1731,5.2299,5.2799,5.4589,5.5018,5.4963,5.4777,5.3765,5.3452,5.5353,5.4674,5.4411,5.6349,5.4032,5.1248,4.9276,4.8978,4.8978,4.8978,5.0635,5.1778,5.1778,5.3364,0.0,5.4752,5.2156,5.1526,5.3919,5.141,4.9859,4.9859,4.9143,4.7448,4.464,4.3944,4.498,4.7794,4.7794,4.9476,5.2553,4.7265,4.5866,0.0,0.0,0.0,0.0,0.0,0.0,0.0,0.0,0.0,0.0,0.0,0.0,0.0,0.0,0.0,4.1163,4.4495,4.7328,4.8445,4.8979,4.9111,4.8639,4.9238,4.9742,4.987,5.0422,5.0827,5.0991,5.0991,5.1299,5.196,5.0374,4.9839,5.0765,5.0788,5.0972,5.1374,5.3097,5.4008,5.4065,5.4065,0.0,5.41,5.4427,5.4354,5.4006,5.4812,5.5021,5.4836,5.5293,5.5564,5.5665,5.5378,5.5276,5.5089,5.3564,5.3866,5.481,5.3303,5.3738,5.5001,5.4965,5.5047,5.5147,5.511,5.4702,0.0,5.4227,5.4233,5.4337,5.4752,5.5318,5.585,5.6243,5.6323,5.6323,5.6285,5.6051,5.6003,5.6398,5.6249,5.62,5.6633,5.6119,5.5506,5.5092,5.5007,5.5007,5.5007,5.4875,5.4773,5.4773,5.3089,5.2677,5.4415,5.2444,5.2047,5.4271,5.3289,5.2642,5.2642,5.198,5.1316,5.0718,5.0569,5.0785,5.1383,5.1383,5.203,5.3205,5.1637,5.1072,0.0,0.0,0.0,0.0,0.0,0.0,0.0,0.0,0.0,0.0,0.0,3.6451,3.7141,0.0,4.1539,4.3315,4.5705,4.7873,4.9352,5.0471,5.0746,4.9675,5.0196,5.0778,5.1118,5.1475,5.1847,5.222,5.2252,5.2398,5.2718,5.1923,5.1469,5.1503,5.2218,5.2546,5.2396,5.4002,5.4898,5.5096,5.5096,5.5096,5.5114,5.5311,5.54,5.54,5.5594,5.5849,5.6131,5.6395,5.6511,5.6511,5.6511,5.6109,5.5421,5.4381,5.4529,5.5119,5.4186,5.4637,5.5627,5.5536,5.5751,5.6033,5.594,5.5046,5.4092,5.4092,5.3521,5.3134,5.4227,5.4756,5.5322,5.6451,5.6699,5.6699,5.6699,5.6699,5.6699,5.6699,5.6699,5.6699,5.6699,5.6699,5.6699,5.6699,5.6699,5.6699,5.6699,5.6382,5.615,5.615,5.4858,5.4446,5.5504,5.4278,5.3748,5.4458,5.4144,5.3945,5.3945,5.3632,5.345,5.345,5.345,5.345,5.345,5.345,5.3632,5.3945,5.3672,5.3506,0.0,0.0,0.0,0.0,0.0,0.0,0.0,3.6983,3.7304,3.7501,3.8523,3.953,4.0006,4.1251,4.2961,4.5283,4.6848,4.8417,5.0258,5.1604,5.1993,5.0859,5.1248,5.1815,5.2365,5.2414,5.2657,5.3269,5.3301,5.3405,5.3613,5.3928,5.3702,5.278,5.4239,5.4657,5.3845,5.5001,5.5749,5.6068,5.6033,5.6015,5.6015,5.6015,5.6015,5.6015,5.6015,5.6246,5.669,5.7113,5.7308,5.7289,5.7252,5.6607,5.5692,5.5529,5.5474,5.5457,5.542,5.5786,5.627,5.6119,5.6464,5.6911,5.6738,5.5454,5.4028,5.4028,5.2804,5.1859,5.3581,5.4028,5.4494,5.6285,5.6699,5.6699,5.6699,5.6699,5.6699,5.6699,5.6699,5.6699,5.6699,5.6699,5.6699,5.6699,5.6699,5.6699,5.6699,5.6699,5.6699,5.6699,5.6699,5.6699,5.6699,5.6166,5.5568,5.4955,5.479,5.4723,5.4723,5.4574,5.4508,5.4508,5.4508,5.4508,5.4508,5.4508,5.4574,5.4723,5.4723,5.4641,3.1393,2.9206,2.9049,3.1806,3.4331,3.6529,0.0,4.1517,4.4107,4.2342,4.4544,4.6827,4.6891,4.8039,4.9107,4.9414,5.0679,5.1666,5.1928,5.2673,5.3123,5.2961,5.301,5.3091,5.3171,5.3171,5.322,5.3301,5.3301,5.3753,5.4763,5.4854,5.5262,5.6126,5.6692,5.6936,5.6823,5.714,5.7335,5.7389,5.7223,5.7113,5.7113,5.7113,5.7113,5.7113,5.7113,5.7145,5.721,5.7275,5.7308,5.7289,5.7101,5.6944,5.6829,5.6811,5.6792,5.6756,5.6582,5.6575,5.6641,5.6622,5.6669,5.6719,5.6716,5.6534,5.6316,5.6316,5.6169,5.6037,5.6285,5.6316,5.6401,5.665,5.6699,5.6699,5.6699,5.6699,5.6699,5.6699,5.6699,5.6699,5.6699,5.6699,5.6699,5.6699,5.6699,5.6699,5.6699,5.6699,5.6699,5.6699,5.6699,5.6699,5.6699,5.6614,5.6531,5.6448,5.5833,5.5485,5.5485,5.4856,5.4508,5.4508,5.4508,5.4508,5.4508,5.4508,5.4839,5.5485,5.5485,5.5137,3.3339,3.3983,3.5553,3.7637,4.0012,4.2213,4.367,4.558,4.6941,4.647,4.7896,4.9224,4.9224,4.9297,4.9777,5.11,5.1062,5.1315,5.2654,5.3483,5.3932,5.3932,5.3302,5.264,5.2142,5.3207,5.3596,5.2721,5.3957,5.4957,5.5449,5.5804,5.6208,5.668,5.7082,5.7308,5.7308,5.7383,5.742,5.742,5.7346,5.7308,5.7308,5.7308,5.7308,5.7289,5.7176,5.712,5.712,5.7006,5.6949,5.693,5.6853,5.6815,5.6815,5.6815,5.6815,5.6815,5.6719,5.6699,5.6699,5.6699,5.6699,5.6699,5.6699,5.6699,5.6699,5.6699,5.6699,5.6699,5.6699,5.6699,5.6699,5.6699,5.6699,5.6699,5.6699,5.6699,5.6699,5.6699,5.6699,5.6699,5.6699,5.6699,5.6699,5.6699,5.6699,5.6699,5.6699,5.6699,5.6699,5.6699,5.6699,5.6699,5.6699,5.6699,5.6699,5.6699,5.6398,5.6249,5.6249,5.5935,5.5786,5.5786,5.5786,5.5786,5.5786,5.5786,5.5935,5.6249,5.6249,5.6067,3.4612,3.683,3.9282,4.2182,4.4221,4.6067,4.8105,4.8397,4.8466,4.9412,4.9833,5.0177,5.0612,5.0151,5.034,5.22,5.1755,5.1716,5.3382,5.4207,5.4409,5.3671,5.2746,5.1422,4.945,5.2113,5.375,5.3224,5.485,5.5943,5.6046,5.6463,5.6738,5.6853,5.7158,5.7308,5.7308,5.7252,5.7214,5.7214,5.7158,5.7139,5.7139,5.7139,5.7139,5.712,5.6987,5.6911,5.6911,5.6757,5.6699,5.6699,5.6699,5.6699,5.6699,5.6699,5.6699,5.6699,5.6699,5.6699,5.6699,5.6699,5.6699,5.6699,5.6699,5.6699,5.6699,5.6699,5.6699,5.6699,5.6699,5.6699,5.6699,5.6699,5.6699,5.6699,5.6699,5.6699,5.6699,5.6699,5.6699,5.6699,5.6699,5.6699,5.6699,5.6699,5.6699,5.6699,5.6699,5.6699,5.6699,5.6699,5.6699,5.6699,5.6699,5.6699,5.6699,5.6699,5.6699,5.6699,5.6699,5.6699,5.6699,5.6699,5.6699,5.6699,5.6699,5.6699,5.6815,5.7014,5.7114,5.7288,3.4824,3.5041,3.5801,4.21,4.4253,4.5726,4.924,4.937,4.9219,5.0806,5.0477,5.0357,5.1859,5.2106,5.2365,5.3139,5.3819,5.4292,5.4357,5.4956,5.4397,5.1793,5.1473,4.9575,4.4868,4.9529,5.3643,5.5558,5.5934,5.6248,5.6641,5.668,5.6872,5.7271,5.7289,5.7308,5.7308,5.7101,5.7006,5.7006,5.6815,5.6719,5.6719,5.6719,5.6719,5.6719,5.6699,5.6699,5.6716,5.6699,5.6699,5.6699,5.6699,5.6699,5.6699,5.6699,5.6699,5.6699,5.6699,5.6699,5.6699,5.6699,5.6699,5.6699,5.6699,5.6699,5.6699,5.6699,5.6699,5.6699,5.6699,5.6699,5.6699,5.6699,5.6699,5.6699,5.6699,5.6699,5.6699,5.6699,5.6699,5.6699,5.6699,5.6699,5.6699,5.6699,5.6699,5.6699,5.6699,5.6699,5.6699,5.6699,5.6699,5.6699,5.6699,5.6699,5.6699,5.6699,5.6699,5.6699,5.6699,5.6699,5.6699,5.6699,5.6699,5.6699,5.6699,5.6699,5.708,5.7776,5.8171,5.8732,3.4632,3.7812,4.1798,4.4342,4.6211,4.7903,4.9582,4.9736,4.9854,5.0968,4.9369,4.8113,4.92,4.8553,4.855,5.0808,5.097,5.1812,5.4661,5.2491,5.155,5.4017,5.1586,5.0502,5.2613,5.2805,5.2492,5.1751,5.5466,5.7831,5.7955,5.8095,5.8213,5.8371,5.8371,5.8122,5.764,5.7565,5.7293,5.6796,5.6719,5.6699,5.6699,5.6699,5.6699,5.6732,5.7229,5.7445,5.7458,5.7955,5.8154,5.8154,5.8154,5.8154,5.8154,5.8154,5.8154,5.8005,5.7047,5.6699,5.6699,5.6699,5.6699,5.6699,5.6699,5.6699,5.6699,5.6699,5.6699,5.6699,5.6699,5.6699,5.6699,5.6699,5.6699,5.6699,5.6699,5.6699,5.6699,5.6699,5.6796,5.6853,5.6719,5.6796,5.6853,5.6719,5.6699,5.6699,5.6699,5.6699,5.6699,5.6699,5.6699,5.6699,5.6699,5.6699,5.6699,5.6699,5.6699,5.6699,5.6699,5.6699,5.6699,5.6699,5.6699,5.6948,5.7445,5.7703,5.8221,5.8939,5.9401,5.9726,3.6969,4.0951,4.5102,4.6325,4.7928,4.9315,4.9793,4.9634,4.9734,5.0959,4.9418,4.7951,4.8277,4.7501,4.7629,5.008,5.0098,5.1137,5.4992,5.2885,5.1797,5.4168,5.2001,5.139,5.4051,5.3769,5.2696,5.0985,5.4507,5.677,5.6884,5.7,5.7675,5.8986,5.902,5.8615,5.7826,5.779,5.7445,5.6699,5.6699,5.6848,5.7097,5.7097,5.6514,5.562,5.7409,5.7442,5.6365,5.8154,5.8899,5.8899,5.8899,5.8899,5.8899,5.8899,5.8899,5.875,5.7806,5.7495,5.7495,5.7495,5.7495,5.7495,5.7495,5.7495,5.7495,5.7495,5.7495,5.7495,5.7495,5.7495,5.7409,5.7163,5.7097,5.7031,5.6766,5.6699,5.6699,5.6699,5.6796,5.6853,5.6719,5.7028,5.7233,5.7116,5.7329,5.7312,5.6782,5.6699,5.6699,5.6699,5.6699,5.6699,5.6699,5.6699,5.6815,5.708,5.7097,5.7193,5.7495,5.7615,5.7712,5.7712,5.7866,5.8176,5.8661,5.8914,5.9417,6.0121,6.0579,6.0938,4.1441,4.4114,4.5571,4.7964,4.9161,4.9789,4.9868,4.9161,4.8973,5.0636,5.0173,4.9257,4.8576,4.838,4.885,5.0603,5.0864,5.1945,5.5147,5.5513,5.459,5.2277,5.2628,5.214,4.9756,5.2654,5.4252,5.3274,5.3539,5.3891,5.4192,5.4192,5.5757,5.9202,5.9298,5.8833,5.7856,5.7773,5.7412,5.6766,5.6766,5.7147,5.7856,5.7856,5.6332,5.3879,5.7425,5.6978,5.4011,5.7558,5.9015,5.9015,5.9015,5.9015,5.9015,5.9015,5.9015,5.9015,5.9015,5.8966,5.8899,5.8899,5.8899,5.8899,5.8899,5.8899,5.8899,5.8899,5.8899,5.8899,5.8899,5.8899,5.8717,5.8045,5.7895,5.7696,5.7022,5.6873,5.6873,5.6854,5.6815,5.6815,5.6815,5.7395,5.7856,5.7856,5.8436,5.8386,5.6978,5.6835,5.6835,5.6835,5.6854,5.6873,5.6873,5.6873,5.7172,5.7846,5.7898,5.823,5.8906,5.9323,5.9541,5.9541,5.9962,6.0224,6.0239,6.0293,6.063,6.1305,6.1777,6.2356,4.2349,4.5078,4.7891,4.9208,4.8713,4.8236,4.9594,4.9161,4.8393,4.8075,4.5636,4.3057,4.1407,3.98,4.0459,4.5781,4.6289,4.7564,5.2107,5.1487,5.0941,5.1885,5.2326,5.3362,5.5388,5.6415,5.6274,5.4579,5.6994,5.8891,5.9655,5.9551,5.9905,6.08,6.0687,5.9967,5.8634,5.7525,5.7163,5.7528,5.7528,5.7906,5.8618,5.8618,5.8204,5.7574,5.9082,5.9198,5.8436,5.9926,6.0539,6.0539,6.0539,6.0539,6.0539,6.0539,6.0539,6.0539,6.0539,5.9827,5.8899,5.8899,5.8899,5.8899,5.8899,5.8899,5.8899,5.8899,5.8899,5.8899,5.8899,5.8899,5.893,5.9034,5.9062,5.9109,5.9268,5.9311,5.9199,5.8836,5.8557,5.8396,5.8554,5.8585,5.8618,5.8618,5.8784,5.875,5.8386,5.8599,5.8778,5.8778,5.9103,5.9311,5.9311,5.9311,5.9245,5.9081,5.9389,5.9528,5.9346,5.979,6.0019,6.0019,6.0131,6.0459,6.0964,6.1304,6.1845,6.2542,6.2975,6.3281,4.5389,4.7091,4.8636,4.9141,4.8236,4.7247,4.7488,4.6839,4.578,4.4375,4.2441,4.0373,3.8296,3.7507,3.8776,4.3686,4.5147,4.696,5.0735,5.0645,5.0688,5.2013,5.2567,5.4299,5.806,5.833,5.8176,5.7907,5.78,5.8222,5.9265,5.9123,5.9738,6.1354,6.1276,6.0476,5.8916,5.7445,5.7061,5.779,5.779,5.8353,5.938,5.938,5.8684,5.7555,5.9612,5.9542,5.8217,6.0254,6.1102,6.1102,6.1102,6.1102,6.1102,6.1102,6.1206,6.1355,6.1355,6.0826,6.0087,5.9921,5.9877,5.9877,5.9877,5.9877,5.9877,5.9877,5.9877,5.9877,5.9877,5.9877,5.9879,5.9953,5.9988,6.0021,6.018,6.0207,6.0131,5.9867,5.9616,5.9516,5.9613,5.9787,5.9909,5.9909,6.0174,6.0391,6.0391,5.9865,5.958,5.979,6.0038,6.0207,6.0207,6.0207,6.0212,6.0247,6.0492,6.0663,6.0732,6.1191,6.1437,6.1437,6.1606,6.1869,6.2243,6.2521,6.2854,6.3283,6.349,6.36,4.8622,4.8837,4.8242,4.8594,4.7816,4.6674,4.5481,4.4139,4.2651,4.0829,4.0113,3.9253,3.7447,3.8383,4.0351,4.312,4.5741,4.7924,4.9418,5.1024,5.1995,5.1843,5.2672,5.4783,5.8683,5.8561,5.9152,6.1441,5.7703,5.5815,5.6975,5.6771,5.8069,6.1259,6.12,6.0399,5.8899,5.7445,5.713,5.7939,5.7939,5.8717,6.0158,6.0158,5.8747,5.6512,5.9707,5.9277,5.6578,5.9773,6.1102,6.1102,6.1102,6.1102,6.1119,6.1165,6.1396,6.1709,6.177,6.179,6.1729,6.1375,6.121,6.1186,6.1231,6.1268,6.1268,6.1268,6.1268,6.1268,6.1268,6.1268,6.1189,6.0985,6.0917,6.0867,6.0687,6.0625,6.0587,6.0587,6.0514,6.0476,6.0476,6.0964,6.1351,6.1351,6.189,6.2313,6.2372,6.0967,6.0114,6.0531,6.0608,6.0646,6.0646,6.0646,6.088,6.1411,6.1503,6.1791,6.2374,6.2849,6.3078,6.3078,6.3416,6.36,6.36,6.36,6.36,6.36,6.36,6.36,4.7362,4.6813,4.6872,4.9096,4.771,4.6337,4.8488,4.5792,4.2395,4.0697,3.8092,3.6133,3.6128,3.7233,3.9192,4.2426,4.5228,4.6284,4.4213,4.8778,5.1427,4.9044,5.1033,5.4088,5.7917,5.6102,5.6471,6.0791,6.0141,5.9889,6.0721,6.0555,6.0652,6.1148,6.0133,5.9369,5.8899,5.7445,5.7395,5.8701,5.8701,5.9479,6.092,6.092,6.0618,6.0171,6.0817,6.0734,6.0187,6.0854,6.1102,6.1102,6.1102,6.1102,6.1144,6.1461,6.1628,6.175,6.2093,6.2195,6.2175,6.2096,6.1854,6.1665,6.1994,6.2093,6.2093,6.2093,6.2093,6.2093,6.2093,6.2093,6.2178,6.2506,6.2568,6.2648,6.2943,6.2741,6.2514,6.2514,6.221,6.1941,6.1941,6.2026,6.2127,6.2127,6.2209,6.2447,6.283,6.2591,6.2419,6.2512,6.2816,6.3002,6.3002,6.3002,6.2904,6.2702,6.3004,6.3074,6.2906,6.3285,6.3507,6.3507,6.3546,6.36,6.36,6.36,6.36,6.36,6.36,6.36,4.6473,4.6285,4.7111,4.9334,4.8465,4.6703,4.5324,4.2881,3.9671,3.5237,3.2999,3.1942,3.2157,3.3096,3.5435,4.0353,4.3411,4.5465,4.6296,4.9628,5.1772,5.1226,5.2076,5.3579,5.5805,5.4628,5.5085,5.8314,5.8308,5.9243,6.1719,6.1567,6.1297,6.1119,5.9763,5.9,5.8899,5.7445,5.7445,5.8899,5.8899,5.9678,6.1102,6.1102,6.1102,6.1102,6.1102,6.0282,5.9033,6.0494,6.0249,5.9066,6.0527,6.1102,6.1123,6.1314,6.1648,6.2034,6.2234,6.2467,6.2717,6.291,6.2545,6.2053,6.2234,6.2293,6.2293,6.2293,6.2293,6.2293,6.2293,6.2293,6.2411,6.2887,6.3153,6.3377,6.3563,6.3452,6.3304,6.3304,6.3136,6.2985,6.2985,6.2985,6.2985,6.2985,6.2985,6.3061,6.3285,6.3304,6.3304,6.3304,6.3471,6.36,6.36,6.36,6.3526,6.3322,6.349,6.3509,6.3322,6.3507,6.36,6.36,6.36,6.36,6.36,6.36,6.36,6.36,6.36,6.36,4.6121,4.6346,4.7355,4.9157,4.8861,4.6951,4.2379,4.0086,3.7143,3.0942,2.9081,2.8796,2.9519,3.046,3.3048,3.8871,4.1428,4.4237,4.8767,5.013,5.1511,5.3842,5.3441,5.3609,5.5171,5.4575,5.5059,5.7424,5.7409,5.8648,6.1766,6.1672,6.1441,6.1231,5.9803,5.9023,5.904,5.7523,5.7457,5.879,5.8767,5.949,6.0933,6.087,6.0953,6.1102,6.1102,5.951,5.7122,5.9954,5.9444,5.7188,6.0,6.1102,6.1102,6.1206,6.1645,6.2195,6.2389,6.2697,6.3076,6.347,6.308,6.2467,6.2547,6.2567,6.2567,6.2567,6.2567,6.2567,6.2567,6.2567,6.268,6.304,6.336,6.36,6.36,6.36,6.36,6.36,6.36,6.36,6.36,6.36,6.36,6.36,6.36,6.36,6.36,6.36,6.36,6.36,6.36,6.36,6.36,6.36,6.36,6.36,6.36,6.36,6.36,6.36,6.36,6.36,6.36,6.36,6.36,6.36,6.36,6.36,6.36,6.36,4.6605,4.6541,4.644,4.82,4.7785,4.6455,4.457,4.0897,3.689,3.3273,2.999,2.8753,3.186,3.3403,3.5581,3.9816,4.0045,4.1517,4.6738,4.7546,4.9224,5.3591,5.3441,5.4652,5.8881,5.6899,5.7141,6.1513,6.1815,6.1773,6.1733,6.1874,6.1854,6.1648,6.0193,5.9424,5.9438,5.7813,5.748,5.8454,5.8261,5.8946,6.0357,6.019,6.0473,6.1102,6.1102,5.951,5.7122,5.9954,5.9444,5.7188,6.0,6.1102,6.1144,6.1502,6.1689,6.187,6.2676,6.2964,6.3076,6.347,6.3304,6.3002,6.336,6.3471,6.3471,6.3471,6.3471,6.3471,6.3471,6.3471,6.349,6.3527,6.3564,6.36,6.36,6.36,6.36,6.36,6.36,6.36,6.36,6.36,6.36,6.36,6.36,6.36,6.36,6.36,6.36,6.36,6.36,6.36,6.36,6.36,6.36,6.36,6.36,6.36,6.36,6.36,6.36,6.36,6.36,6.36,6.36,6.36,6.36,6.36,6.36,6.36,4.2912,4.4549,4.6777,4.8158,4.7939,4.6356,4.2385,3.9566,3.6169,3.0406,2.8114,2.7591,2.8988,2.9713,3.1451,3.5648,3.6518,3.9609,4.8068,4.9211,5.1312,5.7037,5.6947,5.6456,5.6547,5.5504,5.5979,5.87,5.8903,5.9844,6.2009,6.2034,6.1897,6.1709,6.0688,5.9951,5.9497,5.8401,5.8033,5.8411,5.82,5.8636,5.9631,5.9431,5.9744,6.044,6.044,5.8143,5.4777,5.9265,5.8458,5.4895,5.9488,6.121,6.1123,6.142,6.1733,6.2113,6.2447,6.2928,6.3396,6.3563,6.349,6.3378,6.3563,6.36,6.36,6.36,6.36,6.36,6.36,6.36,6.36,6.36,6.36,6.36,6.36,6.36,6.36,6.36,6.36,6.36,6.36,6.36,6.36,6.36,6.36,6.36,6.36,6.36,6.36,6.36,6.36,6.36,6.36,6.36,6.36,6.36,6.36,6.36,6.36,6.36,6.36,6.36,6.36,6.36,6.36,6.36,6.36,6.36,6.36,6.36,4.0543,4.3488,4.7022,4.7794,4.7191,4.5118,4.0204,3.7532,3.4318,2.8104,2.6645,2.6501,2.6611,2.6883,2.8514,3.2865,3.4542,3.8506,4.7655,4.8945,5.1229,5.735,5.7311,5.6599,5.6131,5.6503,5.7195,5.8243,5.831,5.9496,6.2245,6.2209,6.2053,6.1907,6.1129,6.0371,5.9691,5.8895,5.8389,5.8171,5.7962,5.7916,5.7994,5.8389,5.8638,5.881,5.9417,5.7282,5.3764,5.8505,5.7781,5.4197,5.9079,6.1073,6.121,6.1404,6.1793,6.2234,6.2447,6.2908,6.3434,6.3546,6.36,6.36,6.36,6.36,6.36,6.36,6.36,6.36,6.36,6.36,6.36,6.36,6.36,6.36,6.36,6.3465,6.3329,6.3329,6.321,6.3142,6.3312,6.3329,6.3397,6.3584,6.36,6.36,6.36,6.36,6.36,6.36,6.36,6.36,6.36,6.36,6.36,6.36,6.36,6.36,6.36,6.36,6.36,6.36,6.3544,6.3507,6.3507,6.3452,6.3416,6.3416,6.3416,6.3453,4.0834,4.4128,4.6905,4.683,4.4968,4.2264,3.8878,3.4978,3.1074,2.7614,2.6271,2.5772,2.5972,2.6601,2.8553,3.2973,3.5143,3.8341,4.4238,4.5237,4.7364,5.2724,5.2724,5.4311,5.9537,6.1417,6.2313,6.233,6.233,6.2367,6.24,6.24,6.2381,6.2381,6.1475,6.0697,6.0114,5.9163,5.8328,5.7604,5.7402,5.6534,5.5209,5.7003,5.7141,5.6046,5.8048,5.734,5.5,5.7785,5.7722,5.6146,5.8926,6.0584,6.1404,6.1628,6.1834,6.2096,6.2755,6.2983,6.3059,6.347,6.36,6.36,6.36,6.36,6.36,6.36,6.36,6.36,6.36,6.36,6.36,6.36,6.36,6.36,6.36,6.3142,6.2714,6.2714,6.2283,6.2092,6.261,6.2714,6.2902,6.3516,6.36,6.36,6.36,6.36,6.36,6.36,6.36,6.36,6.36,6.36,6.36,6.36,6.36,6.36,6.36,6.36,6.36,6.36,6.3396,6.3302,6.3302,6.3095,6.3019,6.3019,6.3019,6.3114,3.4942,3.7191,3.922,3.9985,3.8858,3.6928,3.4489,3.2326,2.9923,2.6746,2.5947,2.5881,2.5974,2.7088,2.9301,3.3322,3.5273,3.9313,4.7968,4.9533,5.1833,5.73,5.8232,5.9079,6.0757,5.9413,5.9548,6.2195,5.9937,5.9599,6.2245,6.24,6.24,6.24,6.2102,6.1612,6.0926,5.9939,5.9161,5.8548,5.7693,5.6342,5.4603,5.6431,5.6478,5.5247,5.7271,5.6876,5.4998,5.7785,5.7423,5.5449,5.8321,5.9721,6.014,6.048,6.0903,6.1354,6.1556,6.2139,6.2806,6.2842,6.3186,6.36,6.36,6.36,6.36,6.36,6.36,6.36,6.36,6.36,6.36,6.36,6.3277,6.2988,6.2988,6.2542,6.2144,6.2144,6.2023,6.1901,6.1935,6.1952,6.1985,6.2032,6.2496,6.2859,6.2859,6.3289,6.36,6.36,6.36,6.36,6.36,6.36,6.36,6.36,6.36,6.36,6.36,6.36,6.3544,6.3396,6.3338,6.3227,6.3095,6.3038,6.2983,6.3002,6.3133,6.3321,3.09,3.3563,3.5658,3.6274,3.5075,3.3352,3.183,2.9945,2.798,2.6085,2.6946,2.7628,2.6255,2.8496,3.086,3.1807,3.5611,4.029,4.5599,4.817,5.1075,5.5341,5.7811,5.9742,6.1163,5.9768,5.9785,6.2212,6.0159,5.9853,6.2262,6.24,6.24,6.24,6.24,6.2042,6.1315,6.0389,5.9572,5.8867,5.7902,5.6281,5.4251,5.6137,5.6054,5.4501,5.6508,5.6672,0.0,5.7348,5.7219,5.6122,5.8047,5.9028,5.9438,5.9907,6.034,6.0674,6.0929,6.1456,6.205,6.2048,6.2358,6.272,6.272,6.3134,6.36,6.36,6.36,6.36,6.36,6.3431,6.3261,6.3261,6.2817,6.2404,6.2404,6.1953,6.1551,6.1551,6.1307,6.1151,6.1241,6.1224,6.1207,6.1289,6.1934,6.2334,6.2084,6.2874,6.3258,6.2775,6.3215,6.3425,6.3205,6.3427,6.36,6.36,6.3526,6.3489,6.3489,6.3397,6.3304,6.3189,6.3095,6.3,6.2885,6.2808,6.2947,6.3271,6.3475,6.3806,0.0,3.2207,3.4844,3.4594,3.29,3.1096,3.0399,2.7835,0.0,2.5932,2.8983,3.0492,2.6892,3.0763,3.3234,2.938,3.6257,4.1369,3.9295,4.3183,4.6911,4.8731,5.323,5.7441,6.0653,6.1839,6.24,6.24,6.24,6.24,6.24,6.24,6.24,6.24,6.24,6.2059,6.1383,6.0501,5.9561,5.8566,5.7891,5.6233,5.384,5.6014,5.5788,5.3802,5.5828,5.6699,5.6699,5.6699,5.7094,5.7727,5.7942,5.8436,5.915,5.9736,5.9983,6.0097,6.0651,6.0901,6.1006,6.1235,6.1306,6.1306,6.1306,6.2289,6.3427,6.3427,6.3427,6.3427,6.3427,6.302,6.2627,6.2627,6.2214,6.1848,6.1848,6.1357,6.0948,6.0948,6.0319,5.9958,6.0542,6.0513,6.0584,6.1048,6.1709,6.1931,6.1308,6.2347,6.2673,6.1501,6.2578,6.3135,6.2573,6.3189,6.3581,6.3581,6.3377,6.3282,6.3282,6.3095,6.2983,6.2981,6.277,6.2671,6.2671,6.2445,6.2749,6.3524,6.3742,6.4235,2.3663,0.0,2.7119,2.7051,2.703,2.6993,0.0,2.6167,2.6195,2.832,3.0279,3.0953,2.8833,3.3921,3.7081,3.2908,3.8198,4.3099,4.3906,4.938,5.2589,5.0719,5.6609,5.9992,5.7922,6.0547,6.24,6.24,6.24,6.24,6.24,6.24,6.24,6.24,6.24,6.2333,6.2127,6.062,5.8999,5.7251,5.7329,5.5355,5.1749,5.5369,5.5788,5.3802,5.5828,5.6699,5.6699,5.6699,5.6799,5.6984,5.7177,5.7449,5.7827,5.8424,5.8914,5.9286,5.9426,6.003,6.0826,6.1187,6.1306,6.1306,6.1306,6.1548,6.1841,6.1841,6.1841,6.1841,6.1841,6.1863,6.1865,6.1865,6.1536,6.1215,6.1215,6.0752,6.0306,6.0306,6.0033,5.9817,5.9846,5.9697,5.958,5.9547,6.0203,6.0636,6.0479,6.1668,6.2401,6.2103,6.2675,6.3041,6.2895,6.3186,6.3358,6.3358,6.3189,6.3076,6.3076,6.3038,6.2923,6.277,6.2557,6.2459,6.2459,6.1859,6.1651,6.1868,6.2121,6.2074,2.1428,2.2483,2.3982,2.5895,2.555,2.5217,2.7063,2.6293,2.6148,2.9545,3.0856,3.1145,3.0427,3.4011,3.6355,3.4212,3.7657,4.2051,4.6148,5.0406,5.2622,5.1239,5.4734,5.7101,5.6726,6.0144,6.24,6.24,6.24,6.24,6.24,6.24,6.24,6.24,6.24,6.24,6.24,6.0762,5.8869,5.6816,5.7343,5.5732,5.2437,5.5751,5.6469,5.509,5.5347,5.5939,5.6633,5.5698,5.5861,5.6719,5.693,5.7006,5.7101,5.7808,5.8189,5.8403,5.8788,5.9357,5.996,6.0168,6.0254,6.0254,6.0254,6.0254,6.0392,6.1099,6.1306,6.1306,6.1306,6.1241,6.119,6.119,6.1085,6.0989,6.091,6.0916,6.0915,6.0858,6.0671,6.0501,6.0443,6.0207,6.0,5.9886,6.0493,6.0778,6.0176,6.1274,6.1742,6.0786,6.1499,6.2003,6.1904,6.2249,6.2813,6.3571,6.3777,6.3861,6.3861,6.377,6.3531,6.308,6.2643,6.2225,6.189,6.1225,6.1254,6.1932,6.1866,6.2015,2.0573,2.1318,2.32,2.731,2.5954,2.4671,2.8672,2.7021,2.5952,3.0536,3.1832,3.2169,3.2303,3.4673,3.6153,3.4681,3.7057,4.1133,4.7031,4.9747,5.1133,5.1168,5.2199,5.3923,5.651,6.0182,6.24,6.24,6.24,6.24,6.24,6.24,6.24,6.24,6.2299,6.2229,6.2229,6.0808,5.893,5.6647,5.7457,5.6516,5.4144,5.6469,5.7271,5.6696,5.5167,5.5364,5.6663,5.495,5.5247,5.6815,5.7006,5.6968,5.6891,5.7662,5.7845,5.7845,5.8613,5.8927,5.8995,5.8995,5.8995,5.8995,5.8995,5.8995,5.9271,6.0582,6.0961,6.0962,6.1085,6.0877,6.0693,6.0775,6.0985,6.1107,6.0992,6.1451,6.1869,6.1745,6.1574,6.1411,6.1401,6.1135,6.0926,6.0912,6.1368,6.1329,6.0254,6.113,6.1156,5.9401,6.0339,6.1032,6.0868,6.1405,6.2374,6.3779,6.4263,6.4487,6.4487,6.444,6.4061,6.3315,6.2694,6.2058,6.1457,6.0826,6.1207,6.2489,6.2111,6.2586,2.0316,2.0764,2.2312,2.6191,2.5192,2.4296,2.8131,2.6646,2.629,3.277,3.5583,3.6584,3.5748,4.3183,4.6215,3.6266,4.0692,4.5949,4.7514,5.2369,5.4582,5.1409,5.6727,5.9603,5.6892,6.0125,6.24,6.24,6.24,6.24,6.24,6.24,6.24,6.24,6.1789,6.1467,6.1467,6.0554,5.8676,5.5885,5.7076,5.6445,5.4321,5.6395,5.7289,5.7197,5.6919,5.6953,5.7181,5.6865,5.6932,5.7233,5.7439,5.7383,5.7289,5.7918,5.8207,5.8369,5.8995,5.9132,5.8995,5.8995,5.8995,5.8995,5.8995,5.8995,5.9047,5.9288,5.934,5.9495,6.0063,6.0362,6.0665,6.1159,6.1537,6.1759,6.1732,6.1814,6.1897,6.1869,6.1709,6.1534,6.1429,6.1221,6.1026,6.0926,6.0888,6.0817,6.0605,6.1163,6.1444,6.1122,6.1637,6.1994,6.1962,6.2561,6.3041,6.3314,6.2876,6.26,6.26,6.325,6.3217,6.2434,6.2294,6.2156,6.2072,6.147,6.128,6.1536,6.1632,6.1504,1.9909,2.0026,2.18,2.8183,2.6537,2.5371,3.3051,2.9776,2.7614,3.6496,3.4809,3.2956,3.6972,4.0369,4.2019,4.0323,4.7228,5.2469,5.1559,5.4194,5.5681,5.4294,5.7236,5.8675,5.6879,6.0163,6.24,6.24,6.24,6.24,6.24,6.2009,6.1806,6.1806,6.1061,6.0469,6.0045,5.9691,5.8218,5.5716,5.7098,5.6552,5.439,5.6596,5.7514,5.7241,5.6271,5.6403,5.7208,5.6127,5.631,5.7308,5.7402,5.7383,5.7383,5.7989,5.8384,5.8684,5.903,5.9064,5.8995,5.8995,5.8995,5.8995,5.8995,5.8995,5.9081,5.9433,5.9549,5.9615,5.9923,6.0439,6.0968,6.1315,6.1819,6.2214,6.2214,6.253,6.2787,6.2725,6.2644,6.2512,6.2292,6.2134,6.1942,6.1741,6.1662,6.1493,6.1163,6.1358,6.1311,6.0849,6.098,6.1232,6.1529,6.1896,6.2604,6.378,6.3555,6.3403,6.3403,6.3742,6.3574,6.2822,6.2395,6.204,6.1714,6.1132,6.1071,6.1459,6.1292,6.1279,1.9521,1.9605,2.1645,2.9126,2.6904,2.5888,3.7375,3.2556,2.8739,3.9627,3.5457,3.2092,3.9401,3.8398,3.85,4.4702,5.1864,5.642,5.5716,5.6427,5.7288,5.8017,5.8118,5.8118,5.8118,6.0706,6.24,6.24,6.2248,6.2127,6.2127,6.1434,6.1028,6.1028,6.025,5.9573,5.8996,5.8827,5.788,5.6223,5.7357,5.693,5.5201,5.7066,5.7735,5.7357,5.5965,5.6165,5.7323,5.577,5.6055,5.7439,5.7495,5.7569,5.7698,5.817,5.8561,5.8858,5.8961,5.8995,5.8995,5.8995,5.8995,5.8995,5.8995,5.9098,5.9333,5.9858,6.0205,6.0439,6.0439,6.0939,6.1457,6.1709,6.224,6.2657,6.2657,6.3116,6.3477,6.3377,6.3354,6.3265,6.3039,6.2892,6.2705,6.2475,6.2389,6.2185,6.1716,6.1632,6.1372,6.0696,6.062,6.0804,6.1239,6.1383,6.2147,6.3828,6.4086,6.4072,6.389,6.4044,6.3751,6.3021,6.2442,6.1923,6.1475,6.1119,6.1228,6.1774,6.1478,6.1622,1.9172,1.9933,2.1943,2.6292,2.4216,2.4502,3.7566,3.276,2.8888,4.0794,4.1404,4.1099,4.5423,4.4415,4.4263,4.8292,5.121,5.4308,5.8163,5.9943,6.118,6.1927,6.2011,6.2011,6.2011,6.2248,6.24,6.24,6.1772,6.1383,6.1383,6.0622,6.0182,6.0182,5.947,5.9047,5.8996,5.8321,5.79,5.7747,5.7849,5.7797,5.7662,5.7814,5.7881,5.7863,5.7712,5.7746,5.7863,5.7694,5.7728,5.7863,5.8062,5.8349,5.8701,5.8736,5.884,5.8978,5.8995,5.8995,5.8995,5.8995,5.8995,5.8995,5.8995,5.9433,5.9939,5.9987,6.0846,6.1755,6.1755,6.191,6.2179,6.2743,6.3026,6.3153,6.3153,6.3201,6.3225,6.3213,6.3213,6.3177,6.3026,6.2892,6.2743,6.2603,6.237,6.2203,6.2163,6.2046,6.1937,6.1882,6.1882,6.1932,6.2091,6.2118,6.224,6.2526,6.3116,6.3153,6.239,6.2957,6.2915,6.2104,6.2031,6.1981,6.1954,6.2168,6.2291,6.2344,6.2547,6.2692,1.9125,2.0074,2.26,2.8763,2.6555,2.6147,3.8632,3.5558,3.3407,4.5098,4.2178,3.8248,4.0689,4.5175,4.8977,5.0375,5.3574,5.6616,5.8707,5.9487,6.0334,6.1569,6.1721,6.189,6.2367,6.1975,6.1721,6.1721,6.0994,6.0554,6.0554,5.9844,5.9419,5.9419,5.871,5.8321,5.8321,5.8034,5.79,5.79,5.79,5.79,5.79,5.79,5.79,5.79,5.79,5.79,5.79,5.8044,5.8098,5.8116,5.8295,5.849,5.8631,5.8753,5.8823,5.8892,5.8961,5.8995,5.8995,5.8995,5.9284,5.9614,5.9614,6.0063,6.0648,6.1068,6.1475,6.1787,6.1883,6.221,6.2605,6.2941,6.3039,6.3099,6.3189,6.3201,6.3201,6.3201,6.3201,6.3099,6.2805,6.2717,6.2578,6.227,6.2154,6.2073,6.2073,6.2019,6.201,6.201,6.2073,6.2177,6.231,6.2397,6.25,6.2647,6.2728,6.2593,6.2222,6.244,6.2409,6.201,6.201,6.2033,6.2109,6.223,6.2323,6.2402,6.2578,6.2679,1.9157,2.0211,2.2829,2.9258,2.7695,2.7809,4.007,3.7849,3.6159,4.6562,4.4885,4.1497,4.1381,4.6897,5.1459,5.1441,5.4129,5.6889,5.8741,5.8996,5.947,6.0774,6.0926,6.1129,6.162,6.1214,6.0926,6.0926,6.0199,5.9759,5.9759,5.9066,5.866,5.866,5.8152,5.79,5.79,5.79,5.79,5.79,5.79,5.79,5.79,5.79,5.79,5.79,5.79,5.7953,5.8007,5.8152,5.826,5.8384,5.8543,5.8631,5.8666,5.8806,5.8858,5.8875,5.8978,5.8995,5.903,5.925,5.9663,6.0079,6.0253,6.0781,6.1421,6.1741,6.1942,6.205,6.2068,6.2365,6.2723,6.2842,6.2861,6.2917,6.3039,6.3081,6.3081,6.3081,6.3081,6.2996,6.2705,6.259,6.2449,6.2217,6.2073,6.2023,6.206,6.206,6.2073,6.2128,6.2203,6.2323,6.2454,6.2552,6.2654,6.278,6.2634,6.248,6.2331,6.2296,6.2217,6.2128,6.2128,6.2181,6.227,6.2323,6.237,6.248,6.2603,6.2667,1.9346,2.041,2.2509,2.6676,2.6734,2.9067,4.1718,3.9075,3.6236,4.4267,5.0523,5.3466,4.9925,5.0476,5.1457,5.151,5.2142,5.4139,5.8381,5.8979,5.925,5.9996,6.008,6.0097,6.0097,6.0097,6.008,6.008,5.9421,5.8979,5.8979,5.8287,5.79,5.79,5.79,5.79,5.79,5.79,5.79,5.79,5.79,5.79,5.79,5.79,5.79,5.79,5.79,5.8009,5.8206,5.8206,5.8437,5.8805,5.8788,5.8875,5.8978,5.8978,5.8978,5.8978,5.8978,5.8978,5.908,5.976,6.006,6.0275,6.0745,6.154,6.2204,6.1792,6.2205,6.2712,6.2462,6.2402,6.2423,6.2565,6.2603,6.2641,6.2768,6.2793,6.2793,6.2793,6.2793,6.2793,6.2793,6.2583,6.2454,6.2578,6.2257,6.2046,6.219,6.2203,6.2257,6.2389,6.2402,6.2467,6.259,6.2603,6.2667,6.278,6.2793,6.273,6.2603,6.2462,6.2402,6.2402,6.2402,6.2402,6.2402,6.2526,6.2603,6.2603,6.273,6.2793,2.3242,2.3153,2.3102,2.7132,2.9452,3.1699,3.5247,3.7393,4.0451,4.6953,5.0092,5.071,4.7688,5.1961,5.5161,5.2679,5.4549,5.6771,5.8049,5.822,5.849,5.9252,5.9317,5.9539,6.0047,5.9641,5.9317,5.9317,5.8643,5.822,5.822,5.8017,5.79,5.79,5.79,5.79,5.79,5.79,5.79,5.79,5.79,5.79,5.79,5.79,5.79,5.79,5.79,5.7936,5.8007,5.8295,5.8561,5.8754,5.8324,5.8186,5.8167,5.765,5.746,5.746,5.746,5.746,5.7559,5.8242,5.8804,5.9345,5.9935,6.0648,6.1195,6.0988,6.1013,6.1172,6.1476,6.1485,6.1618,6.2411,6.2667,6.2743,6.278,6.2793,6.2793,6.2793,6.2793,6.2768,6.2679,6.259,6.2513,6.248,6.2283,6.215,6.219,6.2283,6.2362,6.2402,6.2475,6.2552,6.2603,6.2692,6.2755,6.2811,6.2793,6.273,6.2603,6.2565,6.2506,6.2402,6.2402,6.2402,6.2402,6.2441,6.2467,6.2449,6.259,6.2146,2.5564,2.5602,2.6219,3.2489,3.3813,3.406,3.6109,3.9107,4.3371,5.0025,5.2235,5.2417,5.0723,5.4502,5.7199,5.5056,5.65,5.79,5.79,5.79,5.8051,5.8507,5.8558,5.8744,5.9184,5.8812,5.8558,5.8558,5.8152,5.79,5.79,5.79,5.79,5.79,5.79,5.79,5.79,5.79,5.79,5.79,5.7594,5.7459,5.7459,5.7781,5.79,5.7883,5.7723,5.7658,5.7659,5.7791,5.7913,5.7963,5.76,5.746,5.7409,5.696,5.6805,5.6805,5.6805,5.6966,5.7297,5.798,5.8683,5.9368,5.9949,6.0471,6.0824,6.0508,6.0413,6.0439,6.0673,6.0462,6.059,6.2159,6.2578,6.2672,6.2786,6.2793,6.2793,6.2793,6.2793,6.2768,6.2692,6.2641,6.259,6.257,6.2436,6.2357,6.2357,6.2423,6.2506,6.2557,6.2629,6.2679,6.2679,6.2743,6.2793,6.2793,6.2793,6.2755,6.2679,6.2679,6.2641,6.257,6.257,6.257,6.257,6.257,6.257,6.2557,6.2404,6.1876,2.7099,2.7933,3.0534,3.9596,3.8199,3.6213,4.2449,4.3622,4.5546,5.3146,5.5563,5.6441,5.6833,5.7442,5.79,5.79,5.79,5.7883,5.7815,5.7797,5.7781,5.7695,5.7714,5.7714,5.7714,5.7714,5.7714,5.7714,5.7714,5.7714,5.7714,5.7714,5.7714,5.7714,5.7714,5.7714,5.7714,5.7679,5.766,5.766,5.6983,5.6644,5.6713,5.7391,5.7714,5.7716,5.7342,5.7209,5.7192,5.6897,5.6772,5.6771,5.6719,5.6684,5.6684,5.6615,5.663,5.6695,5.6695,5.7135,5.7792,5.849,5.9195,5.9847,6.0281,6.0561,6.0659,6.0157,6.0054,6.0059,5.9851,5.9292,5.9317,6.1474,6.199,6.2068,6.2321,6.2352,6.2389,6.2462,6.2536,6.2609,6.2683,6.265,6.2654,6.2773,6.2692,6.2616,6.2603,6.2616,6.2667,6.2798,6.2793,6.2793,6.2793,6.2793,6.2793,6.2793,6.2793,6.2793,6.2793,6.2793,6.2793,6.2793,6.2793,6.2793,6.2793,6.2793,6.2793,6.2798,6.2184,6.1833,3.1088,3.0908,3.0402,3.372,3.4915,3.808,4.8772,4.9507,4.9343,5.4411,5.3952,5.3678,5.7031,5.7798,5.79,5.79,5.79,5.7714,5.712,5.7036,5.6816,5.624,5.6172,5.6172,5.6172,5.6172,5.6172,5.6172,5.6172,5.6172,5.6172,5.6172,5.6172,5.6172,5.6172,5.6172,5.6172,5.6014,5.5926,5.5926,5.5613,5.5564,5.5707,5.6035,5.6261,5.6419,5.644,5.644,5.644,5.6523,5.6555,5.652,5.605,5.5858,5.5789,5.5219,5.5351,5.5861,5.5861,5.6287,5.6967,5.77,5.7966,5.8153,5.877,5.8958,5.891,5.869,5.8203,5.7808,5.8176,5.769,5.7402,5.8519,5.8877,5.8954,5.9013,5.9024,5.9226,5.9857,6.0481,6.1117,6.1741,6.2358,6.273,6.2654,6.2705,6.2717,6.2616,6.2692,6.2768,6.2811,6.2793,6.2793,6.2793,6.2793,6.2793,6.2793,6.2793,6.2793,6.2793,6.2793,6.2793,6.2793,6.2793,6.2793,6.2793,6.2793,6.2793,6.2798,6.2184,6.1301,2.9956,3.148,3.3192,3.7726,4.1222,4.4857,4.9838,5.1413,5.2472,5.4717,5.4561,5.4726,5.6966,5.7645,5.79,5.79,5.79,5.7781,5.7374,5.7019,5.6664,5.6257,5.5902,5.5699,5.5699,5.5699,5.5699,5.5699,5.5699,5.5699,5.5699,5.5699,5.5699,5.5699,5.5612,5.5594,5.5699,5.54,5.5294,5.5401,5.4835,5.4536,5.4462,5.5413,5.5943,5.6099,5.5893,5.5823,5.5806,5.5627,5.5538,5.5504,5.5205,5.5065,5.503,5.4634,5.4743,5.5074,5.5074,5.5691,5.657,5.6955,5.7455,5.7976,5.8261,5.8342,5.8282,5.8141,5.7518,5.697,5.7256,5.6434,5.5657,5.6067,5.7068,5.7916,5.7985,5.7997,5.8125,5.8535,5.8969,5.9373,5.9795,6.0536,6.1043,6.0982,6.1361,6.163,6.1569,6.1618,6.1655,6.1655,6.1655,6.1655,6.1655,6.1655,6.1655,6.1655,6.1655,6.1655,6.1655,6.1655,6.182,6.2218,6.2236,6.1997,6.1569,6.1569,6.1364,6.102,6.0375,5.9577,2.7404,3.1324,3.67,4.3994,4.7996,4.9932,4.9088,5.1194,5.3518,5.4262,5.5581,5.6613,5.6613,5.7205,5.7695,5.7695,5.7832,5.7866,5.7729,5.7171,5.6748,5.663,5.5953,5.5513,5.5513,5.5395,5.5327,5.5327,5.5327,5.5327,5.5327,5.5327,5.5327,5.5327,5.5153,5.5153,5.5327,5.4924,5.4801,5.4961,5.4145,5.3595,5.3349,5.4838,5.5638,5.5825,5.5409,5.5233,5.5215,5.4707,5.4496,5.4496,5.4496,5.4496,5.4496,5.4496,5.4573,5.4681,5.4681,5.5522,5.6588,5.6588,5.7395,5.8349,5.8231,5.8186,5.8133,5.8031,5.7428,5.6774,5.6627,5.55,5.4363,5.4234,5.5632,5.704,5.7148,5.7171,5.7207,5.7354,5.7593,5.7831,5.7978,5.8535,5.8994,5.8994,5.9673,6.0187,6.0187,6.0297,6.0401,6.0401,6.0401,6.0401,6.0401,6.0401,6.0401,6.0401,6.0401,6.0401,6.0401,6.0401,6.0591,6.1013,6.1257,6.0921,6.0046,6.0065,5.9763,5.9182,5.8391,5.7847,2.7503,3.2308,3.8376,4.3791,4.3293,4.3267,5.0183,4.9901,4.9234,5.2893,5.482,5.5851,5.5851,5.6461,5.6951,5.6951,5.7476,5.7697,5.7036,5.6867,5.6562,5.5919,5.5192,5.4753,5.4753,5.4177,5.3788,5.3788,5.3788,5.3788,5.3788,5.3788,5.3788,5.3788,5.3771,5.3771,5.3788,5.3378,5.3222,5.3239,5.2929,5.2847,5.2972,5.3397,5.3889,5.4466,5.4574,5.4619,5.4602,5.453,5.4496,5.4496,5.4496,5.4496,5.4496,5.4496,5.4894,5.5455,5.5455,5.6277,5.7358,5.7358,5.7749,5.8219,5.8208,5.8129,5.802,5.8008,5.7428,5.6638,5.5952,5.5089,5.4216,5.3526,5.3589,5.3817,5.3838,5.3838,5.404,5.4748,5.6014,5.7178,5.7886,5.8088,5.8162,5.8162,5.8847,5.9361,5.9361,5.9967,6.0401,6.0401,6.0401,6.0401,6.0401,6.0401,6.0401,6.0401,6.0401,6.0401,6.0401,6.0401,5.9883,5.876,5.9815,6.0075,5.9417,5.949,5.9508,5.949,5.831,5.7713,2.984,3.2357,3.5636,4.5425,4.3689,4.1805,5.035,4.96,4.8304,5.2606,5.4025,5.4583,5.5006,5.57,5.6172,5.6172,5.6799,5.7171,5.685,5.6799,5.6681,5.6341,5.5683,5.5226,5.5226,5.4549,5.411,5.411,5.3737,5.3501,5.3501,5.3501,5.3501,5.3501,5.3382,5.3332,5.3332,5.2921,5.2693,5.2605,5.2517,5.264,5.2903,5.3196,5.36,5.4094,5.4175,5.4337,5.4496,5.4496,5.4496,5.4496,5.4496,5.4496,5.4496,5.4496,5.4712,5.4985,5.4985,5.5798,5.683,5.683,5.7395,5.8095,5.8095,5.8042,5.7997,5.7997,5.7428,5.6719,5.6363,5.5666,5.4858,5.4069,5.3867,5.3757,5.3306,5.3196,5.3306,5.3654,5.4297,5.4902,5.5251,5.5684,5.5978,5.5978,5.6675,5.7354,5.7802,5.815,5.8565,5.9006,5.9061,5.9061,5.9061,5.9061,5.9061,5.9061,5.9061,5.9061,5.9061,5.9061,5.8397,5.7039,5.8402,5.8606,5.7504,5.754,5.7342,5.6954,5.64,5.5945,3.0156,3.1154,3.2462,4.3773,4.203,3.9581,4.7271,4.6992,4.6401,5.0908,5.2572,5.3433,5.4177,5.4921,5.5411,5.5411,5.6055,5.6528,5.6528,5.6528,5.6596,5.6782,5.6139,5.5767,5.5953,5.531,5.4871,5.4871,5.438,5.4076,5.4076,5.389,5.3788,5.3788,5.3399,5.3196,5.3196,5.2799,5.2535,5.2391,5.2391,5.2587,5.2903,5.3162,5.3533,5.3997,5.4078,5.4273,5.4496,5.4496,5.4496,5.4496,5.4496,5.4496,5.4496,5.4496,5.4496,5.4527,5.4683,5.5414,5.6317,5.6465,5.7184,5.7997,5.7997,5.7997,5.7997,5.7997,5.7574,5.7049,5.6847,5.6345,5.5702,5.4895,5.4693,5.4436,5.3416,5.3196,5.3196,5.3196,5.3196,5.3196,5.3196,5.3691,5.4106,5.4106,5.4785,5.55,5.6113,5.6381,5.6804,5.7611,5.7703,5.7776,5.7978,5.7862,5.7774,5.7774,5.7637,5.7565,5.7565,5.7565,5.7027,5.5862,5.6989,5.7011,5.5851,5.5851,5.5563,5.495,5.4782,5.4458,2.6025,2.8153,3.0327,3.5675,3.4774,3.3892,3.8934,4.0029,4.1371,4.632,5.0018,5.2604,5.3416,5.416,5.4651,5.4651,5.5294,5.5767,5.5767,5.5767,5.602,5.6714,5.6139,5.5969,5.6681,5.6071,5.5631,5.5631,5.5614,5.5581,5.5581,5.4921,5.4532,5.4532,5.3669,5.3196,5.3196,5.2799,5.2535,5.2391,5.2391,5.2587,5.2903,5.2921,5.3332,5.4013,5.4337,5.448,5.4496,5.4496,5.4496,5.4496,5.4496,5.4496,5.4496,5.4496,5.4496,5.4573,5.5149,5.5759,5.6384,5.6881,5.7486,5.7997,5.7997,5.7997,5.7997,5.7997,5.796,5.7758,5.6994,5.6774,5.6528,5.5732,5.5548,5.5108,5.3544,5.3196,5.3196,5.3196,5.3196,5.3196,5.3196,5.3232,5.3269,5.3269,5.3959,5.4473,5.4528,5.5199,5.597,5.6774,5.6866,5.7171,5.7941,5.7474,5.7141,5.7141,5.6678,5.6384,5.6384,5.6384,5.6083,5.5443,5.5508,5.5434,5.5157,5.5224,5.5194,5.5067,5.4506,5.4142,2.5587,2.5569,2.603,3.3739,3.1778,2.9863,3.7116,3.9117,4.0114,4.2374,4.7504,5.0986,4.8999,5.1512,5.389,5.389,5.4515,5.4989,5.4989,5.5395,5.58,5.6054,5.5851,5.58,5.6071,5.5429,5.4989,5.4989,5.2438,5.1883,5.4177,5.1866,5.148,5.3635,5.3381,5.3076,5.2816,5.2588,5.2445,5.2391,5.2605,5.2764,5.2921,5.3399,5.375,5.4013,5.4351,5.4496,5.4496,5.4496,5.4496,5.4496,5.4496,5.4496,5.4496,5.4496,5.4743,5.5106,5.5328,5.6009,5.6861,5.704,5.751,5.7997,5.7997,5.7997,5.7997,5.7997,5.7997,5.7923,5.7648,5.7574,5.7373,5.6565,5.5978,5.5438,5.4869,5.4326,5.3977,5.3977,5.3544,5.3196,5.3196,5.3196,5.3196,5.3196,5.3453,5.382,5.4326,5.4638,5.5133,5.5941,5.6033,5.6012,5.5949,5.6188,5.6169,5.5848,5.6121,5.6303,5.6303,5.6303,5.6013,5.5399,5.5399,5.5179,5.4709,5.4743,5.4743,5.471,5.4477,5.4287,2.3516,2.2863,2.2768,2.9141,2.781,2.6547,3.2713,3.6488,3.8977,3.9933,4.5849,5.0193,4.8063,5.0452,5.2739,5.2739,5.3145,5.345,5.345,5.3873,5.4279,5.4532,5.4549,5.4651,5.4938,5.4515,5.4228,5.4228,5.1597,5.101,5.3382,5.0959,5.0358,5.2202,5.2269,5.2115,5.1803,5.1715,5.1715,5.1837,5.2063,5.2286,5.2505,5.3001,5.3293,5.3405,5.3626,5.4013,5.4496,5.4496,5.4496,5.4496,5.4496,5.4496,5.4527,5.4728,5.5061,5.5458,5.5844,5.6295,5.6742,5.6933,5.7094,5.7189,5.7189,5.7189,5.7244,5.7519,5.7593,5.7666,5.7923,5.7997,5.7868,5.7336,5.6785,5.6411,5.6411,5.5567,5.4803,5.4803,5.4363,5.3922,5.3654,5.3599,5.3508,5.3232,5.3196,5.3379,5.394,5.4014,5.4308,5.5108,5.5199,5.5084,5.4809,5.5049,5.4997,5.4469,5.475,5.4924,5.4924,5.4924,5.4865,5.4737,5.4722,5.465,5.4496,5.4496,5.4464,5.4399,5.4399,5.4303,0.0,0.0,0.0,2.15,2.2622,2.3924,2.5241,3.1558,3.7535,3.8902,4.4903,5.0136,5.0847,5.105,5.1133,5.1133,5.1167,5.1201,5.1201,5.1201,5.1472,5.2181,5.2266,5.257,5.3365,5.3433,5.3433,5.3433,5.3349,5.3315,5.3433,5.2556,5.1548,5.0442,5.0392,5.0324,5.0203,5.0203,5.0374,5.0693,5.071,5.1055,5.171,5.1725,5.1879,5.2203,5.2203,5.3048,5.4427,5.4427,5.446,5.4477,5.4477,5.4478,5.4573,5.5167,5.5402,5.5572,5.6682,5.6542,5.6019,5.6589,5.6235,5.5603,5.5603,5.5603,5.5768,5.6572,5.6792,5.6987,5.7795,5.7997,5.7997,5.7997,5.7997,5.7997,5.7997,5.6778,5.5658,5.564,5.5622,5.5346,5.4564,5.4436,5.4179,5.3379,5.3269,5.3269,5.3269,5.3251,5.3526,5.4326,5.4381,5.4469,5.4689,5.4189,5.3629,5.3089,5.251,5.2203,5.2203,5.2203,5.2565,5.3356,5.3391,5.3753,5.4477,5.4494,5.4399,5.4223,5.4223,5.4143,1.9404,0.0,0.0,0.0,0.0,0.0,2.3969,2.8969,3.3575,3.3972,4.0132,4.5531,4.5748,4.7879,4.961,4.961,5.0491,5.1201,5.1201,5.1201,5.1286,5.1472,5.1505,5.159,5.181,5.1844,5.1844,5.1844,4.9497,4.918,5.1692,5.1362,5.0944,5.0627,5.0375,5.0238,5.0203,5.0203,5.0374,5.0693,5.0958,5.1282,5.171,5.1958,5.2112,5.2203,5.2203,5.2444,5.2841,5.2841,5.3168,5.3701,5.3701,5.4029,5.4527,5.4681,5.5299,5.6008,5.5754,5.6051,5.6493,5.6061,5.5787,5.5603,5.5603,5.5603,5.5768,5.6572,5.6792,5.6987,5.7795,5.7997,5.7997,5.7997,5.7997,5.7997,5.7997,5.7648,5.7152,5.6583,5.5996,5.553,5.531,5.5273,5.5199,5.4979,5.4932,5.4932,5.4932,5.4436,5.4161,5.4381,5.3875,5.3247,5.2538,5.2807,5.2634,5.1712,5.1998,5.2203,5.2203,5.2203,5.2306,5.253,5.3115,5.3494,5.3718,5.4237,5.448,5.4432,5.4432,5.44,0.0,0.0,1.9649,2.0171,0.0,0.0,2.3022,2.849,3.3543,3.4095,4.0454,4.549,4.4047,4.5644,4.7098,4.689,4.7751,4.8874,5.0104,5.0271,5.0271,5.0271,5.0271,5.0271,5.0271,5.0271,5.0271,5.0271,4.8338,4.7979,4.985,4.9756,4.9625,4.9576,4.9377,4.9276,4.9276,4.9276,4.9526,4.9984,5.0193,5.0523,5.1001,5.1182,5.1272,5.1272,5.1272,5.1272,5.1272,5.1272,5.1927,5.2892,5.2892,5.3151,5.3561,5.3819,5.4346,5.4938,5.4724,5.4998,5.5391,5.4928,5.4686,5.4601,5.4601,5.4601,5.4766,5.5574,5.6278,5.6987,5.7795,5.7997,5.7997,5.7997,5.7997,5.7997,5.7997,5.7997,5.785,5.7391,5.6914,5.6503,5.6161,5.6106,5.5989,5.5658,5.5603,5.5603,5.5603,5.5199,5.4895,5.4895,5.4473,5.3756,5.2653,5.2949,5.2726,5.1622,5.1961,5.2203,5.2203,5.2203,5.2358,5.2686,5.3166,5.3546,5.3873,5.4289,5.4496,5.4496,5.4496,5.4496,0.0,0.0,0.0,1.9714,2.0258,0.0,2.2213,2.8403,3.4345,3.5937,4.1879,4.5969,4.3325,4.3238,4.3427,4.3024,4.3422,4.4903,4.8089,4.8803,4.8901,4.8586,4.8803,4.9001,4.9001,4.9001,4.9001,4.9001,4.8931,4.8779,4.8493,4.8461,4.8346,4.8149,4.8117,4.8084,4.8001,4.8033,4.8373,4.9001,4.9032,4.94,5.0011,5.0011,5.0011,5.0011,5.0011,5.0011,5.0011,5.0011,5.0824,5.2082,5.2082,5.2134,5.2246,5.2799,5.3039,5.3176,5.3682,5.3701,5.3519,5.3553,5.3348,5.3114,5.3175,5.3196,5.3379,5.4289,5.5629,5.6987,5.7795,5.7997,5.7997,5.7997,5.7997,5.7997,5.7997,5.7997,5.7997,5.7997,5.7997,5.7776,5.7049,5.6921,5.6693,5.597,5.5879,5.5879,5.5879,5.5742,5.5636,5.5636,5.5488,5.4964,5.389,5.3797,5.3343,5.2278,5.2203,5.2203,5.2203,5.2203,5.253,5.3253,5.327,5.3632,5.4391,5.4461,5.4496,5.4496,5.4496,5.4496,1.9584,1.9968,2.024,1.9809,2.0612,0.0,2.1146,2.3198,2.605,2.9182,3.145,3.3599,3.5841,3.674,3.7082,3.699,3.7965,4.0362,4.5027,4.7593,4.8172,4.5964,4.7659,4.9001,4.9001,4.9001,4.9001,4.9001,4.937,4.9768,5.0175,5.0059,4.9693,4.9061,4.8929,4.8597,4.8017,4.8276,4.8594,4.9001,4.9277,4.9607,5.0011,5.0011,5.0011,5.0011,5.0011,5.0011,5.0011,5.0011,5.0513,5.1306,5.1306,5.1686,5.2218,5.2336,5.2686,5.3074,5.298,5.2962,5.2981,5.321,5.2944,5.2649,5.3071,5.3196,5.3489,5.495,5.6051,5.6987,5.7795,5.7997,5.7997,5.7997,5.7997,5.7997,5.7997,5.7997,5.7997,5.7997,5.7997,5.7941,5.7795,5.7776,5.7703,5.7567,5.7531,5.7531,5.7531,5.6531,5.5831,5.5831,5.4829,5.3903,5.3232,5.3176,5.2897,5.2248,5.2203,5.2203,5.2203,5.2203,5.2272,5.2427,5.2427,5.2823,5.3632,5.4218,5.4496,5.4496,5.4496,5.4496,2.0111,2.0378,2.0611,2.0677,2.1201,0.0,0.0,2.3584,2.6038,2.8486,3.044,3.1814,3.222,3.2763,3.318,3.3242,3.43,3.6153,3.9137,4.349,4.6498,4.69,4.8155,4.9001,4.9001,4.9001,4.9076,4.929,4.9549,4.9923,5.0426,5.0357,5.0141,4.9775,4.9674,4.9458,4.9094,4.9058,4.9229,4.9544,4.9525,4.9683,5.0011,5.0011,5.0011,5.0011,5.0011,5.0011,5.0011,5.0011,5.0235,5.0548,5.0548,5.0772,5.1099,5.1099,5.1457,5.1929,5.1798,5.2126,5.263,5.2758,5.2794,5.2857,5.3132,5.3196,5.3544,5.5144,5.5897,5.6473,5.7685,5.7997,5.7997,5.7997,5.7997,5.7997,5.7997,5.7997,5.7997,5.7997,5.7997,5.7997,5.7997,5.7997,5.7997,5.7997,5.7997,5.7997,5.7997,5.7122,5.6488,5.6488,5.563,5.4809,5.4255,5.4197,5.3952,5.3387,5.3341,5.3341,5.3341,5.3341,5.3168,5.2806,5.2392,5.2392,5.2789,5.3168,5.3548,5.3944,5.4323,5.4496,2.0858,2.0982,2.1176,2.1605,2.1809,2.2004,0.0,0.0,0.0,2.8177,3.0293,3.1307,2.9146,2.9194,2.9569,2.9564,3.076,3.2094,3.3221,3.8126,4.2754,4.5791,4.6629,4.6942,4.6942,4.7541,4.8402,4.9521,4.9556,4.9726,5.0171,5.0203,5.0203,5.0203,5.0203,5.0203,5.0203,4.9942,4.9918,5.0103,4.9848,4.9806,5.0011,5.0011,5.0011,5.0011,5.0011,5.0011,5.0011,5.0011,5.0011,5.0011,5.0011,5.0011,5.0008,5.0123,5.0443,5.083,5.1044,5.1619,5.2291,5.2495,5.2857,5.3196,5.3196,5.3196,5.3489,5.495,5.5475,5.5934,5.7391,5.7886,5.7997,5.7997,5.7997,5.7997,5.7997,5.7997,5.7997,5.7997,5.7997,5.7997,5.7997,5.7997,5.7997,5.7997,5.7997,5.7997,5.7997,5.7474,5.7065,5.6964,5.6447,5.5872,5.5284,5.5224,5.5016,5.4543,5.4358,5.4287,5.4287,5.4134,5.3772,5.3184,5.2392,5.1996,5.1996,5.1996,5.2461,5.3408,5.4011,5.4358,2.1575,2.2019,2.2358,2.1824,2.2154,2.2448,2.1929,0.0,2.2461,2.2611,0.0,2.3223,2.3509,0.0,0.0,2.376,2.5719,2.8055,3.0179,3.2585,3.4569,3.5748,3.8026,3.9518,3.9518,4.2252,4.5588,4.9321,4.9425,4.9576,5.0171,5.0203,5.0203,5.0203,5.0203,5.0203,5.0203,5.0443,5.0422,5.0103,5.0345,5.0305,5.0011,5.0011,5.0011,5.0011,5.0011,5.0011,5.0011,5.0011,5.0011,5.0011,5.0011,5.0011,5.0051,5.0537,5.0753,5.0937,5.1891,5.1988,5.1854,5.2794,5.3153,5.3196,5.3196,5.3196,5.3379,5.4289,5.5042,5.5805,5.6712,5.7464,5.7997,5.7997,5.7997,5.7997,5.7997,5.7997,5.7997,5.7997,5.7997,5.7997,5.7997,5.7997,5.7997,5.7997,5.7997,5.7997,5.7997,5.7474,5.6907,5.6452,5.5858,5.5254,5.4652,5.4605,5.4573,5.4512,5.3891,5.3529,5.3529,5.2841,5.2427,5.2341,5.1599,5.122,5.122,5.122,5.1961,5.3408,5.3494,5.3891,2.5127,2.5685,2.5617,2.5698,2.5917,2.6055,2.5775,2.3931,2.2378,2.2737,0.0,0.0,0.0,0.0,0.0,0.0,2.5626,2.7061,2.8415,2.9322,3.1495,3.6048,3.7598,3.9137,4.1225,4.1447,4.3071,4.6881,4.6979,4.7126,4.7733,4.9309,5.0203,5.0203,5.0203,5.0419,5.0817,5.076,5.0724,5.0744,5.0635,5.039,5.0011,5.0011,5.0011,5.0011,5.0011,5.0011,5.0011,5.0011,5.0011,5.0011,5.0011,5.0192,5.0495,5.0725,5.1197,5.1793,5.2238,5.2454,5.2552,5.2694,5.2529,5.228,5.228,5.228,5.2442,5.3243,5.3707,5.4171,5.4978,5.5425,5.5752,5.6066,5.5904,5.5764,5.6078,5.6137,5.6137,5.6137,5.6395,5.6613,5.6613,5.7373,5.7997,5.7997,5.7997,5.7997,5.7997,5.7474,5.6828,5.613,5.5247,5.4408,5.3694,5.3333,5.3168,5.3168,5.2875,5.2703,5.2703,5.1979,5.1565,5.1565,5.0841,5.0462,5.0462,5.0462,5.1013,5.2065,5.2496,5.3117,2.9841,3.0139,2.9501,2.9028,2.8751,2.8365,2.7431,2.5139,2.3351,2.3778,2.368,0.0,0.0,0.0,2.5259,2.5543,0.0,2.6926,2.7046,2.736,2.9587,3.4977,3.6448,3.8114,4.0959,4.0311,4.0862,4.3662,4.4415,4.4923,4.537,4.8066,4.9724,5.0025,4.994,5.0339,5.1259,5.0894,5.0824,5.104,5.0732,5.039,5.0011,5.0011,5.0011,5.0011,5.0011,5.0011,5.0011,5.0011,5.0011,5.0011,5.0011,5.0331,5.0789,5.0789,5.1301,5.1988,5.212,5.2449,5.2705,5.2315,5.2024,5.1793,5.1638,5.1817,5.212,5.2572,5.2952,5.338,5.3951,5.4269,5.4548,5.4929,5.4719,5.4561,5.4929,5.4905,5.4828,5.4988,5.51,5.5211,5.5354,5.6347,5.7115,5.7115,5.6991,5.6956,5.7103,5.6618,5.6079,5.5624,5.4581,5.3647,5.3046,5.2513,5.2117,5.191,5.191,5.1806,5.1617,5.1082,5.0789,5.0789,5.0272,5.0011,5.0011,5.0011,5.0287,5.0824,5.1548,5.2323,3.554,3.5046,3.3702,3.046,2.9121,2.7752,2.4508,2.4163,2.4533,2.4563,2.5079,2.5719,2.639,2.6524,0.0,0.0,2.6704,0.0,0.0,2.6779,2.7908,2.8723,3.1738,3.4084,3.4908,3.7259,3.908,3.9919,4.2381,4.3841,4.3874,4.654,4.8546,4.9589,4.9294,4.9793,5.1203,5.0859,5.0669,5.062,5.0602,5.039,5.0011,5.0011,5.0011,5.0011,5.0011,5.0011,5.0011,5.0011,5.0011,5.0011,5.0011,5.0331,5.0789,5.0789,5.0816,5.0924,5.1455,5.1644,5.1656,5.1626,5.1964,5.228,5.1768,5.2326,5.3039,5.2547,5.3344,5.4356,5.4374,5.4972,5.5541,5.5581,5.5552,5.5552,5.5581,5.5176,5.4953,5.5467,5.4744,5.423,5.4731,5.487,5.4906,5.4906,5.4453,5.4315,5.4846,5.4428,5.4258,5.4689,5.378,5.3099,5.3011,5.2513,5.1892,5.1168,5.1134,5.0806,5.0097,5.0048,5.0045,5.0045,4.9996,5.0011,5.0011,5.0011,4.9996,5.0048,5.0789,5.153,3.91,3.9302,3.8351,3.6715,3.4459,3.2222,3.0579,2.731,2.4593,2.4593,2.5483,2.633,2.6569,2.6958,0.0,0.0,0.0,0.0,0.0,2.6834,2.7471,2.8041,3.0058,3.2272,3.4487,3.4115,3.465,3.6846,3.7784,3.8246,3.8246,4.288,4.5717,4.6089,4.802,4.9493,5.0458,5.0363,5.0403,5.06,5.06,5.039,5.0011,5.0011,5.0011,5.0011,5.0011,5.0011,5.0011,5.0011,5.0011,5.0011,5.0011,5.0109,5.0316,5.0671,5.1013,5.1416,5.1952,5.1903,5.1669,5.2012,5.2012,5.1842,5.1669,5.1836,5.2096,5.1927,5.2192,5.254,5.254,5.275,5.3044,5.3408,5.3216,5.3044,5.3408,5.3332,5.3263,5.3442,5.3477,5.354,5.3715,5.3442,5.3453,5.4157,5.4128,5.4076,5.4255,5.4097,5.3867,5.3487,5.2799,5.2147,5.1583,5.1049,5.0634,5.039,5.0358,5.0269,4.9996,5.0011,5.0011,5.0011,5.0011,5.0011,5.0011,5.0011,5.0011,5.0011,5.0269,5.0772,4.334,4.3516,4.2501,4.0571,3.8321,3.6077,3.4146,3.0921,2.8329,2.8269,2.9129,2.9571,2.8553,2.8733,0.0,0.0,0.0,0.0,0.0,2.6832,2.7294,2.7802,2.985,3.1724,3.2978,3.2576,3.2758,3.405,3.4952,3.5469,3.5492,4.1118,4.4392,4.4505,4.7428,4.9346,5.0071,4.9946,5.0054,5.039,5.039,5.0253,5.0011,5.0011,5.0011,5.0011,5.0011,5.0011,5.0011,5.0011,5.0011,5.0011,5.0011,5.0011,5.0037,5.0387,5.0857,5.1347,5.1701,5.1743,5.1669,5.2,5.2012,5.1854,5.1669,5.1879,5.212,5.1939,5.1873,5.1873,5.1873,5.1738,5.1694,5.2036,5.1836,5.1688,5.2036,5.1964,5.1952,5.2326,5.2373,5.2472,5.2857,5.2465,5.2414,5.3311,5.3279,5.3228,5.3405,5.3113,5.2813,5.2668,5.1834,5.1074,5.0558,5.0192,5.0011,5.0011,5.0011,5.0011,5.0011,5.0011,5.0011,5.0011,5.0011,5.0011,5.0011,5.0011,5.0011,5.0011,5.0011,5.0237]}]]